[[{"header":{"parameterUnit":"m.s-1","parameterCategory":1,"la1":31.0,"la2":29.5877,"lo1":-88.7671,"lo2":-86.6584,"dy":0.0162,"dx":0.0185,"nx":115,"ny":88,"refTime":"2023-03-22T06:00:00:Z","depth":0,"parameterNumber":2,"parameterNumberName":"U-component_of_WINDS"},"data":[0.0,0.0,0.0,0.0,0.0,0.0,0.0,0.0,0.0,0.0,0.0,0.0,0.0,0.0,0.0,0.0,0.0,0.0,0.0,0.0,0.0,0.0,0.0,0.0,0.0,0.0,0.0,0.0,0.0,0.0,0.0,0.0,0.0,0.0,0.0,0.0,0.0,0.0,0.0,0.0,0.0,0.0,0.0,0.0,0.0,0.0,0.0,0.0,0.0,0.0,0.0,0.0,0.0,0.0,0.0,0.0,0.0,0.0,0.0,0.0,0.0,0.0,0.0,0.0,0.0,0.0,0.0,0.0,0.0,0.0,0.0,0.0,0.0,0.0,0.0,0.0,0.0,0.0,0.0,0.0,0.0,0.0,0.0,0.0,0.0,0.0,0.0,0.0,0.0,0.0,0.0,0.0,0.0,0.0,0.0,0.0,0.0,0.0,0.0,0.0,0.0,0.0,0.0,0.0,0.0,0.0,0.0,0.0,0.0,0.0,0.0,0.0,0.0,0.0,0.0,0.0,0.0,0.0,0.0,0.0,0.0,0.0,0.0,0.0,0.0,0.0,0.0,0.0,0.0,0.0,0.0,0.0,0.0,0.0,0.0,0.0,0.0,0.0,0.0,0.0,0.0,0.0,0.0,0.0,0.0,0.0,0.0,0.0,0.0,0.0,0.0,0.0,0.0,0.0,0.0,0.0,0.0,0.0,0.0,0.0,0.0,0.0,0.0,0.0,0.0,0.0,0.0,0.0,0.0,0.0,0.0,0.0,0.0,0.0,0.0,0.0,0.0,0.0,0.0,0.0,0.0,0.0,0.0,0.0,0.0,0.0,0.0,0.0,0.0,0.0,0.0,0.0,0.0,0.0,0.0,0.0,0.0,0.0,0.0,0.0,0.0,0.0,0.0,0.0,0.0,0.0,0.0,0.0,0.0,0.0,0.0,0.0,0.0,0.0,0.0,0.0,0.0,0.0,0.0,0.0,0.0,0.0,0.0,0.0,0.0,0.0,0.0,0.0,0.0,0.0,0.0,0.0,0.0,0.0,0.0,0.0,0.0,0.0,0.0,0.0,0.0,0.0,0.0,0.0,0.0,0.0,0.0,0.0,0.0,0.0,0.0,0.0,0.0,0.0,0.0,0.0,0.0,0.0,0.0,0.0,0.0,0.0,0.0,0.0,0.0,0.0,0.0,0.0,0.0,0.0,0.0,0.0,0.0,0.0,0.0,0.0,0.0,0.0,0.0,0.0,0.0,0.0,0.0,0.0,0.0,0.0,0.0,0.0,0.0,0.0,0.0,0.0,0.0,0.0,0.0,0.0,0.0,0.0,0.0,0.0,0.0,0.0,0.0,0.0,0.0,0.0,0.0,0.0,0.0,0.0,0.0,0.0,0.0,0.0,0.0,0.0,0.0,0.0,0.0,0.0,0.0,0.0,0.0,0.0,0.0,0.0,0.0,0.0,0.0,0.0,0.0,0.0,0.0,0.0,0.0,0.0,0.0,0.0,0.0,0.0,0.0,0.0,0.0,0.0,0.0,0.0,0.0,0.0,0.0,0.0,0.0,0.0,0.0,0.0,0.0,0.0,0.0,0.0,0.0,0.0,0.0,0.0,0.0,0.0,0.0,0.0,0.0,0.0,0.0,0.0,0.0,0.0,0.0,0.0,0.0,0.0,0.0,0.0,0.0,0.0,0.0,0.0,0.0,0.0,0.0,0.0,0.0,0.0,0.0,0.0,0.0,0.0,0.0,0.0,0.0,0.0,0.0,0.0,0.0,0.0,0.0,0.0,0.0,0.0,0.0,0.0,0.0,0.0,0.0,0.0,0.0,0.0,0.0,0.0,0.0,0.0,0.0,0.0,0.0,0.0,0.0,0.0,0.0,0.0,0.0,0.0,0.0,0.0,0.0,0.0,0.0,0.0,0.0,0.0,0.0,0.0,0.0,0.0,0.0,0.0,0.0,0.0,0.0,0.0,0.0,0.0,0.0,0.0,0.0,0.0,0.0,0.0,0.0,0.0,0.0,0.0,0.0,0.0,0.0,0.0,0.0,0.0,0.0,0.0,0.0,0.0,0.0,0.0,0.0,0.0,0.0,0.0,0.0,0.0,0.0,0.0,0.0,0.0,0.0,0.0,0.0,0.0,0.0,0.0,0.0,0.0,0.0,0.0,0.0,0.0,0.0,0.0,0.0,0.0,0.0,0.0,0.0,0.0,0.0,0.0,0.0,0.0,0.0,0.0,0.0,0.0,0.0,0.0,0.0,0.0,0.0,0.0,0.0,0.0,0.0,0.0,0.0,0.0,0.0,0.0,0.0,0.0,0.0,0.0,0.0,0.0,0.0,0.0,0.0,0.0,0.0,0.0,0.0,0.0,0.0,0.0,0.0,0.0,0.0,0.0,0.0,0.0,0.0,0.0,0.0,0.0,0.0,0.0,0.0,0.0,0.0,0.0,0.0,0.0,0.0,0.0,0.0,0.0,0.0,0.0,0.0,0.0,0.0,0.0,0.0,0.0,0.0,0.0,0.0,0.0,0.0,0.0,0.0,0.0,0.0,0.0,0.0,0.0,0.0,0.0,0.0,0.0,0.0,0.0,0.0,0.0,0.0,0.0,0.0,0.0,0.0,0.0,0.0,0.0,0.0,0.0,0.0,0.0,0.0,0.0,0.0,0.0,0.0,0.0,0.0,0.0,0.0,0.0,0.0,0.0,0.0,0.0,0.0,0.0,0.0,0.0,0.0,0.0,0.0,0.0,0.0,0.0,0.0,0.0,0.0,0.0,0.0,0.0,0.0,0.0,0.0,0.0,0.0,0.0,0.0,0.0,0.0,0.0,0.0,0.0,0.0,0.0,0.0,0.0,0.0,0.0,0.0,0.0,0.0,0.0,0.0,0.0,0.0,0.0,0.0,0.0,0.0,0.0,0.0,0.0,0.0,0.0,0.0,0.0,0.0,0.0,0.0,0.0,0.0,0.0,0.0,0.0,0.0,0.0,0.0,0.0,0.0,0.0,0.0,0.0,0.0,0.0,0.0,0.0,0.0,0.0,0.0,0.0,0.0,0.0,0.0,0.0,0.0,0.0,0.0,0.0,0.0,0.0,0.0,0.0,0.0,0.0,0.0,0.0,0.0,0.0,0.0,0.0,0.0,0.0,0.0,0.0,0.0,0.0,0.0,0.0,0.0,0.0,0.0,0.0,0.0,0.0,0.0,0.0,0.0,0.0,0.0,0.0,0.0,0.0,0.0,0.0,0.0,0.0,0.0,0.0,0.0,0.0,0.0,0.0,0.0,0.0,0.0,0.0,0.0,0.0,0.0,0.0,0.0,0.0,0.0,0.0,0.0,0.0,0.0,0.0,0.0,0.0,0.0,0.0,0.0,0.0,0.0,0.0,0.0,0.0,0.0,0.0,0.0,0.0,0.0,0.0,0.0,0.0,0.0,0.0,0.0,0.0,0.0,0.0,0.0,0.0,0.0,0.0,0.0,0.0,0.0,0.0,0.0,0.0,0.0,0.0,0.0,0.0,0.0,0.0,0.0,0.0,0.0,0.0,0.0,0.0,0.0,0.0,0.0,0.0,0.0,0.0,0.0,0.0,0.0,0.0,0.0,0.0,0.0,0.0,0.0,0.0,0.0,0.0,0.0,0.0,0.0,0.0,0.0,0.0,0.0,0.0,0.0,0.0,0.0,0.0,0.0,0.0,0.0,0.0,0.0,0.0,0.0,0.0,0.0,0.0,0.0,0.0,0.0,0.0,0.0,0.0,0.0,0.0,0.0,0.0,0.0,0.0,0.0,0.0,0.0,0.0,0.0,0.0,0.0,0.0,0.0,0.0,0.0,0.0,0.0,0.0,0.0,0.0,0.0,0.0,0.0,0.0,0.0,0.0,0.0,0.0,0.0,0.0,0.0,0.0,0.0,0.0,0.0,0.0,0.0,0.0,0.0,0.0,0.0,0.0,0.0,0.0,0.0,0.0,0.0,0.0,0.0,0.0,0.0,0.0,0.0,0.0,0.0,0.0,0.0,0.0,0.0,0.0,0.0,0.0,0.0,0.0,0.0,0.0,0.0,0.0,0.0,0.0,0.0,0.0,0.0,0.0,0.0,0.0,0.0,0.0,0.0,0.0,0.0,0.0,0.0,0.0,0.0,0.0,0.0,0.0,0.0,0.0,0.0,0.0,0.0,0.0,0.0,0.0,0.0,0.0,0.0,0.0,0.0,0.0,0.0,0.0,0.0,0.0,0.0,0.0,0.0,0.0,0.0,0.0,0.0,0.0,0.0,0.0,-4.993,0.0,0.0,0.0,0.0,0.0,0.0,0.0,0.0,0.0,0.0,0.0,0.0,0.0,0.0,0.0,0.0,0.0,0.0,0.0,0.0,0.0,0.0,0.0,0.0,0.0,0.0,0.0,0.0,0.0,0.0,0.0,0.0,0.0,0.0,0.0,0.0,0.0,0.0,0.0,0.0,0.0,0.0,0.0,0.0,0.0,0.0,0.0,0.0,0.0,0.0,0.0,0.0,0.0,0.0,0.0,0.0,0.0,0.0,0.0,0.0,0.0,0.0,0.0,0.0,0.0,0.0,0.0,0.0,0.0,0.0,0.0,0.0,0.0,0.0,0.0,0.0,0.0,0.0,0.0,0.0,0.0,0.0,0.0,0.0,0.0,0.0,0.0,0.0,0.0,0.0,0.0,0.0,0.0,0.0,0.0,0.0,0.0,0.0,0.0,0.0,0.0,0.0,0.0,0.0,0.0,0.0,0.0,0.0,0.0,0.0,-5.1202,-5.1202,-5.1202,-5.1025,-5.0625,0.0,0.0,0.0,0.0,0.0,0.0,0.0,0.0,0.0,0.0,0.0,0.0,0.0,0.0,0.0,0.0,0.0,0.0,0.0,0.0,0.0,0.0,0.0,0.0,0.0,0.0,0.0,0.0,0.0,0.0,0.0,0.0,0.0,0.0,0.0,0.0,0.0,0.0,0.0,0.0,0.0,0.0,0.0,0.0,0.0,0.0,0.0,0.0,0.0,0.0,0.0,0.0,0.0,0.0,0.0,0.0,0.0,0.0,0.0,0.0,0.0,0.0,0.0,0.0,0.0,0.0,0.0,0.0,0.0,0.0,0.0,0.0,0.0,0.0,0.0,0.0,0.0,0.0,0.0,0.0,0.0,0.0,0.0,0.0,0.0,0.0,0.0,0.0,0.0,0.0,0.0,0.0,0.0,0.0,0.0,0.0,0.0,0.0,0.0,0.0,0.0,0.0,0.0,0.0,0.0,0.0,0.0,0.0,0.0,0.0,0.0,0.0,-5.1202,-5.122,-5.1175,0.0,0.0,0.0,0.0,0.0,0.0,0.0,0.0,0.0,0.0,0.0,0.0,0.0,0.0,0.0,0.0,0.0,0.0,0.0,0.0,0.0,0.0,0.0,0.0,0.0,0.0,0.0,0.0,0.0,0.0,0.0,0.0,0.0,0.0,0.0,0.0,0.0,0.0,0.0,0.0,0.0,0.0,0.0,0.0,0.0,0.0,0.0,0.0,0.0,0.0,0.0,0.0,0.0,0.0,0.0,0.0,0.0,0.0,0.0,0.0,0.0,0.0,0.0,0.0,0.0,0.0,0.0,0.0,0.0,0.0,0.0,0.0,0.0,0.0,0.0,0.0,0.0,0.0,0.0,0.0,0.0,0.0,0.0,0.0,0.0,0.0,0.0,0.0,0.0,0.0,0.0,0.0,0.0,0.0,0.0,0.0,0.0,0.0,0.0,0.0,0.0,0.0,0.0,0.0,0.0,0.0,0.0,0.0,0.0,0.0,-5.1202,-5.1202,-5.1202,0.0,-5.1208,0.0,0.0,0.0,0.0,0.0,0.0,0.0,0.0,0.0,0.0,0.0,0.0,0.0,0.0,0.0,0.0,0.0,0.0,0.0,0.0,0.0,0.0,0.0,0.0,0.0,0.0,0.0,0.0,0.0,0.0,0.0,0.0,0.0,0.0,0.0,0.0,0.0,0.0,0.0,0.0,0.0,0.0,0.0,0.0,0.0,0.0,0.0,0.0,0.0,0.0,0.0,0.0,0.0,0.0,0.0,0.0,0.0,0.0,0.0,0.0,0.0,0.0,0.0,0.0,0.0,0.0,0.0,0.0,0.0,0.0,0.0,0.0,0.0,0.0,0.0,0.0,0.0,0.0,0.0,0.0,0.0,0.0,0.0,0.0,0.0,0.0,0.0,0.0,0.0,0.0,0.0,0.0,0.0,0.0,0.0,0.0,0.0,0.0,0.0,0.0,0.0,0.0,0.0,0.0,0.0,0.0,0.0,0.0,0.0,0.0,-5.1202,-5.1202,-5.1202,-5.1208,0.0,0.0,0.0,0.0,0.0,0.0,0.0,0.0,0.0,0.0,0.0,0.0,0.0,0.0,0.0,0.0,0.0,0.0,0.0,0.0,0.0,0.0,0.0,0.0,0.0,0.0,0.0,0.0,0.0,0.0,0.0,0.0,0.0,0.0,0.0,0.0,0.0,0.0,0.0,0.0,0.0,0.0,0.0,0.0,0.0,0.0,0.0,0.0,0.0,0.0,0.0,0.0,0.0,0.0,0.0,0.0,0.0,0.0,0.0,0.0,0.0,0.0,0.0,0.0,0.0,0.0,0.0,0.0,0.0,0.0,0.0,0.0,0.0,0.0,0.0,0.0,0.0,0.0,0.0,0.0,0.0,0.0,0.0,0.0,0.0,0.0,0.0,0.0,0.0,0.0,0.0,0.0,0.0,0.0,0.0,0.0,0.0,0.0,0.0,0.0,0.0,0.0,0.0,0.0,0.0,0.0,0.0,0.0,0.0,0.0,-5.1513,-5.1435,-5.1202,-5.1202,-5.1202,-5.1202,0.0,0.0,0.0,0.0,0.0,0.0,0.0,0.0,0.0,0.0,0.0,0.0,0.0,0.0,0.0,0.0,0.0,0.0,0.0,0.0,0.0,0.0,0.0,0.0,0.0,0.0,0.0,0.0,0.0,0.0,0.0,0.0,0.0,0.0,0.0,0.0,0.0,0.0,0.0,0.0,0.0,0.0,0.0,0.0,0.0,0.0,0.0,0.0,0.0,0.0,0.0,0.0,0.0,0.0,0.0,0.0,0.0,0.0,0.0,0.0,0.0,0.0,0.0,0.0,0.0,0.0,0.0,0.0,0.0,0.0,0.0,0.0,0.0,0.0,0.0,0.0,0.0,0.0,0.0,0.0,0.0,0.0,0.0,0.0,0.0,0.0,0.0,0.0,0.0,0.0,0.0,0.0,0.0,0.0,0.0,0.0,0.0,0.0,0.0,0.0,0.0,0.0,0.0,0.0,0.0,0.0,0.0,0.0,-5.2329,-5.2329,-5.1979,-5.1241,-5.1202,-5.1202,0.0,0.0,0.0,0.0,0.0,0.0,0.0,0.0,0.0,0.0,0.0,0.0,0.0,0.0,0.0,0.0,0.0,0.0,0.0,0.0,0.0,0.0,0.0,0.0,0.0,0.0,0.0,0.0,0.0,0.0,0.0,0.0,0.0,0.0,0.0,0.0,0.0,0.0,0.0,0.0,0.0,0.0,0.0,0.0,0.0,0.0,0.0,0.0,0.0,0.0,0.0,0.0,0.0,0.0,0.0,0.0,0.0,0.0,0.0,0.0,0.0,0.0,0.0,0.0,0.0,0.0,0.0,0.0,0.0,0.0,0.0,0.0,0.0,0.0,0.0,0.0,0.0,0.0,0.0,0.0,0.0,0.0,0.0,0.0,0.0,0.0,0.0,0.0,0.0,0.0,0.0,0.0,0.0,0.0,0.0,0.0,0.0,0.0,0.0,0.0,0.0,0.0,0.0,0.0,0.0,0.0,0.0,0.0,0.0,-5.2368,-5.1901,-5.1474,-5.1202,-5.1202,-5.1202,0.0,0.0,0.0,0.0,0.0,0.0,0.0,0.0,0.0,0.0,0.0,0.0,0.0,0.0,0.0,0.0,0.0,0.0,0.0,0.0,0.0,0.0,0.0,0.0,0.0,0.0,0.0,0.0,0.0,0.0,0.0,0.0,0.0,0.0,0.0,0.0,0.0,0.0,0.0,0.0,0.0,0.0,0.0,0.0,0.0,0.0,0.0,0.0,0.0,0.0,0.0,0.0,0.0,0.0,0.0,0.0,0.0,0.0,0.0,0.0,0.0,0.0,0.0,0.0,0.0,0.0,0.0,0.0,0.0,0.0,0.0,0.0,0.0,0.0,0.0,0.0,0.0,0.0,0.0,0.0,0.0,0.0,0.0,0.0,0.0,0.0,0.0,0.0,0.0,0.0,0.0,0.0,0.0,0.0,0.0,0.0,0.0,0.0,0.0,0.0,0.0,0.0,0.0,0.0,0.0,0.0,0.0,0.0,0.0,-5.3222,0.0,-5.1591,-5.1591,-5.1358,-5.1202,0.0,0.0,0.0,0.0,0.0,0.0,0.0,0.0,0.0,0.0,0.0,0.0,0.0,0.0,0.0,0.0,0.0,0.0,0.0,0.0,0.0,0.0,0.0,0.0,0.0,0.0,0.0,0.0,0.0,0.0,0.0,0.0,0.0,0.0,0.0,0.0,0.0,0.0,0.0,0.0,0.0,0.0,0.0,0.0,0.0,0.0,0.0,0.0,0.0,0.0,0.0,0.0,0.0,0.0,0.0,0.0,0.0,0.0,0.0,0.0,0.0,0.0,0.0,0.0,0.0,0.0,0.0,0.0,0.0,0.0,0.0,0.0,0.0,0.0,0.0,0.0,0.0,0.0,0.0,0.0,0.0,0.0,0.0,0.0,0.0,0.0,0.0,0.0,0.0,0.0,0.0,0.0,0.0,0.0,0.0,0.0,0.0,0.0,0.0,0.0,0.0,0.0,0.0,0.0,0.0,0.0,0.0,0.0,-5.4971,-5.4893,-5.33,-5.2407,-5.2407,-5.1668,-5.1241,0.0,0.0,0.0,0.0,0.0,0.0,0.0,0.0,0.0,0.0,0.0,0.0,0.0,0.0,0.0,0.0,0.0,0.0,0.0,0.0,0.0,0.0,0.0,0.0,0.0,0.0,0.0,0.0,0.0,0.0,0.0,0.0,0.0,0.0,0.0,0.0,0.0,0.0,0.0,0.0,0.0,0.0,0.0,0.0,0.0,0.0,0.0,0.0,0.0,0.0,0.0,0.0,0.0,0.0,0.0,0.0,0.0,0.0,0.0,0.0,0.0,0.0,0.0,0.0,0.0,0.0,0.0,0.0,0.0,0.0,0.0,0.0,0.0,0.0,0.0,0.0,0.0,0.0,0.0,0.0,0.0,0.0,0.0,0.0,0.0,0.0,0.0,0.0,0.0,0.0,0.0,0.0,0.0,0.0,0.0,0.0,0.0,0.0,0.0,0.0,0.0,0.0,0.0,0.0,0.0,0.0,0.0,0.0,0.0,-5.5009,-5.3883,-5.3306,-5.3267,-5.2484,-5.2018,0.0,0.0,0.0,0.0,0.0,0.0,0.0,0.0,0.0,0.0,0.0,0.0,0.0,0.0,0.0,0.0,0.0,0.0,0.0,0.0,0.0,0.0,0.0,0.0,0.0,0.0,0.0,0.0,0.0,0.0,0.0,0.0,0.0,0.0,0.0,0.0,0.0,0.0,0.0,0.0,0.0,0.0,0.0,0.0,0.0,0.0,0.0,0.0,0.0,0.0,0.0,0.0,0.0,0.0,0.0,0.0,0.0,0.0,0.0,0.0,0.0,0.0,0.0,0.0,0.0,0.0,0.0,0.0,0.0,0.0,0.0,0.0,0.0,0.0,0.0,0.0,0.0,0.0,0.0,0.0,0.0,0.0,0.0,0.0,0.0,0.0,0.0,0.0,0.0,0.0,0.0,0.0,0.0,0.0,0.0,0.0,0.0,0.0,0.0,0.0,0.0,0.0,0.0,0.0,0.0,0.0,0.0,0.0,0.0,-5.5436,-5.4595,-5.4142,-5.4194,-5.3327,-5.2893,-5.2854,0.0,0.0,0.0,0.0,0.0,0.0,0.0,0.0,0.0,0.0,0.0,0.0,0.0,0.0,0.0,0.0,0.0,0.0,0.0,0.0,0.0,0.0,0.0,0.0,0.0,0.0,0.0,0.0,0.0,0.0,0.0,0.0,0.0,0.0,0.0,0.0,0.0,0.0,0.0,0.0,0.0,0.0,0.0,0.0,0.0,0.0,0.0,0.0,0.0,0.0,0.0,0.0,0.0,0.0,0.0,0.0,0.0,0.0,0.0,0.0,0.0,0.0,0.0,0.0,0.0,0.0,0.0,0.0,0.0,0.0,0.0,0.0,0.0,0.0,0.0,0.0,0.0,0.0,0.0,0.0,0.0,0.0,0.0,0.0,0.0,0.0,0.0,0.0,0.0,0.0,0.0,0.0,0.0,0.0,0.0,0.0,0.0,0.0,0.0,0.0,0.0,0.0,0.0,0.0,0.0,0.0,0.0,0.0,-5.6257,-5.5394,-5.5002,-5.5035,-5.4233,-5.3792,0.0,0.0,0.0,0.0,0.0,0.0,0.0,0.0,0.0,0.0,0.0,0.0,0.0,0.0,0.0,0.0,0.0,0.0,0.0,0.0,0.0,0.0,0.0,0.0,0.0,0.0,0.0,0.0,0.0,0.0,0.0,0.0,0.0,0.0,0.0,0.0,0.0,0.0,0.0,0.0,0.0,0.0,0.0,0.0,0.0,0.0,0.0,0.0,0.0,0.0,0.0,0.0,0.0,0.0,0.0,0.0,0.0,0.0,0.0,0.0,0.0,0.0,0.0,0.0,0.0,0.0,0.0,0.0,0.0,0.0,0.0,0.0,0.0,0.0,0.0,0.0,0.0,0.0,0.0,0.0,0.0,0.0,0.0,0.0,0.0,0.0,0.0,0.0,0.0,0.0,0.0,0.0,0.0,0.0,0.0,0.0,0.0,0.0,0.0,0.0,0.0,0.0,0.0,0.0,0.0,0.0,0.0,0.0,0.0,-5.7025,-5.6234,-5.5823,-5.586,-5.5031,-5.4597,0.0,0.0,0.0,0.0,0.0,0.0,0.0,0.0,0.0,0.0,0.0,0.0,0.0,0.0,0.0,0.0,0.0,0.0,0.0,0.0,0.0,0.0,0.0,0.0,0.0,0.0,0.0,0.0,0.0,0.0,0.0,0.0,0.0,0.0,0.0,0.0,0.0,0.0,0.0,0.0,0.0,0.0,0.0,0.0,0.0,0.0,0.0,0.0,0.0,0.0,0.0,0.0,0.0,0.0,0.0,0.0,0.0,0.0,0.0,0.0,0.0,0.0,0.0,0.0,0.0,0.0,0.0,0.0,0.0,0.0,0.0,0.0,0.0,0.0,0.0,0.0,0.0,0.0,0.0,0.0,0.0,0.0,0.0,0.0,0.0,0.0,0.0,0.0,0.0,0.0,0.0,0.0,0.0,0.0,0.0,0.0,0.0,0.0,0.0,0.0,0.0,0.0,0.0,0.0,0.0,0.0,0.0,0.0,-5.703,-5.7868,-5.7417,-5.7146,-5.721,-5.6025,-5.5413,0.0,0.0,0.0,0.0,0.0,0.0,0.0,0.0,0.0,0.0,0.0,0.0,0.0,0.0,0.0,0.0,0.0,0.0,0.0,0.0,0.0,0.0,0.0,0.0,0.0,0.0,0.0,0.0,0.0,0.0,0.0,0.0,0.0,0.0,0.0,0.0,0.0,0.0,0.0,0.0,0.0,0.0,0.0,0.0,0.0,0.0,0.0,0.0,0.0,0.0,0.0,0.0,0.0,0.0,0.0,0.0,0.0,0.0,0.0,0.0,0.0,0.0,0.0,0.0,0.0,0.0,0.0,0.0,0.0,0.0,0.0,0.0,0.0,0.0,0.0,0.0,0.0,0.0,0.0,0.0,0.0,0.0,0.0,0.0,0.0,0.0,0.0,0.0,0.0,0.0,0.0,0.0,0.0,0.0,0.0,0.0,0.0,0.0,0.0,0.0,0.0,0.0,0.0,0.0,0.0,0.0,0.0,0.0,-5.7821,-5.8681,-5.8633,-5.8595,-5.8565,-5.7052,-5.6225,0.0,0.0,0.0,0.0,0.0,0.0,0.0,0.0,0.0,0.0,0.0,0.0,0.0,0.0,0.0,0.0,0.0,0.0,0.0,0.0,0.0,0.0,0.0,0.0,0.0,0.0,0.0,0.0,0.0,0.0,0.0,0.0,0.0,0.0,0.0,0.0,0.0,0.0,0.0,0.0,0.0,0.0,0.0,0.0,0.0,0.0,0.0,0.0,0.0,0.0,0.0,0.0,0.0,0.0,0.0,0.0,0.0,0.0,0.0,0.0,0.0,0.0,0.0,0.0,0.0,0.0,0.0,0.0,0.0,0.0,0.0,0.0,0.0,0.0,0.0,0.0,0.0,0.0,0.0,0.0,0.0,0.0,0.0,0.0,0.0,0.0,0.0,0.0,0.0,0.0,0.0,0.0,0.0,0.0,0.0,0.0,0.0,0.0,0.0,0.0,0.0,0.0,0.0,0.0,0.0,0.0,0.0,0.0,-5.8655,-5.9515,-5.8809,-5.8462,-5.85,-5.7541,-5.7065,0.0,0.0,0.0,0.0,0.0,0.0,0.0,0.0,0.0,0.0,0.0,0.0,0.0,0.0,0.0,0.0,0.0,0.0,0.0,0.0,0.0,0.0,0.0,0.0,0.0,0.0,0.0,0.0,0.0,0.0,0.0,0.0,0.0,0.0,0.0,0.0,0.0,0.0,0.0,0.0,0.0,0.0,0.0,0.0,0.0,0.0,0.0,0.0,-5.0807,0.0,0.0,0.0,0.0,0.0,0.0,0.0,0.0,0.0,0.0,0.0,0.0,0.0,0.0,0.0,0.0,0.0,0.0,0.0,0.0,0.0,0.0,0.0,0.0,0.0,0.0,0.0,0.0,0.0,0.0,0.0,0.0,0.0,0.0,0.0,0.0,0.0,0.0,0.0,0.0,0.0,0.0,0.0,0.0,0.0,0.0,0.0,0.0,0.0,0.0,0.0,0.0,0.0,0.0,0.0,0.0,0.0,0.0,0.0,-5.9534,-6.0307,-5.986,-5.9657,-5.9639,-5.8858,-5.8239,0.0,0.0,0.0,0.0,0.0,0.0,0.0,0.0,0.0,0.0,0.0,0.0,0.0,0.0,0.0,0.0,0.0,0.0,0.0,0.0,0.0,0.0,0.0,0.0,0.0,0.0,0.0,0.0,0.0,0.0,0.0,0.0,0.0,0.0,0.0,0.0,0.0,0.0,0.0,0.0,0.0,0.0,0.0,0.0,0.0,0.0,0.0,0.0,0.0,0.0,0.0,0.0,0.0,0.0,0.0,0.0,0.0,0.0,0.0,0.0,0.0,0.0,0.0,0.0,0.0,0.0,0.0,0.0,0.0,0.0,0.0,0.0,0.0,0.0,0.0,0.0,0.0,0.0,0.0,0.0,0.0,0.0,0.0,0.0,0.0,0.0,0.0,0.0,0.0,0.0,0.0,0.0,0.0,0.0,0.0,0.0,0.0,0.0,0.0,0.0,0.0,0.0,0.0,0.0,0.0,0.0,0.0,-5.994,-6.0297,-6.0992,-6.0969,-6.0976,-6.0976,-6.0282,-5.96,-5.9002,0.0,0.0,0.0,0.0,0.0,0.0,0.0,0.0,0.0,0.0,0.0,0.0,0.0,0.0,0.0,0.0,0.0,0.0,0.0,0.0,0.0,0.0,0.0,0.0,0.0,0.0,0.0,0.0,0.0,0.0,0.0,0.0,0.0,0.0,0.0,0.0,0.0,0.0,-5.0957,-5.1019,0.0,0.0,0.0,0.0,0.0,0.0,0.0,0.0,-5.3062,0.0,0.0,0.0,0.0,0.0,0.0,0.0,0.0,0.0,0.0,0.0,0.0,0.0,0.0,0.0,0.0,0.0,0.0,0.0,0.0,0.0,0.0,0.0,0.0,0.0,0.0,0.0,0.0,0.0,0.0,0.0,0.0,0.0,0.0,0.0,0.0,0.0,0.0,0.0,0.0,0.0,0.0,0.0,0.0,0.0,0.0,0.0,0.0,0.0,0.0,0.0,0.0,0.0,0.0,0.0,0.0,-5.9919,-6.048,-6.0853,-6.1008,-6.0911,-6.0877,-6.0922,-6.0768,-6.0685,-6.0555,0.0,0.0,0.0,0.0,0.0,0.0,0.0,0.0,0.0,0.0,0.0,0.0,0.0,0.0,0.0,0.0,0.0,0.0,0.0,0.0,0.0,0.0,0.0,0.0,0.0,0.0,0.0,0.0,0.0,0.0,0.0,0.0,0.0,0.0,0.0,0.0,0.0,0.0,0.0,-5.2328,-5.2828,0.0,0.0,0.0,0.0,0.0,0.0,0.0,0.0,-5.3702,0.0,0.0,0.0,0.0,0.0,0.0,0.0,0.0,0.0,0.0,0.0,0.0,0.0,0.0,0.0,0.0,0.0,0.0,0.0,0.0,0.0,0.0,0.0,0.0,0.0,0.0,0.0,0.0,0.0,0.0,0.0,0.0,0.0,0.0,0.0,0.0,0.0,0.0,0.0,0.0,0.0,0.0,0.0,0.0,0.0,0.0,0.0,0.0,0.0,0.0,0.0,0.0,0.0,0.0,0.0,-6.1157,-6.1464,-6.1825,-6.2227,-6.2136,-6.1908,-6.152,-6.152,-6.1339,0.0,0.0,0.0,0.0,0.0,0.0,0.0,0.0,0.0,0.0,0.0,0.0,0.0,0.0,0.0,0.0,0.0,0.0,0.0,0.0,0.0,0.0,0.0,0.0,0.0,0.0,0.0,0.0,0.0,0.0,0.0,0.0,0.0,0.0,0.0,0.0,0.0,0.0,0.0,0.0,-5.2882,-5.3294,-5.3684,0.0,0.0,0.0,0.0,0.0,0.0,-5.4586,-5.4536,0.0,0.0,0.0,0.0,0.0,0.0,0.0,0.0,0.0,0.0,0.0,0.0,0.0,0.0,0.0,0.0,0.0,0.0,0.0,0.0,0.0,0.0,0.0,0.0,0.0,0.0,0.0,0.0,0.0,0.0,0.0,0.0,0.0,0.0,0.0,0.0,0.0,0.0,0.0,0.0,0.0,0.0,0.0,0.0,0.0,0.0,0.0,0.0,0.0,0.0,0.0,0.0,0.0,0.0,0.0,-6.2277,-6.2397,-6.2728,-6.3376,-6.3306,-6.3012,-6.2358,-6.2178,-6.1793,0.0,0.0,0.0,0.0,0.0,0.0,0.0,0.0,0.0,0.0,0.0,0.0,0.0,0.0,0.0,0.0,0.0,0.0,0.0,0.0,0.0,0.0,0.0,0.0,0.0,0.0,0.0,0.0,0.0,0.0,0.0,0.0,0.0,0.0,0.0,0.0,0.0,0.0,0.0,0.0,0.0,-5.3843,-5.445,-5.4553,0.0,0.0,0.0,0.0,-5.5352,-5.5377,0.0,0.0,0.0,0.0,0.0,0.0,0.0,0.0,0.0,0.0,0.0,0.0,0.0,0.0,0.0,0.0,0.0,0.0,0.0,0.0,0.0,0.0,0.0,0.0,0.0,0.0,0.0,0.0,0.0,0.0,0.0,0.0,0.0,0.0,0.0,0.0,0.0,0.0,0.0,0.0,0.0,0.0,0.0,0.0,0.0,0.0,0.0,0.0,0.0,0.0,0.0,0.0,0.0,0.0,0.0,0.0,-6.2316,-6.2943,-6.3311,-6.3376,-6.3306,-6.3231,-6.3166,-6.2474,-6.2062,0.0,0.0,0.0,0.0,0.0,0.0,0.0,0.0,0.0,0.0,0.0,0.0,0.0,0.0,0.0,0.0,0.0,0.0,0.0,0.0,0.0,0.0,0.0,0.0,0.0,0.0,0.0,0.0,0.0,0.0,0.0,0.0,0.0,0.0,0.0,0.0,0.0,0.0,0.0,0.0,0.0,-5.5255,-5.537,-5.537,-5.5384,0.0,0.0,-5.5339,-5.5261,-5.521,0.0,0.0,0.0,0.0,0.0,0.0,0.0,0.0,0.0,0.0,0.0,0.0,0.0,0.0,0.0,0.0,0.0,0.0,0.0,0.0,0.0,0.0,0.0,0.0,0.0,0.0,0.0,0.0,0.0,0.0,0.0,0.0,0.0,0.0,0.0,0.0,0.0,0.0,0.0,0.0,0.0,0.0,0.0,0.0,0.0,0.0,0.0,0.0,0.0,0.0,0.0,0.0,0.0,0.0,0.0,-6.2485,-6.2954,-6.3746,-6.4354,-6.4792,-6.4794,-6.4551,-6.4051,-6.3705,-6.3281,0.0,0.0,0.0,0.0,0.0,0.0,0.0,0.0,0.0,0.0,0.0,0.0,0.0,0.0,0.0,0.0,0.0,0.0,0.0,0.0,0.0,0.0,0.0,0.0,0.0,0.0,0.0,0.0,0.0,0.0,0.0,0.0,0.0,0.0,0.0,0.0,0.0,0.0,0.0,0.0,0.0,0.0,-5.5453,-5.5453,0.0,0.0,0.0,-5.5262,-5.5197,0.0,0.0,0.0,0.0,0.0,0.0,0.0,0.0,0.0,0.0,0.0,0.0,0.0,0.0,0.0,0.0,0.0,0.0,0.0,0.0,0.0,0.0,0.0,0.0,0.0,0.0,0.0,0.0,0.0,0.0,0.0,0.0,0.0,0.0,0.0,0.0,0.0,0.0,0.0,0.0,0.0,0.0,0.0,0.0,0.0,0.0,0.0,0.0,0.0,0.0,0.0,0.0,0.0,0.0,0.0,0.0,0.0,-6.3746,-6.4559,-6.5293,-6.5871,-6.5897,-6.559,-6.4936,-6.4705,0.0,0.0,0.0,0.0,0.0,0.0,0.0,0.0,0.0,0.0,0.0,0.0,0.0,0.0,0.0,0.0,0.0,0.0,0.0,0.0,0.0,0.0,0.0,0.0,0.0,0.0,0.0,-5.1515,0.0,0.0,0.0,0.0,0.0,0.0,0.0,0.0,0.0,0.0,0.0,0.0,0.0,0.0,-5.5377,-5.5403,-5.539,-5.539,0.0,0.0,-5.526,-5.5448,-5.5431,-5.5465,0.0,0.0,0.0,0.0,0.0,0.0,0.0,0.0,0.0,0.0,0.0,0.0,0.0,0.0,0.0,0.0,0.0,0.0,0.0,0.0,0.0,0.0,0.0,0.0,0.0,0.0,0.0,0.0,0.0,0.0,0.0,0.0,0.0,0.0,0.0,0.0,0.0,0.0,0.0,0.0,0.0,0.0,0.0,0.0,0.0,0.0,0.0,0.0,0.0,0.0,0.0,0.0,0.0,0.0,0.0,-6.4679,-6.5421,-6.5833,-6.5897,-6.5897,-6.5897,-6.5782,-6.5013,-6.4589,0.0,0.0,0.0,0.0,0.0,0.0,0.0,0.0,0.0,0.0,0.0,0.0,0.0,0.0,0.0,0.0,0.0,0.0,0.0,0.0,0.0,0.0,0.0,0.0,0.0,0.0,0.0,0.0,0.0,0.0,0.0,0.0,0.0,0.0,0.0,0.0,0.0,0.0,0.0,0.0,0.0,-5.5403,-5.5403,-5.539,-5.5377,0.0,0.0,-5.5448,-5.6107,-5.623,-5.6466,-5.7111,0.0,0.0,0.0,0.0,0.0,0.0,0.0,0.0,0.0,0.0,0.0,0.0,0.0,0.0,0.0,0.0,0.0,0.0,0.0,0.0,0.0,0.0,0.0,0.0,0.0,0.0,0.0,0.0,0.0,0.0,0.0,0.0,0.0,0.0,0.0,0.0,0.0,0.0,0.0,0.0,0.0,0.0,0.0,0.0,0.0,0.0,0.0,0.0,0.0,0.0,0.0,0.0,0.0,-6.433,-6.4663,-6.5499,-6.5897,-6.5897,-6.5897,-6.5897,-6.5897,-6.559,-6.5372,0.0,0.0,0.0,0.0,0.0,0.0,0.0,0.0,0.0,0.0,0.0,0.0,0.0,0.0,0.0,0.0,0.0,0.0,0.0,0.0,0.0,0.0,0.0,0.0,0.0,0.0,0.0,0.0,-5.3755,-5.4226,-5.4706,0.0,0.0,0.0,0.0,0.0,0.0,0.0,0.0,0.0,0.0,-5.6826,-5.6826,-5.6771,0.0,0.0,-5.6635,-5.6706,-5.699,-5.6975,-5.7011,-5.7321,-5.7295,0.0,0.0,0.0,0.0,0.0,0.0,0.0,0.0,0.0,0.0,0.0,0.0,0.0,0.0,0.0,0.0,0.0,0.0,0.0,0.0,0.0,0.0,0.0,0.0,0.0,0.0,0.0,0.0,0.0,0.0,0.0,0.0,0.0,0.0,0.0,0.0,0.0,0.0,0.0,0.0,0.0,0.0,0.0,0.0,0.0,0.0,0.0,0.0,0.0,0.0,0.0,0.0,-6.4871,-6.5384,-6.5948,-6.6385,-6.6641,-6.6602,-6.6474,-6.6217,-6.6217,-6.6037,0.0,0.0,0.0,0.0,0.0,0.0,0.0,0.0,0.0,0.0,0.0,0.0,0.0,0.0,0.0,0.0,0.0,0.0,0.0,0.0,0.0,0.0,0.0,0.0,0.0,0.0,0.0,0.0,-5.4524,-5.5081,-5.5637,0.0,0.0,0.0,0.0,0.0,0.0,0.0,0.0,0.0,0.0,-5.77,-5.77,-5.7654,-5.7596,-5.7581,-5.7536,-5.7567,-5.7749,-5.7715,-5.7711,-5.7942,0.0,0.0,0.0,0.0,0.0,0.0,0.0,0.0,0.0,0.0,0.0,0.0,0.0,0.0,0.0,0.0,0.0,0.0,0.0,0.0,0.0,0.0,0.0,0.0,0.0,0.0,0.0,0.0,0.0,0.0,-6.2486,0.0,0.0,0.0,0.0,0.0,0.0,0.0,0.0,0.0,0.0,0.0,0.0,0.0,0.0,0.0,0.0,0.0,0.0,0.0,0.0,0.0,0.0,-6.5461,-6.7101,-6.7077,-6.7435,-6.8175,-6.8252,-6.7749,-6.6926,-6.6873,-6.649,-6.5632,0.0,0.0,0.0,0.0,0.0,0.0,0.0,0.0,0.0,0.0,0.0,0.0,0.0,0.0,0.0,0.0,0.0,0.0,0.0,0.0,0.0,0.0,0.0,0.0,0.0,0.0,-5.5675,-5.5675,-5.5703,0.0,0.0,0.0,0.0,0.0,0.0,0.0,0.0,0.0,0.0,-5.778,-5.7739,-5.7739,-5.7654,-5.7657,-5.7597,-5.7544,-5.7787,-5.844,-5.8521,-5.8698,0.0,0.0,0.0,0.0,0.0,0.0,0.0,0.0,0.0,0.0,0.0,0.0,0.0,0.0,0.0,0.0,0.0,0.0,0.0,0.0,0.0,0.0,0.0,0.0,0.0,0.0,0.0,-6.3843,-6.3817,0.0,0.0,0.0,0.0,0.0,0.0,0.0,0.0,0.0,0.0,0.0,-6.3621,-6.37,0.0,0.0,0.0,0.0,0.0,0.0,0.0,0.0,0.0,0.0,0.0,0.0,-6.6538,-6.7089,-6.7639,-6.8021,-6.8244,-6.8244,-6.8076,-6.7793,-6.7218,-6.6461,-6.5576,0.0,0.0,0.0,0.0,0.0,0.0,0.0,0.0,0.0,0.0,0.0,0.0,0.0,0.0,0.0,0.0,0.0,0.0,0.0,0.0,0.0,0.0,0.0,0.0,0.0,-5.678,0.0,0.0,0.0,0.0,0.0,0.0,0.0,0.0,0.0,0.0,0.0,-5.8918,-5.9491,-5.9417,-5.9291,-5.9291,-5.9186,-5.9305,0.0,0.0,0.0,0.0,0.0,0.0,0.0,0.0,0.0,0.0,0.0,0.0,0.0,0.0,-5.9744,-5.9213,-5.9343,-5.9564,-5.9564,0.0,0.0,0.0,0.0,0.0,0.0,0.0,0.0,0.0,0.0,0.0,0.0,0.0,0.0,-6.4692,0.0,-6.4626,0.0,0.0,0.0,0.0,0.0,0.0,0.0,0.0,-6.4561,-6.4541,-6.451,-6.4551,-6.4551,0.0,-6.4531,-6.4531,0.0,0.0,0.0,0.0,0.0,0.0,0.0,0.0,-6.7679,-6.7933,-6.8444,-6.8824,-6.9059,-6.9029,-6.8885,-6.8548,-6.7706,-6.681,-6.5947,-6.5864,-6.5864,0.0,0.0,0.0,0.0,0.0,0.0,0.0,0.0,0.0,0.0,0.0,0.0,0.0,0.0,0.0,0.0,0.0,0.0,0.0,0.0,0.0,0.0,0.0,-5.7665,0.0,0.0,0.0,0.0,0.0,0.0,0.0,0.0,0.0,-5.9133,-5.9376,-5.9759,-6.0346,-6.0508,-6.0555,-6.0555,0.0,0.0,0.0,0.0,0.0,0.0,0.0,-6.2033,-6.1958,-6.1864,-6.1844,-6.1977,-6.2088,-6.2158,-6.2158,0.0,0.0,-6.0854,-6.053,-6.0416,-6.0719,-6.1174,-6.157,-6.1657,-6.2091,-6.2487,0.0,0.0,0.0,0.0,0.0,0.0,0.0,0.0,-6.6454,-6.6454,0.0,-6.6445,0.0,0.0,0.0,0.0,0.0,-6.5799,0.0,0.0,-6.6147,-6.6224,-6.6224,-6.6224,-6.6263,-6.6253,-6.62,-6.6179,-6.6129,-6.5341,0.0,0.0,0.0,0.0,0.0,0.0,-6.8859,-6.9615,-6.9585,-6.9899,-7.0631,-7.0578,-7.0117,-6.9212,-6.841,-6.7553,-6.6789,-6.6751,-6.6751,-6.6713,-6.5986,0.0,0.0,0.0,0.0,0.0,0.0,0.0,0.0,0.0,0.0,0.0,0.0,0.0,0.0,0.0,0.0,0.0,0.0,0.0,0.0,-5.8346,0.0,0.0,0.0,0.0,0.0,0.0,0.0,0.0,0.0,0.0,-5.9415,-5.9988,-6.0446,-6.0485,0.0,0.0,0.0,0.0,-6.237,-6.2408,-6.2301,-6.2251,-6.2237,-6.2221,-6.2109,-6.2013,0.0,0.0,-6.2128,-6.2183,-6.2239,-6.2201,-6.2201,-6.2198,-6.2449,-6.1726,-6.1401,-6.2159,-6.237,-6.2408,-6.2463,-6.2538,-6.2614,-6.8083,0.0,0.0,0.0,0.0,-6.8122,-6.8122,-6.8122,-6.8122,-6.8122,-6.8122,-6.8122,0.0,0.0,0.0,0.0,0.0,0.0,-6.6185,-6.6185,-6.6185,-6.6513,-6.7051,-6.7093,-6.7402,-6.7989,-6.7967,-6.7934,-6.7888,-6.7586,-6.7241,-6.687,0.0,0.0,0.0,0.0,-6.941,-6.9585,-7.0091,-7.0439,-7.0616,-7.0538,-7.0053,-6.9234,-6.8967,-6.8432,-6.7591,-6.7553,-6.7553,-6.7515,-6.7355,0.0,0.0,0.0,0.0,0.0,0.0,0.0,0.0,0.0,0.0,0.0,0.0,0.0,0.0,0.0,0.0,0.0,0.0,0.0,-5.9096,-5.9048,-5.9266,0.0,0.0,0.0,0.0,0.0,0.0,0.0,0.0,0.0,-6.186,-6.2008,-6.2131,0.0,0.0,-6.2173,-6.2173,-6.2302,-6.2597,-6.3183,-6.3172,0.0,0.0,-6.4689,-6.478,-6.5281,-6.4847,-6.4434,-6.4512,-6.4065,-6.3766,-6.3766,-6.3333,-6.3181,-6.3764,-6.2816,-6.2074,-6.237,-6.2825,-6.3259,-6.3279,-6.3713,-6.4168,-7.0827,-7.0711,-6.9347,-6.8777,-6.8777,-6.8777,-6.8777,-6.8777,-6.8777,-6.8777,-6.8777,-6.8777,-6.8777,-6.8777,-6.8236,0.0,0.0,0.0,-6.723,-6.723,-6.723,-6.748,-6.795,-6.7982,-6.8242,-6.869,-6.8668,-6.8621,-6.8588,-6.8835,-6.8719,-6.8219,0.0,0.0,-6.8936,-6.9744,-7.028,-7.0518,-7.0944,-7.1314,-7.158,-7.1156,-7.0495,-6.9693,-6.9655,-6.9273,-6.8432,-6.8432,-6.8394,-6.8394,-6.8088,-6.7821,0.0,0.0,0.0,0.0,0.0,0.0,0.0,0.0,0.0,0.0,0.0,-6.093,-6.0661,0.0,0.0,0.0,-6.0112,-6.0291,-6.0341,-6.0636,0.0,0.0,0.0,0.0,0.0,0.0,0.0,-6.2853,-6.3197,-6.3526,-6.3802,-6.4069,-6.387,-6.2925,-6.2931,-6.3161,-6.3432,0.0,-6.4151,-6.4911,-6.4972,-6.5257,-6.6085,-6.6174,-6.6281,-6.6708,-6.6387,-6.6011,-6.6011,-6.5622,-6.5362,-6.5286,-6.4988,-6.4858,-6.5387,-6.4728,-6.3859,-6.3383,-6.3664,-6.404,-6.404,-6.4512,-6.4926,-7.3883,-7.3612,-7.0518,-6.9241,-6.9203,-6.9203,-6.9203,-6.9192,-6.9125,-6.9087,-6.9125,-6.9009,-6.897,-6.8893,-6.8893,0.0,-6.8777,-6.8777,-6.8777,-6.8777,-6.8805,-6.8844,-6.8882,-6.891,-6.8889,-6.8911,-6.8803,-6.8743,-6.8758,-6.9425,-6.9783,-6.9783,-6.986,-6.986,-6.986,-7.0591,-7.1357,-7.2078,-7.2042,-7.2348,-7.3057,-7.2188,-7.1298,-7.0533,-7.0441,-7.0037,-6.9349,-6.9311,-6.9311,-6.9273,-6.8508,-6.8432,-6.912,0.0,0.0,0.0,0.0,0.0,0.0,0.0,0.0,0.0,0.0,0.0,0.0,0.0,0.0,0.0,-6.1454,0.0,-6.1888,-6.2604,0.0,0.0,0.0,-6.3044,-6.3083,-6.305,-6.3045,-6.3083,0.0,0.0,-6.5328,0.0,-6.5672,-6.3466,-6.3746,-6.441,-6.5086,-6.5758,-6.6482,-6.6995,-6.7107,-6.7047,-6.6985,-6.7033,-6.7084,-6.7159,-6.6934,-6.6896,-6.6896,-6.6783,-6.6783,-6.6708,-6.6783,-6.6767,-6.6849,-6.6681,-6.6438,-6.5011,-6.486,-6.4934,-6.4972,-6.5102,-6.5214,-7.3883,-7.3844,-7.3032,-7.2684,-7.2684,-7.2684,-7.2684,-7.2607,-7.1988,-7.1678,-7.164,-7.0982,-7.0324,-6.9705,-6.9705,-6.9357,-6.8777,-6.8777,-6.8777,-6.8805,-6.8762,-6.9049,-6.9629,-6.9621,-6.9946,-7.0501,-7.0439,-7.0401,-7.0414,-7.0541,-7.0629,-7.0667,-7.1283,-7.1283,-7.0667,-7.1475,-7.1972,-7.2092,-7.2632,-7.2946,-7.2974,-7.2155,-7.1603,-7.1374,-7.0763,-7.0304,-7.0113,-7.0113,-7.0113,-7.0113,-6.9922,-6.9616,-6.9196,-6.9005,0.0,0.0,0.0,0.0,0.0,0.0,0.0,0.0,0.0,-6.2553,-6.2362,0.0,-6.2362,0.0,-6.2515,-6.2658,-6.2727,-6.2863,0.0,0.0,-6.2964,-6.3188,-6.3838,-6.39,-6.4114,-6.4726,-6.5566,-6.6147,-6.6205,-6.6935,-6.719,-6.648,-6.6491,-6.6648,-6.6858,-6.6953,-6.7126,-6.7203,-6.7183,-6.7273,-6.7755,-6.8291,-6.8602,-6.864,-6.8114,-6.7701,-6.7701,-6.7176,-6.6821,-6.6821,-6.6821,-6.6783,-6.6842,-6.6804,-6.675,-6.6377,-6.6385,-6.6521,-6.6521,-6.6541,-6.656,-7.5005,-7.5005,-7.5005,-7.4993,-7.4931,-7.422,-7.3883,-7.3844,-7.3358,-7.3164,-7.3148,-7.2258,-7.1601,-7.1137,-7.075,-7.0324,-6.9899,-6.9877,-6.9855,-6.9855,-6.9788,-6.9996,-7.0421,-7.0423,-7.0669,-7.1056,-7.1018,-7.1184,-7.153,-7.1489,-7.1668,-7.2091,-7.2552,-7.2552,-7.2129,-7.2514,-7.2919,-7.3146,-7.3881,-7.3997,-7.3552,-7.3055,-7.2635,-7.2253,-7.1412,-7.0954,-7.0954,-7.061,-7.0402,-7.0402,-7.0402,-7.0228,-6.9769,-6.9731,-6.9158,0.0,0.0,0.0,0.0,0.0,0.0,0.0,0.0,0.0,0.0,0.0,-6.2892,-6.2892,-6.3236,-6.348,-6.3523,-6.3838,-6.4015,-6.4058,-6.4029,-6.4191,-6.4688,-6.4726,-6.5031,-6.5872,-6.6407,-6.6949,-6.7502,-6.8024,-6.8375,-6.8577,-6.8545,-6.8375,-6.7996,-6.7921,-6.7997,-6.8243,-6.826,-6.8271,-6.8579,-6.8924,-6.9181,-6.9144,-6.8828,-6.8527,-6.8527,-6.8189,-6.7851,-6.7851,-6.7851,-6.7889,-6.7851,-6.7851,-6.7851,-6.7873,-6.7936,-6.7776,-6.7158,-6.7047,-6.7124,-7.6564,-7.6552,-7.6436,-7.6374,-7.621,-7.4788,-7.4231,-7.417,-7.4045,-7.3941,-7.3844,-7.3109,-7.2761,-7.2711,-7.1938,-7.159,-7.1617,-7.1572,-7.1549,-7.1499,-7.1439,-7.1402,-7.1441,-7.1428,-7.1352,-7.1338,-7.1338,-7.1684,-7.236,-7.236,-7.2745,-7.3476,-7.3591,-7.3668,-7.3668,-7.3783,-7.4119,-7.4657,-7.5221,-7.5136,-7.4393,-7.424,-7.3858,-7.317,-7.2329,-7.1811,-7.168,-7.0954,-7.0495,-7.0402,-7.0402,-7.0402,-7.0402,-7.0402,-7.0037,0.0,-6.847,0.0,0.0,0.0,0.0,0.0,0.0,0.0,0.0,-6.3236,-6.3236,-6.3221,-6.3923,-6.4344,-6.4344,-6.4993,-6.5452,-6.5528,-6.5452,-6.5413,-6.5566,-6.5566,-6.5872,-6.6598,-6.6865,-6.756,-6.8722,-6.9019,-6.9312,-6.9755,-6.9815,-6.9475,-6.8944,-6.8792,-6.8982,-6.9643,-6.96,-6.9306,-6.9214,-6.9203,-6.9181,-6.9181,-6.9144,-6.9181,-6.9144,-6.9106,-6.9144,-6.9144,-6.9069,-6.9106,-6.9181,-6.9144,-6.9144,-6.9069,-6.9053,-6.8699,-6.7656,-6.7419,-6.7367,-7.7442,-7.7365,-7.6707,-7.6397,-7.6347,-7.6049,-7.591,-7.5772,-7.5065,-7.4444,-7.3883,-7.3728,-7.3628,-7.3582,-7.3388,-7.3314,-7.3227,-7.3275,-7.3263,-7.324,-7.3228,-7.3151,-7.315,-7.3083,-7.3042,-7.3028,-7.3028,-7.3105,-7.3283,-7.3283,-7.336,-7.3514,-7.4168,-7.4476,-7.4514,0.0,0.0,0.0,-7.5556,-7.5493,-7.5251,-7.4545,-7.4125,-7.3972,-7.317,0.0,-7.1718,-7.1527,-7.1107,-7.0441,-7.0402,0.0,0.0,0.0,0.0,0.0,0.0,0.0,0.0,0.0,0.0,0.0,-6.5306,-6.5108,-6.4955,-6.4917,-6.4917,-6.4917,-6.507,-6.5184,-6.5184,-6.5299,-6.5681,-6.633,-6.5834,-6.5681,-6.633,-6.6445,-6.6522,-6.6713,-6.7897,-6.8782,-6.9006,-6.9514,-6.9959,-7.0021,-6.9967,-6.9873,-6.974,-6.9664,-6.9626,-6.9719,-6.9597,-6.9453,-6.9353,-6.9305,-6.9332,-6.9181,-6.9181,-6.9219,-6.9181,-6.9181,-6.9181,-6.9181,-6.9181,-6.9181,-6.9181,-6.9181,-6.9181,-6.9181,-6.9181,-6.9106,-6.8828,-6.8736,-6.8795,-7.8332,0.0,-7.7867,-7.7662,0.0,-7.7626,-7.7613,-7.7498,-7.6224,-7.5412,-7.4987,-7.4601,-7.4383,-7.432,-7.3934,-7.3716,-7.3691,-7.3691,-7.3678,-7.3639,-7.3599,-7.3559,-7.357,-7.3528,-7.35,-7.35,-7.35,-7.3707,-7.4091,-7.4091,-7.4322,-7.4745,-7.5168,-7.5361,-7.5361,-7.5784,-7.5917,-7.5794,-7.5715,-7.5649,-7.5561,-7.5128,-7.4882,-7.4882,0.0,0.0,0.0,0.0,0.0,0.0,0.0,0.0,0.0,0.0,0.0,-6.9846,-6.9425,-6.8814,-6.8012,-6.7584,-6.721,-6.6834,-6.6766,-6.6376,-6.5452,-6.5413,-6.5413,-6.5413,-6.5796,-6.6063,-6.6063,-6.6407,-6.6827,-6.7209,-6.6904,-6.6827,-6.7209,-6.7286,-6.7477,-6.7935,-6.8661,-6.9295,-6.9628,-6.9929,-7.0319,-7.0608,-7.0593,-7.0669,-7.0953,-7.0384,-6.9853,-6.9719,-6.9995,-7.0077,-7.0014,-7.0283,-7.0255,-6.9992,-6.9842,-6.9654,-6.9257,-6.9181,-6.9181,-6.9181,-6.9181,-6.9181,-6.9181,-6.9181,-6.9181,-6.9203,-6.9246,-6.9246,-6.9203,-6.9181,-6.9181,-7.9221,-7.9183,-7.9054,-7.894,-7.8889,-7.8876,-7.8876,-7.8812,0.0,0.0,0.0,-7.5735,-7.5375,-7.5285,-7.4475,-7.4128,-7.4115,-7.4037,-7.4048,-7.4035,-7.398,-7.3952,-7.3937,-7.3937,-7.3976,-7.3937,-7.3937,-7.4284,-7.4938,-7.4938,-7.5284,-7.5938,-7.5976,-7.6092,-7.6207,-7.6361,-7.6408,-7.6333,-7.5948,-7.5708,-7.5676,-7.5633,-7.5599,-7.5583,-7.4847,-7.4354,-7.4201,-7.359,-7.3132,-7.2979,-7.2979,-7.2673,-7.1985,-7.1811,-7.1374,-7.0686,-6.99,-6.9365,-6.9196,-6.8625,-6.8212,-6.8082,-6.8074,-6.7469,-6.5964,-6.5834,-6.5834,-6.5834,-6.6483,-6.6904,-6.6942,-6.7477,-6.7935,-6.8088,-6.7973,-6.7935,-6.8088,-6.8126,-6.8394,-6.9043,-6.9311,-6.9655,-7.025,-7.0421,-7.0659,-7.1233,-7.137,-7.1541,-7.2071,-7.1256,-7.0479,-7.0401,-7.0753,-7.0969,-7.096,-7.1222,-7.1419,-7.0818,-7.0705,-7.0442,-6.9857,-6.9632,-6.9632,-6.9782,-6.9632,-6.9707,-6.9669,-6.9616,-6.945,-6.945,-6.9444,-6.9395,-6.9327,-6.9246,-6.9225,-8.0034,-7.9983,-7.9237,-7.8941,-7.8876,-7.8785,-7.8798,-7.8889,-7.8619,-7.8529,-7.8439,-7.7537,-7.7123,-7.7029,-7.6143,-7.573,-7.5659,-7.573,-7.5716,0.0,-7.5702,-7.5702,-7.5668,-7.5668,-7.5668,-7.5668,-7.5668,-7.5707,-7.5822,-7.5822,-7.5899,-7.6015,-7.5976,-7.6361,-7.7092,-7.7799,-7.813,-7.8115,-7.6617,-7.5801,-7.5616,-7.5599,-7.5604,-7.5497,-7.5403,-7.4966,-7.424,-7.4087,-7.3705,-7.3055,-7.2979,-7.2941,-7.2788,-7.2138,-7.1642,-7.1505,-7.0828,-7.004,-6.9289,-6.9161,-6.8794,-6.802,-6.8089,-6.7989,-6.7607,-6.7553,-6.7553,-6.7553,-6.763,-6.7706,-6.7744,-6.7859,-6.8279,-6.8852,-6.8356,-6.8203,-6.8929,-6.9005,-6.9043,-6.9234,-6.9846,-7.0266,-7.0479,-7.1006,-7.1416,-7.1517,-7.2092,-7.2376,-7.247,-7.2223,-7.2052,-7.1975,-7.1889,-7.1841,-7.1815,-7.1702,-7.1779,-7.1569,-7.1531,-7.1456,-7.1193,-7.1133,-7.1133,-7.1284,-7.1193,-7.1231,-7.1209,-7.0831,-7.0476,-7.0385,-7.0056,-6.9704,-6.9683,-6.9583,-6.9423,-8.0923,-8.0872,-8.046,-8.0293,-8.0293,-8.0254,-8.0267,-8.0293,-8.0254,-7.9739,-7.8876,-7.8386,-7.8191,-7.8125,-7.774,-7.7274,-7.6741,-7.677,-7.651,-7.6053,-7.652,-7.6751,-7.6746,-7.7169,-7.7361,-7.7361,-7.7361,-7.7361,-7.7361,-7.7361,-7.7361,-7.7361,-7.7361,-7.7553,-7.7938,-7.8323,-7.8492,-7.8477,-7.7693,-7.6962,-7.6437,-7.6377,-7.608,-7.5587,-7.5535,-7.531,-7.4927,-7.4889,-7.4736,-7.4354,-7.4354,-7.4125,-7.3667,-7.3335,-7.2948,-7.2489,-7.2186,-7.1628,-7.0792,-7.0287,-6.985,-6.939,-6.9452,-6.9437,-6.9289,-6.8432,-6.7897,-6.7935,-6.8317,-6.8585,-6.8623,-6.9005,-6.9425,-6.9807,-6.9464,-6.9425,-6.9769,-6.9846,-6.9846,-6.9922,-7.0572,-7.1107,-7.1107,-7.1748,-7.2459,-7.2808,-7.3459,-7.38,-7.374,-7.372,-7.3378,-7.2658,-7.2594,-7.2755,-7.2746,-7.2972,-7.2898,-7.247,-7.2357,-7.217,-7.1832,-7.1719,-7.1719,-7.1659,-7.1719,-7.1659,-7.1696,-7.1441,-7.1222,-7.1206,-7.1068,-7.0847,-7.0766,-7.0664,-7.032,-8.1491,-8.1491,-8.1478,-8.1466,-8.1453,-8.1453,-8.1466,-8.1466,-8.1414,-8.0666,-7.9559,-7.9196,-7.9026,-7.9012,-7.8819,-7.8329,-7.7733,-7.7656,-7.7266,-7.6683,-7.7246,-7.7553,-7.763,-7.8207,-7.8492,-7.8492,-7.8492,-7.8492,-7.8492,-7.8492,-7.8492,-7.8515,-7.8707,-7.8784,-7.8784,-7.8977,-7.9054,-7.9092,-7.9015,-7.8452,-7.74,-7.7237,-7.6769,-7.591,-7.5838,-7.5727,-7.5518,-7.5535,-7.5535,-7.5518,-7.5518,-7.5212,-7.458,-7.4456,-7.4123,-7.3504,-7.33,-7.2886,-7.208,-7.139,-7.0899,-7.0654,-7.0632,-7.0601,-7.0369,-6.9298,-6.8517,-6.8562,-6.912,-6.9464,-6.954,-6.9999,-7.0402,-7.0402,-7.0402,-7.0326,-7.0402,-7.0402,-7.0533,-7.0724,-7.1298,-7.1718,-7.2062,-7.266,-7.3392,-7.4159,-7.4752,-7.4939,-7.4915,-7.4895,-7.4288,-7.3548,-7.3449,-7.3687,-7.3657,-7.3979,-7.3981,-7.3304,-7.3229,-7.3004,-7.259,-7.2365,-7.2327,-7.2462,-7.2402,-7.2455,-7.232,-7.2117,-7.2064,-7.2049,-7.1912,-7.1783,-7.1658,-7.1636,-7.1366,-8.153,-8.1491,-8.1517,-8.1374,-8.1396,-8.1358,-8.1399,-8.1439,-8.14,-8.135,-8.1079,-8.0236,-7.9759,-7.9623,-7.8945,-7.856,-7.8391,-7.8376,-7.8338,-7.8222,-7.8361,-7.8361,-7.84,-7.8477,-7.8492,-7.8554,-7.8592,-7.8631,-7.8646,-7.8592,-7.853,-7.8592,-7.9285,-7.9669,-7.9785,-8.0439,-8.0823,-8.0862,-8.0744,-7.9857,-7.8278,-7.8063,-7.7538,-7.6626,-7.6714,-7.6369,-7.5612,-7.5587,-7.5549,-7.5518,-7.5518,-7.5476,-7.5374,-7.4796,-7.4424,-7.4335,-7.3722,-7.2923,-7.2208,-7.2016,-7.1602,-7.0838,-7.0767,-7.0767,-7.0693,-7.0539,-7.0364,-7.0162,-7.019,-7.0228,-7.0288,-7.0381,-7.0495,-7.0517,-7.0572,-7.0402,-7.0517,-7.0402,-7.0686,-7.1489,-7.1773,-7.1985,-7.2826,-7.3573,-7.4305,-7.4866,-7.5,-7.4997,-7.4915,-7.4895,-7.4895,-7.4609,-7.4623,-7.4561,-7.4497,-7.4422,-7.435,-7.4192,-7.4229,-7.4079,-7.3891,-7.3935,-7.419,-7.3665,-7.3906,-7.3846,-7.3703,-7.3477,-7.2981,-7.2883,-7.2536,-7.202,-7.1933,-7.204,-7.1808,-8.3051,-8.3051,-8.3025,-8.2999,-8.2895,-8.2393,-8.2213,-8.22,-8.1646,-8.1453,-8.1388,-8.0961,-8.0779,-8.0779,-8.0445,-7.9979,-7.9394,-7.9379,-7.9066,-7.8607,-7.9015,-7.9285,-7.9323,-7.9823,-8.0015,-8.0015,-8.0015,-8.0054,-8.0054,-8.0015,-8.0054,-8.0054,-8.0439,-8.0554,-8.0592,-8.0939,-8.1093,-8.1093,-8.0975,-8.0564,-7.9879,-7.922,-7.8501,-7.7701,-7.7198,-7.6832,-7.6399,-7.5884,-7.5583,-7.5549,-7.5587,-7.5566,-7.5599,-7.5392,-7.5302,-7.5273,-7.4566,-7.398,-7.3605,-7.2683,-7.1909,-7.149,-7.1006,-7.0752,-7.0723,-7.0723,-7.0639,-7.0578,-7.0515,-7.0506,-7.0495,-7.0877,-7.1183,-7.1221,-7.1603,-7.1909,-7.1947,-7.1909,-7.21,-7.2444,-7.2864,-7.3284,-7.3743,-7.4431,-7.4954,-7.5209,-7.5152,-7.5074,-7.4935,-7.4895,-7.4895,-7.4874,-7.4854,-7.4754,-7.4712,-7.4627,-7.4579,-7.4513,-7.4454,-7.4491,-7.4491,-7.4476,-7.446,-7.4491,-7.4491,-7.4447,-7.426,-7.4147,-7.3831,-7.3695,-7.365,-7.3297,-7.3289,-7.3289,-7.3229,-8.4095,-8.4095,-8.4095,-8.4095,-8.4057,-8.3438,-8.3167,-8.3089,-8.2471,-8.2058,-8.1775,-8.1775,-8.1685,-8.1491,-8.1466,-8.1026,-8.0376,-8.0323,-7.9957,-7.9338,-7.9862,-8.0169,-8.0208,-8.0785,-8.1093,-8.1093,-8.1054,-8.1054,-8.1093,-8.1093,-8.1093,-8.1093,-8.1093,-8.1093,-8.1093,-8.1093,-8.1093,-8.1093,-8.0991,-8.0959,-8.0844,-8.0295,-7.95,-7.8662,-7.8064,-7.7527,-7.7012,-7.635,-7.5879,-7.5633,-7.5633,-7.5649,-7.5666,-7.5833,-7.5895,-7.5887,-7.5355,-7.4909,-7.4672,-7.3481,-7.2606,-7.2087,-7.1434,-7.1012,-7.0858,-7.0974,-7.1112,-7.1121,-7.1229,-7.1267,-7.0888,-7.156,-7.2057,-7.2117,-7.2673,-7.2979,-7.2941,-7.2979,-7.3017,-7.3323,-7.3743,-7.4316,-7.4584,-7.508,-7.5392,-7.5247,-7.519,-7.5133,-7.4955,-7.4895,-7.4895,-7.4895,-7.4895,-7.4854,-7.4754,-7.4691,-7.4649,-7.4606,-7.4563,-7.4563,-7.4563,-7.4584,-7.4584,-7.4622,-7.4563,-7.4519,-7.4409,-7.4387,-7.432,-7.4243,-7.416,-7.4168,-7.4041,-7.4206,-7.4229,-8.4095,-8.4134,-8.4095,-8.4211,-8.4134,-8.4057,-8.4057,-8.4018,-8.394,-8.3476,-8.278,-8.2741,-8.2316,-8.1607,-8.1503,-8.1263,-8.1113,-8.1075,-8.0992,-8.0839,-8.0939,-8.1016,-8.1054,-8.1093,-8.1093,-8.1108,-8.1093,-8.1093,-8.1093,-8.1093,-8.1093,-8.1093,-8.1093,-8.1093,-8.1093,-8.1093,-8.1093,-8.1093,-8.1077,-8.1077,-8.1077,-8.1038,-8.0459,-7.9577,-7.9495,-7.8705,-7.7259,-7.7038,-7.6616,-7.5731,-7.5692,-7.5763,-7.5864,-7.5879,-7.5925,-7.5962,-7.5938,-7.5553,-7.4846,-7.4538,-7.3885,-7.2538,-7.2217,-7.1808,-7.1255,-7.1717,-7.2073,-7.203,-7.2692,-7.2747,-7.2071,-7.2576,-7.3002,-7.2974,-7.3017,-7.3149,-7.3093,-7.3246,-7.3399,-7.3972,-7.4278,-7.4584,-7.5271,-7.548,-7.5412,-7.5284,-7.5209,-7.5133,-7.4955,-7.4895,-7.4895,-7.4895,-7.4895,-7.4874,-7.4874,-7.4812,-7.4712,-7.4691,-7.4691,-7.4691,-7.4712,-7.4754,-7.4771,-7.475,-7.4691,-7.4627,-7.4519,-7.4432,-7.4358,-7.4289,-7.4266,-7.4266,-7.4358,-7.438,-7.438,-8.5681,-8.5681,-8.572,-8.5681,-8.5643,-8.5101,-8.4869,-8.483,-8.4327,-8.394,-8.367,-8.3631,-8.3438,-8.3128,-8.2535,-8.1901,-8.1287,-8.1287,-8.1244,-8.1169,-8.1169,-8.1199,-8.1244,-8.1199,-8.1169,-8.1169,-8.1108,-8.1093,-8.1093,-8.1093,-8.1093,-8.1093,-8.1093,-8.1093,-8.1093,-8.1093,-8.1093,-8.1093,-8.1093,-8.1093,-8.1093,-8.1093,-8.0907,-8.0514,-8.003,-7.9184,-7.8016,-7.7408,-7.6724,-7.5848,-7.581,-7.5864,-7.5895,-7.594,-7.5985,-7.5976,-7.5976,-7.5861,-7.5515,-7.5014,-7.4476,-7.3899,-7.3322,-7.2899,-7.2668,-7.286,-7.3038,-7.3125,-7.3741,-7.3927,-7.376,-7.3836,-7.3964,-7.3975,-7.4325,-7.4576,-7.4601,-7.4584,-7.4736,-7.4966,-7.5042,-7.5195,-7.5348,-7.5518,-7.5448,-7.5301,-7.5264,-7.5171,-7.5017,-7.4957,-7.4937,-7.4915,-7.4895,-7.4895,-7.4895,-7.4874,-7.4833,-7.4833,-7.4833,-7.4833,-7.4854,-7.4854,-7.4833,-7.4833,-7.4812,-7.4733,-7.4627,-7.4519,-7.4469,-7.4425,-7.4342,-7.438,-7.4454,-7.4491,-7.4476,-8.661,-8.661,-8.661,-8.661,-8.6532,-8.5952,-8.572,-8.5643,-8.514,-8.4753,-8.4521,-8.4482,-8.4366,-8.4057,-8.3476,-8.2818,-8.2077,-8.1614,-8.1277,-8.1258,-8.1244,-8.1234,-8.1301,-8.1205,-8.1214,-8.1199,-8.1124,-8.1093,-8.1093,-8.1093,-8.1093,-8.1093,-8.1108,-8.1124,-8.1108,-8.1124,-8.1124,-8.1093,-8.1093,-8.1093,-8.1093,-8.1093,-8.1093,-8.1016,-8.0516,-7.9785,-7.8977,-7.83,-7.7578,-7.6863,-7.6517,-7.6233,-7.5979,-7.5985,-7.5976,-7.5976,-7.5976,-7.5976,-7.5938,-7.5438,-7.5014,-7.4707,-7.4207,-7.3822,-7.3591,-7.3745,-7.386,-7.4053,-7.463,-7.5101,-7.5057,-7.4996,-7.4919,-7.4916,-7.5305,-7.5599,-7.5532,-7.5514,-7.5497,-7.5442,-7.5442,-7.548,-7.5518,-7.5518,-7.5427,-7.5338,-7.5281,-7.5246,-7.5114,-7.5056,-7.5036,-7.4975,-7.4955,-7.4935,-7.4915,-7.4874,-7.4874,-7.4874,-7.4874,-7.4874,-7.4895,-7.4895,-7.4895,-7.4895,-7.4874,-7.4833,-7.4771,-7.4627,-7.4563,-7.4541,-7.4498,-7.4454,-7.4519,-7.4563,-7.4606,-8.661,-8.661,-8.661,-8.661,-8.661,-8.6532,-8.6571,-8.6494,-8.6494,-8.5952,-8.5372,-8.5333,-8.4985,-8.4327,-8.4211,-8.3977,-8.3495,-8.2287,-8.1578,-8.1431,-8.1393,-8.1368,-8.1344,-8.122,-8.1214,-8.1199,-8.1124,-8.1093,-8.1093,-8.1093,-8.1108,-8.1108,-8.1184,-8.1184,-8.1108,-8.1169,-8.1169,-8.1124,-8.1108,-8.1093,-8.1093,-8.1093,-8.1093,-8.1093,-8.1016,-8.0631,-7.9823,-7.9692,-7.9154,-7.8361,-7.7669,-7.6899,-7.6231,-7.6053,-7.5976,-7.5976,-7.5976,-7.5976,-7.5976,-7.5938,-7.5515,-7.5014,-7.4745,-7.4476,-7.4053,-7.4361,-7.4707,-7.4822,-7.5361,-7.5899,-7.5899,-7.5846,-7.5787,-7.5724,-7.5692,-7.566,-7.5616,-7.5599,-7.5566,-7.5535,-7.5518,-7.5518,-7.5518,-7.5518,-7.5427,-7.5374,-7.53,-7.5301,-7.519,-7.5171,-7.5114,-7.5036,-7.4997,-7.4957,-7.4897,-7.4895,-7.4895,-7.4895,-7.4895,-7.4895,-7.4895,-7.4895,-7.4895,-7.4895,-7.4895,-7.4854,-7.4812,-7.4691,-7.467,-7.4627,-7.4584,-7.4584,-7.4649,-7.4691,-7.4771,-8.661,-8.661,-8.661,-8.661,-8.661,-8.661,-8.661,-8.661,-8.661,-8.6455,-8.6223,-8.6184,-8.6029,-8.572,-8.5217,-8.4855,-8.4695,-8.3628,-8.2789,-8.2308,-8.2217,-8.1926,-8.1503,-8.1344,-8.1191,-8.1139,-8.1108,-8.1093,-8.1108,-8.1154,-8.1169,-8.1199,-8.1258,-8.1234,-8.1258,-8.1273,-8.1258,-8.1184,-8.1169,-8.1154,-8.1093,-8.1093,-8.1093,-8.1093,-8.1093,-8.0939,-8.0708,-8.0131,-7.94,-7.8592,-7.8246,-7.7746,-7.6976,-7.6322,-7.6015,-7.5976,-7.5976,-7.5976,-7.5976,-7.5976,-7.5899,-7.563,-7.5592,-7.5515,-7.5284,-7.5399,-7.5553,-7.5553,-7.5861,-7.5976,-7.5976,-7.5976,-7.597,-7.5826,-7.581,-7.5779,-7.5699,-7.5633,-7.5583,-7.5549,-7.5514,-7.5518,-7.5518,-7.5518,-7.5501,-7.5427,-7.5409,-7.5374,-7.5301,-7.5264,-7.519,-7.5018,-7.4998,-7.4979,-7.4977,-7.4975,-7.4955,-7.4935,-7.4935,-7.4895,-7.4895,-7.4895,-7.4895,-7.4895,-7.4895,-7.4874,-7.4833,-7.4812,-7.4771,-7.4792,-7.4792,-7.4792,-7.4833,-7.4854,-7.4854,-8.6662,-8.6675,-8.6687,-8.6687,-8.6675,-8.6662,-8.6649,-8.6649,-8.6623,-8.661,-8.661,-8.661,-8.661,-8.6494,-8.6029,-8.5757,-8.5625,-8.5071,-8.4386,-8.3572,-8.3143,-8.2775,-8.2289,-8.1884,-8.1475,-8.1193,-8.1139,-8.1154,-8.1184,-8.1191,-8.1258,-8.1234,-8.1291,-8.1305,-8.1291,-8.1344,-8.1291,-8.122,-8.1191,-8.1184,-8.1139,-8.1108,-8.1093,-8.1093,-8.1093,-8.1093,-8.1054,-8.0585,-8.0046,-7.9454,-7.89,-7.8145,-7.7323,-7.6506,-7.602,-7.602,-7.602,-7.602,-7.602,-7.6029,-7.5976,-7.5976,-7.5976,-7.5976,-7.5976,-7.5976,-7.5976,-7.5976,-7.5976,-7.5976,-7.5976,-7.5976,-7.5985,-7.594,-7.594,-7.5856,-7.5779,-7.5699,-7.5649,-7.5633,-7.5583,-7.5532,-7.5553,-7.5518,-7.5518,-7.5518,-7.5518,-7.5501,-7.5392,-7.5374,-7.5264,-7.5133,-7.5114,-7.5095,-7.5075,-7.5017,-7.4977,-7.4957,-7.4975,-7.4935,-7.4895,-7.4895,-7.4895,-7.4895,-7.4895,-7.4895,-7.4854,-7.4874,-7.4854,-7.4874,-7.4895,-7.4874,-7.4874,-7.4874,-7.4874,-8.6749,-8.6797,-8.6797,-8.6797,-8.6785,-8.6737,-8.67,-8.67,-8.6636,-8.661,-8.661,-8.661,-8.661,-8.661,-8.6494,-8.6415,-8.6475,-8.6307,-8.5868,-8.5106,-8.4445,-8.3891,-8.349,-8.2675,-8.1976,-8.1431,-8.1253,-8.1205,-8.1263,-8.1277,-8.1291,-8.1305,-8.136,-8.1374,-8.1347,-8.1374,-8.136,-8.1291,-8.1234,-8.1229,-8.1214,-8.1154,-8.1108,-8.1093,-8.1108,-8.1108,-8.1085,-8.1054,-8.1092,-8.0839,-7.9492,-7.84,-7.753,-7.6626,-7.6244,-7.6283,-7.6167,-7.609,-7.6076,-7.6072,-7.5991,-7.5976,-7.5976,-7.5976,-7.5976,-7.5976,-7.5976,-7.5976,-7.5976,-7.5976,-7.5976,-7.5976,-7.5976,-7.5976,-7.6,-7.597,-7.591,-7.5794,-7.5747,-7.5731,-7.5666,-7.5599,-7.5583,-7.557,-7.5535,-7.5518,-7.5518,-7.5501,-7.5501,-7.5427,-7.5409,-7.532,-7.5209,-7.519,-7.5171,-7.5095,-7.5056,-7.5095,-7.5056,-7.5015,-7.4915,-7.4915,-7.4895,-7.4895,-7.4895,-7.4895,-7.4895,-7.4895,-7.4895,-7.4895,-7.4895,-7.4895,-7.4895,-7.4895,-7.4874,-8.6785,-8.6797,-8.6797,-8.6797,-8.6797,-8.6698,-8.6713,-8.67,-8.6636,-8.661,-8.661,-8.661,-8.661,-8.661,-8.661,-8.6569,-8.6514,-8.65,-8.6433,-8.6105,-8.5859,-8.4918,-8.3891,-8.3031,-8.2434,-8.2053,-8.1581,-8.1263,-8.1291,-8.1347,-8.136,-8.1374,-8.1427,-8.1466,-8.1453,-8.1453,-8.144,-8.1374,-8.1347,-8.1277,-8.1244,-8.122,-8.1161,-8.1108,-8.1154,-8.1184,-8.1184,-8.1199,-8.1199,-8.1107,-8.0123,-7.94,-7.8953,-7.7781,-7.7015,-7.6913,-7.6492,-7.6145,-7.6104,-7.6076,-7.6087,-7.5976,-7.5991,-7.5976,-7.5976,-7.5976,-7.5976,-7.5976,-7.5976,-7.5976,-7.5976,-7.5976,-7.5976,-7.5976,-7.5976,-7.5962,-7.5932,-7.591,-7.5864,-7.5848,-7.5747,-7.5682,-7.5616,-7.5583,-7.5532,-7.5535,-7.5518,-7.5518,-7.5518,-7.5501,-7.5483,-7.5374,-7.5245,-7.5283,-7.5264,-7.519,-7.5171,-7.5227,-7.519,-7.5075,-7.5035,-7.4955,-7.4915,-7.4895,-7.4895,-7.4895,-7.4895,-7.4895,-7.4895,-7.4895,-7.4895,-7.4895,-7.4895,-7.4874,-7.4854,-8.6854,-8.6888,-8.6888,-8.6888,-8.6877,-8.6758,-8.6749,-8.6737,-8.6649,-8.661,-8.661,-8.661,-8.661,-8.661,-8.661,-8.6583,-8.6556,-8.6542,-8.6528,-8.6486,-8.6447,-8.5618,-8.4479,-8.3799,-8.3283,-8.2468,-8.2034,-8.1705,-8.1451,-8.1427,-8.144,-8.144,-8.1478,-8.1491,-8.1491,-8.1491,-8.1478,-8.144,-8.1414,-8.1347,-8.1277,-8.1277,-8.1249,-8.1214,-8.1205,-8.1258,-8.1258,-8.1229,-8.1214,-8.1007,-8.0331,-7.9838,-7.9753,-7.8672,-7.7841,-7.7522,-7.7035,-7.6649,-7.6262,-7.6159,-7.6104,-7.6048,-7.6034,-7.6005,-7.5991,-7.5976,-7.5976,-7.5976,-7.5976,-7.5976,-7.5976,-7.5976,-7.5976,-7.5976,-7.5976,-7.5976,-7.5976,-7.597,-7.594,-7.5925,-7.5879,-7.5747,-7.5628,-7.5633,-7.5566,-7.5535,-7.5518,-7.5518,-7.5518,-7.5501,-7.5501,-7.5392,-7.5318,-7.5338,-7.5338,-7.5283,-7.5264,-7.532,-7.5301,-7.519,-7.5075,-7.4977,-7.4955,-7.4915,-7.4895,-7.4895,-7.4895,-7.4895,-7.4895,-7.4895,-7.4895,-7.4895,-7.4895,-7.4895,-7.4833,-8.6941,-8.702,-8.702,-8.703,-8.6961,-8.6866,-8.6809,-8.6785,-8.6687,-8.6636,-8.6623,-8.6623,-8.6623,-8.661,-8.661,-8.661,-8.6596,-8.6596,-8.6596,-8.6583,-8.6531,-8.5998,-8.5244,-8.4873,-8.4141,-8.3153,-8.2782,-8.2248,-8.1826,-8.1633,-8.1491,-8.1491,-8.1491,-8.1491,-8.1491,-8.1491,-8.1491,-8.1478,-8.144,-8.14,-8.1374,-8.1347,-8.1319,-8.1277,-8.1291,-8.1305,-8.1291,-8.1249,-8.1244,-8.1229,-8.0369,-8.01,-7.9967,-7.9282,-7.8656,-7.8014,-7.773,-7.7189,-7.6597,-7.6353,-7.6172,-7.6118,-7.6104,-7.6076,-7.602,-7.6005,-7.5991,-7.5976,-7.5976,-7.5976,-7.5976,-7.5976,-7.5976,-7.5976,-7.5976,-7.5976,-7.5976,-7.5976,-7.5976,-7.5976,-7.594,-7.5841,-7.5763,-7.5666,-7.5583,-7.5532,-7.5535,-7.5518,-7.5518,-7.5518,-7.5518,-7.5501,-7.5409,-7.5374,-7.5392,-7.5392,-7.5392,-7.5465,-7.5374,-7.5301,-7.5152,-7.5056,-7.4977,-7.4955,-7.4935,-7.4895,-7.4895,-7.4895,-7.4895,-7.4895,-7.4895,-7.4895,-7.4895,-7.4895,-7.4854,-8.6972,-8.703,-8.703,-8.703,-8.6972,-8.6909,-8.6877,-8.6866,-8.6797,-8.6686,-8.67,-8.6687,-8.6662,-8.661,-8.661,-8.661,-8.661,-8.661,-8.661,-8.661,-8.661,-8.6437,-8.5974,-8.5526,-8.4918,-8.4179,-8.3172,-8.2623,-8.2354,-8.1852,-8.1491,-8.1491,-8.1491,-8.1491,-8.1491,-8.1491,-8.1491,-8.1491,-8.1478,-8.144,-8.1414,-8.1427,-8.14,-8.1319,-8.1347,-8.1374,-8.1374,-8.136,-8.1319,-8.121,-8.0992,-8.0769,-8.0675,-8.013,-7.9621,-7.9237,-7.8321,-7.7626,-7.7241,-7.6713,-7.625,-7.6185,-7.6172,-7.6145,-7.6076,-7.6062,-7.6034,-7.5991,-7.5976,-7.5976,-7.5976,-7.5976,-7.5976,-7.5976,-7.5976,-7.5976,-7.5976,-7.5976,-7.5976,-7.5976,-7.6,-7.5955,-7.5864,-7.5747,-7.5666,-7.5583,-7.5532,-7.5518,-7.5518,-7.5518,-7.5518,-7.5518,-7.5501,-7.5427,-7.5427,-7.5427,-7.5483,-7.5501,-7.5427,-7.5409,-7.5264,-7.5133,-7.5056,-7.4977,-7.4917,-7.4935,-7.4915,-7.4895,-7.4895,-7.4895,-7.4895,-7.4895,-7.4895,-7.4895,-7.4874,-8.703,-8.703,-8.703,-8.703,-8.6982,-8.692,-8.6899,-8.6888,-8.6832,-8.6785,-8.6761,-8.6761,-8.6725,-8.6662,-8.6649,-8.6636,-8.661,-8.661,-8.661,-8.661,-8.6596,-8.6542,-8.6419,-8.5965,-8.5535,-8.4967,-8.4241,-8.3519,-8.2739,-8.2277,-8.1891,-8.153,-8.1491,-8.1491,-8.1491,-8.1491,-8.1491,-8.1491,-8.1491,-8.1478,-8.1453,-8.1478,-8.1478,-8.14,-8.1427,-8.144,-8.14,-8.1387,-8.136,-8.1291,-8.1258,-8.1214,-8.122,-8.0839,-8.0484,-8.001,-7.9506,-7.8358,-7.7792,-7.7239,-7.6777,-7.6289,-7.625,-7.6212,-7.6159,-7.6118,-7.6076,-7.6034,-7.6044,-7.5976,-7.5976,-7.5976,-7.5976,-7.5976,-7.5976,-7.5976,-7.5976,-7.5976,-7.5976,-7.5976,-7.5976,-7.597,-7.591,-7.5794,-7.5699,-7.5599,-7.5514,-7.5518,-7.5518,-7.5518,-7.5518,-7.5518,-7.5518,-7.5501,-7.5501,-7.5501,-7.5501,-7.5501,-7.5501,-7.5445,-7.5392,-7.5264,-7.5152,-7.5075,-7.4997,-7.4957,-7.4937,-7.4935,-7.4895,-7.4895,-7.4895,-7.4895,-7.4895,-7.4895,-7.4874,-8.703,-8.703,-8.703,-8.703,-8.6982,-8.693,-8.692,-8.6909,-8.6854,-8.6843,-8.682,-8.682,-8.6785,-8.6725,-8.6713,-8.6675,-8.6623,-8.661,-8.661,-8.661,-8.661,-8.6556,-8.6461,-8.6327,-8.5998,-8.5237,-8.489,-8.4179,-8.3431,-8.2791,-8.229,-8.18,-8.1491,-8.1491,-8.1491,-8.1491,-8.1491,-8.1491,-8.1491,-8.1491,-8.1491,-8.1491,-8.1491,-8.1491,-8.1478,-8.1466,-8.1427,-8.1414,-8.1387,-8.1319,-8.1305,-8.1305,-8.1305,-8.128,-8.1129,-8.0447,-8.0188,-7.948,-7.8513,-7.7855,-7.7302,-7.6545,-7.6352,-7.6288,-7.6225,-7.6172,-7.6145,-7.609,-7.6062,-7.5991,-7.5976,-7.5976,-7.5976,-7.5976,-7.5976,-7.5976,-7.5976,-7.5976,-7.5976,-7.5976,-7.5976,-7.5985,-7.5925,-7.5826,-7.5731,-7.5633,-7.5549,-7.5518,-7.5518,-7.5518,-7.5518,-7.5518,-7.5518,-7.5518,-7.5518,-7.5518,-7.5518,-7.5518,-7.5518,-7.5501,-7.5501,-7.5392,-7.5283,-7.519,-7.5114,-7.5056,-7.4977,-7.4935,-7.4915,-7.4895,-7.4895,-7.4895,-7.4895,-7.4895,-7.4874,-8.703,-8.703,-8.703,-8.703,-8.702,-8.701,-8.6972,-8.6972,-8.6951,-8.693,-8.6888,-8.6877,-8.682,-8.6737,-8.6713,-8.6675,-8.6623,-8.661,-8.661,-8.661,-8.6596,-8.6569,-8.6514,-8.6486,-8.6312,-8.6007,-8.5537,-8.4897,-8.4329,-8.3445,-8.2818,-8.2458,-8.189,-8.162,-8.153,-8.1491,-8.1491,-8.1491,-8.1491,-8.1491,-8.1491,-8.1491,-8.1491,-8.1491,-8.1491,-8.1491,-8.1478,-8.1478,-8.1453,-8.1387,-8.1374,-8.1374,-8.1374,-8.1374,-8.1311,-8.1092,-8.0653,-8.0072,-7.9492,-7.8486,-7.7829,-7.7353,-7.6954,-7.6505,-7.6417,-7.6302,-7.634,-7.6159,-7.6104,-7.6048,-7.5976,-7.5976,-7.5976,-7.5976,-7.5976,-7.5976,-7.5976,-7.5976,-7.5976,-7.5976,-7.5976,-7.6,-7.5955,-7.5895,-7.5779,-7.5682,-7.5599,-7.5514,-7.5518,-7.5518,-7.5518,-7.5518,-7.5518,-7.5518,-7.5518,-7.5518,-7.5518,-7.5518,-7.5518,-7.5518,-7.5501,-7.5501,-7.543,-7.5301,-7.519,-7.5075,-7.4997,-7.4975,-7.4915,-7.4895,-7.4895,-7.4895,-7.4895,-7.4895,-7.4895,-8.703,-8.703,-8.703,-8.703,-8.703,-8.703,-8.703,-8.703,-8.702,-8.701,-8.6951,-8.6941,-8.6877,-8.6785,-8.6761,-8.6713,-8.6623,-8.661,-8.661,-8.661,-8.6596,-8.6596,-8.6542,-8.6528,-8.6486,-8.6312,-8.5945,-8.5482,-8.513,-8.4439,-8.3566,-8.2806,-8.2316,-8.1968,-8.1581,-8.1491,-8.1491,-8.1491,-8.1491,-8.1491,-8.1491,-8.1491,-8.1491,-8.1491,-8.1491,-8.1491,-8.1491,-8.1491,-8.1478,-8.1453,-8.1453,-8.1453,-8.1453,-8.1453,-8.1466,-8.1414,-8.1078,-8.0614,-8.0266,-7.9337,-7.8912,-7.8409,-7.7906,-7.7739,-7.7548,-7.7318,-7.6701,-7.6314,-7.6131,-7.6076,-7.6087,-7.6044,-7.5976,-7.5976,-7.5976,-7.5976,-7.5976,-7.5976,-7.5976,-7.5976,-7.5976,-7.6015,-7.6,-7.594,-7.5826,-7.5747,-7.5666,-7.5583,-7.5535,-7.5518,-7.5535,-7.5518,-7.5518,-7.5518,-7.5518,-7.5518,-7.5518,-7.5518,-7.5518,-7.5518,-7.5518,-7.5501,-7.5501,-7.5448,-7.5283,-7.5152,-7.5075,-7.5074,-7.4995,-7.4895,-7.4895,-7.4895,-7.4895,-7.4895,-7.4895,-8.703,-8.703,-8.703,-8.703,-8.703,-8.703,-8.703,-8.703,-8.703,-8.702,-8.703,-8.6982,-8.692,-8.682,-8.6761,-8.67,-8.661,-8.661,-8.661,-8.661,-8.661,-8.661,-8.6583,-8.6556,-8.6528,-8.6514,-8.6394,-8.611,-8.5636,-8.5148,-8.4416,-8.3657,-8.3167,-8.2509,-8.1968,-8.1658,-8.1581,-8.1491,-8.1491,-8.1491,-8.1491,-8.1491,-8.1491,-8.1491,-8.1491,-8.1491,-8.1491,-8.1491,-8.1491,-8.1491,-8.1491,-8.1491,-8.1491,-8.1491,-8.1491,-8.1491,-8.1491,-8.1078,-8.0691,-8.015,-7.9724,-7.926,-7.9067,-7.8912,-7.8397,-7.7548,-7.6919,-7.6379,-7.6185,-7.6145,-7.6118,-7.6062,-7.602,-7.6044,-7.6044,-7.6029,-7.5976,-7.5976,-7.5976,-7.5976,-7.5976,-7.5976,-7.6,-7.5985,-7.5872,-7.5794,-7.5715,-7.5633,-7.5549,-7.557,-7.5553,-7.5553,-7.5535,-7.5518,-7.5518,-7.5518,-7.5518,-7.5518,-7.5518,-7.5518,-7.5518,-7.5518,-7.5501,-7.5483,-7.5448,-7.5301,-7.5209,-7.5095,-7.4997,-7.4955,-7.4915,-7.4895,-7.4895,-7.4895,-7.4895,-8.703,-8.703,-8.703,-8.703,-8.703,-8.703,-8.703,-8.703,-8.703,-8.703,-8.703,-8.702,-8.692,-8.6809,-8.6687,-8.6623,-8.661,-8.661,-8.661,-8.661,-8.661,-8.661,-8.661,-8.6596,-8.6583,-8.6583,-8.6569,-8.6503,-8.6142,-8.5587,-8.5189,-8.4662,-8.3515,-8.2703,-8.2432,-8.1813,-8.153,-8.1491,-8.1491,-8.1491,-8.1491,-8.1491,-8.1491,-8.1491,-8.1491,-8.1491,-8.1491,-8.1491,-8.1491,-8.1491,-8.1491,-8.1491,-8.1491,-8.1491,-8.1491,-8.1491,-8.1491,-8.1452,-8.1182,-8.073,-8.0343,-7.9995,-7.9569,-7.8718,-7.8138,-7.7391,-7.6698,-7.6378,-7.6276,-7.6238,-7.6198,-7.6172,-7.6131,-7.609,-7.6101,-7.6034,-7.5991,-7.5976,-7.5976,-7.5976,-7.5976,-7.5976,-7.5976,-7.5962,-7.5932,-7.5856,-7.5763,-7.5682,-7.5599,-7.5549,-7.5549,-7.5549,-7.5535,-7.5518,-7.5518,-7.5518,-7.5518,-7.5518,-7.5518,-7.5518,-7.5518,-7.5518,-7.5518,-7.5501,-7.5483,-7.5409,-7.532,-7.5209,-7.5056,-7.4977,-7.4995,-7.4935,-7.4895,-7.4895,-7.4895,-8.703,-8.703,-8.703,-8.703,-8.703,-8.703,-8.703,-8.703,-8.703,-8.703,-8.703,-8.702,-8.692,-8.6797,-8.6662,-8.661,-8.661,-8.661,-8.661,-8.661,-8.661,-8.661,-8.661,-8.661,-8.661,-8.661,-8.661,-8.6583,-8.6376,-8.6169,-8.5848,-8.5165,-8.4173,-8.3244,-8.2857,-8.1929,-8.1607,-8.1491,-8.1491,-8.1491,-8.1491,-8.1491,-8.1491,-8.1491,-8.1491,-8.1491,-8.1491,-8.1491,-8.1491,-8.1491,-8.1491,-8.1491,-8.1491,-8.1491,-8.1491,-8.1491,-8.1491,-8.1491,-8.1414,-8.1117,-8.0962,-8.0885,-8.0459,-7.9918,-7.868,-7.7597,-7.6784,-7.6401,-7.6326,-7.6288,-7.625,-7.6212,-7.6159,-7.6118,-7.6104,-7.6048,-7.6005,-7.5991,-7.5976,-7.5976,-7.5976,-7.5976,-7.5976,-7.5976,-7.5947,-7.591,-7.5779,-7.5699,-7.5599,-7.5532,-7.5549,-7.5583,-7.5532,-7.5518,-7.5518,-7.5518,-7.5518,-7.5518,-7.5518,-7.5518,-7.5518,-7.5518,-7.5518,-7.5518,-7.5501,-7.5427,-7.5392,-7.5301,-7.5171,-7.5095,-7.5055,-7.4995,-7.4955,-7.4895,-7.4895,-8.703,-8.703,-8.703,-8.703,-8.703,-8.703,-8.703,-8.703,-8.703,-8.703,-8.6982,-8.6972,-8.6909,-8.682,-8.6713,-8.6636,-8.6636,-8.661,-8.661,-8.661,-8.661,-8.661,-8.661,-8.661,-8.661,-8.661,-8.661,-8.6596,-8.6596,-8.648,-8.6171,-8.5604,-8.483,-8.3979,-8.3128,-8.2355,-8.1852,-8.1491,-8.1491,-8.1491,-8.1491,-8.1491,-8.1491,-8.1491,-8.1491,-8.1491,-8.1491,-8.1491,-8.1491,-8.1491,-8.1491,-8.1491,-8.1491,-8.1491,-8.1491,-8.1491,-8.1491,-8.1491,-8.1491,-8.1426,-8.1491,-8.1375,-8.0923,-7.9918,-7.9067,-7.8099,-7.721,-7.6436,-7.6362,-7.6338,-7.6313,-7.6288,-7.6225,-7.6172,-7.6131,-7.6062,-7.6005,-7.5991,-7.5976,-7.5976,-7.5976,-7.5976,-7.5976,-7.5976,-7.5947,-7.5925,-7.581,-7.5676,-7.5633,-7.5566,-7.5583,-7.5633,-7.5583,-7.5553,-7.5518,-7.5518,-7.5518,-7.5518,-7.5518,-7.5518,-7.5518,-7.5518,-7.5518,-7.5518,-7.5518,-7.5501,-7.5427,-7.5356,-7.5301,-7.5209,-7.5114,-7.5036,-7.4977,-7.4955,-7.4895,-8.703,-8.703,-8.703,-8.703,-8.703,-8.703,-8.703,-8.703,-8.703,-8.703,-8.6982,-8.6941,-8.6909,-8.6854,-8.6773,-8.6713,-8.67,-8.6636,-8.6636,-8.6623,-8.661,-8.6623,-8.6623,-8.661,-8.661,-8.661,-8.661,-8.661,-8.661,-8.661,-8.6532,-8.6377,-8.541,-8.4753,-8.3824,-8.278,-8.2006,-8.1658,-8.1491,-8.1491,-8.1491,-8.1491,-8.1491,-8.1491,-8.1491,-8.1491,-8.1491,-8.1491,-8.1491,-8.1491,-8.1491,-8.1491,-8.1491,-8.1491,-8.1491,-8.1491,-8.1491,-8.1491,-8.1491,-8.1491,-8.1452,-8.1078,-8.0304,-7.9337,-7.8757,-7.7365,-7.6552,-7.6436,-7.6386,-7.6386,-7.6386,-7.6374,-7.6301,-7.6225,-7.6172,-7.6104,-7.6048,-7.5991,-7.5976,-7.5976,-7.5976,-7.5976,-7.5976,-7.5976,-7.5976,-7.597,-7.5841,-7.5747,-7.5715,-7.5666,-7.5666,-7.5666,-7.5616,-7.5566,-7.5518,-7.5518,-7.5518,-7.5518,-7.5518,-7.5518,-7.5518,-7.5518,-7.5518,-7.5518,-7.5518,-7.5518,-7.5501,-7.5409,-7.5338,-7.5283,-7.5209,-7.5095,-7.4977,-7.4935,-7.4895,-8.703,-8.703,-8.703,-8.703,-8.703,-8.703,-8.703,-8.703,-8.703,-8.703,-8.702,-8.693,-8.6899,-8.6877,-8.682,-8.6773,-8.6735,-8.6749,-8.6725,-8.6713,-8.67,-8.6675,-8.6662,-8.6636,-8.661,-8.661,-8.661,-8.661,-8.661,-8.661,-8.661,-8.6339,-8.5759,-8.4908,-8.3979,-8.2819,-8.1929,-8.1697,-8.1491,-8.1491,-8.1491,-8.1491,-8.1491,-8.1491,-8.1491,-8.1491,-8.1491,-8.1491,-8.1491,-8.1491,-8.1491,-8.1491,-8.1491,-8.1491,-8.1491,-8.1491,-8.1491,-8.1491,-8.1491,-8.1452,-8.1259,-8.0575,-7.9647,-7.8796,-7.8332,-7.7055,-7.6514,-7.6397,-7.6397,-7.6397,-7.6397,-7.6397,-7.6362,-7.6288,-7.6212,-7.6145,-7.6076,-7.602,-7.5976,-7.6015,-7.5976,-7.5976,-7.5976,-7.5976,-7.5976,-7.5962,-7.5872,-7.5794,-7.5763,-7.5747,-7.5731,-7.5715,-7.5666,-7.5583,-7.5553,-7.5535,-7.5518,-7.5518,-7.5518,-7.5518,-7.5518,-7.5518,-7.5518,-7.5518,-7.5518,-7.5518,-7.5501,-7.5445,-7.5409,-7.5356,-7.5246,-7.5075,-7.5015,-7.4935,-7.4915,-8.703,-8.703,-8.703,-8.703,-8.703,-8.703,-8.703,-8.703,-8.703,-8.703,-8.702,-8.6941,-8.693,-8.6909,-8.6866,-8.6832,-8.682,-8.6809,-8.6797,-8.6773,-8.6737,-8.6713,-8.6687,-8.6649,-8.661,-8.661,-8.661,-8.661,-8.661,-8.661,-8.661,-8.6416,-8.5952,-8.5217,-8.3902,-8.2471,-8.153,-8.1491,-8.1491,-8.1491,-8.1491,-8.1491,-8.1491,-8.1491,-8.1491,-8.1491,-8.1491,-8.1491,-8.1491,-8.1491,-8.1491,-8.1491,-8.1491,-8.1491,-8.1491,-8.1491,-8.1491,-8.1491,-8.1491,-8.1452,-8.1117,-8.0382,-7.9531,-7.8641,-7.7751,-7.69,-7.6436,-7.6397,-7.6397,-7.6397,-7.6397,-7.6397,-7.6374,-7.6301,-7.6263,-7.6212,-7.6118,-7.6048,-7.6058,-7.6029,-7.6015,-7.5976,-7.5976,-7.5976,-7.5985,-7.5985,-7.5925,-7.5864,-7.5864,-7.5833,-7.5779,-7.5747,-7.5715,-7.5616,-7.557,-7.5553,-7.5518,-7.5518,-7.5518,-7.5518,-7.5518,-7.5518,-7.5518,-7.5518,-7.5518,-7.5518,-7.5501,-7.5483,-7.5501,-7.5501,-7.5301,-7.5133,-7.4995,-7.4895,-7.4895,-8.703,-8.703,-8.703,-8.703,-8.703,-8.703,-8.703,-8.703,-8.703,-8.703,-8.703,-8.6982,-8.6982,-8.6961,-8.692,-8.6899,-8.6888,-8.6843,-8.6832,-8.682,-8.6785,-8.6737,-8.67,-8.6662,-8.6623,-8.661,-8.661,-8.661,-8.661,-8.661,-8.661,-8.6455,-8.6068,-8.541,-8.4057,-8.2355,-8.1542,-8.1491,-8.1491,-8.1491,-8.1491,-8.1491,-8.1491,-8.1491,-8.1491,-8.1491,-8.1491,-8.1491,-8.1491,-8.1491,-8.1491,-8.1491,-8.1491,-8.1491,-8.1491,-8.1491,-8.1491,-8.1491,-8.1491,-8.1491,-8.0923,-8.0111,-7.926,-7.8564,-7.7713,-7.6939,-7.6397,-7.6397,-7.6397,-7.6397,-7.6397,-7.6397,-7.6362,-7.6338,-7.6301,-7.6263,-7.6172,-7.6104,-7.6076,-7.6072,-7.6005,-7.5976,-7.5976,-7.6,-7.597,-7.594,-7.591,-7.5895,-7.5895,-7.5895,-7.5841,-7.5794,-7.5763,-7.5699,-7.5616,-7.5532,-7.548,-7.5518,-7.5518,-7.5518,-7.5518,-7.5518,-7.5518,-7.5518,-7.5518,-7.5518,-7.5518,-7.5518,-7.5483,-7.543,-7.5321,-7.5152,-7.4995,-7.4895,-7.4895,-8.703,-8.703,-8.703,-8.703,-8.703,-8.703,-8.703,-8.703,-8.703,-8.703,-8.703,-8.703,-8.703,-8.6982,-8.6972,-8.6951,-8.6951,-8.6951,-8.693,-8.692,-8.6854,-8.6809,-8.6773,-8.67,-8.6649,-8.661,-8.661,-8.661,-8.661,-8.661,-8.661,-8.6494,-8.572,-8.4675,-8.3786,-8.2509,-8.153,-8.1491,-8.1491,-8.1491,-8.1491,-8.1491,-8.1491,-8.1491,-8.1491,-8.1491,-8.1491,-8.1491,-8.1491,-8.1491,-8.1491,-8.1491,-8.1491,-8.1491,-8.1491,-8.1491,-8.1491,-8.1491,-8.1298,-8.1027,-8.0266,-7.9647,-7.9067,-7.8293,-7.7055,-7.663,-7.6397,-7.6397,-7.6397,-7.6397,-7.6397,-7.6397,-7.6374,-7.6374,-7.6338,-7.6301,-7.6238,-7.6185,-7.6145,-7.609,-7.6062,-7.602,-7.6005,-7.5976,-7.5985,-7.597,-7.5955,-7.5955,-7.597,-7.597,-7.5955,-7.5895,-7.5848,-7.5763,-7.5699,-7.5616,-7.5549,-7.5532,-7.5535,-7.5518,-7.5518,-7.5518,-7.5518,-7.5518,-7.5518,-7.5518,-7.5518,-7.5501,-7.5412,-7.5339,-7.5247,-7.5133,-7.4955,-7.4895,-7.4895,-8.703,-8.703,-8.703,-8.703,-8.703,-8.703,-8.703,-8.703,-8.703,-8.703,-8.703,-8.703,-8.703,-8.703,-8.703,-8.703,-8.703,-8.702,-8.702,-8.6982,-8.692,-8.6854,-8.6797,-8.6749,-8.6675,-8.6623,-8.661,-8.661,-8.661,-8.661,-8.661,-8.6261,-8.5256,-8.483,-8.3979,-8.2819,-8.1491,-8.1491,-8.1491,-8.1491,-8.1491,-8.1491,-8.1491,-8.1491,-8.1491,-8.1491,-8.1491,-8.1491,-8.1491,-8.1491,-8.1491,-8.1491,-8.1491,-8.1491,-8.1491,-8.1491,-8.1491,-8.1491,-8.1336,-8.1143,-8.0459,-7.9685,-7.8989,-7.7867,-7.6746,-7.6436,-7.6397,-7.6397,-7.6397,-7.6397,-7.6397,-7.6397,-7.6397,-7.6386,-7.6374,-7.6338,-7.6288,-7.6238,-7.6212,-7.6159,-7.6118,-7.6076,-7.602,-7.5991,-7.6,-7.5976,-7.5976,-7.5976,-7.5976,-7.6015,-7.6,-7.5955,-7.591,-7.5864,-7.5763,-7.5699,-7.5649,-7.5599,-7.5549,-7.5553,-7.5518,-7.5518,-7.5518,-7.5518,-7.5518,-7.5518,-7.5518,-7.5483,-7.543,-7.5339,-7.5247,-7.5113,-7.4915,-7.4895,-7.4895,-8.703,-8.703,-8.703,-8.703,-8.703,-8.703,-8.703,-8.703,-8.703,-8.703,-8.703,-8.703,-8.703,-8.703,-8.703,-8.703,-8.703,-8.703,-8.703,-8.6972,-8.6941,-8.6877,-8.682,-8.6761,-8.67,-8.6636,-8.661,-8.661,-8.661,-8.661,-8.661,-8.6416,-8.5565,-8.5178,-8.4366,-8.3283,-8.2084,-8.189,-8.1581,-8.1542,-8.1491,-8.1491,-8.1491,-8.1491,-8.1491,-8.1491,-8.1491,-8.1491,-8.1491,-8.1491,-8.1491,-8.1491,-8.1491,-8.1491,-8.1491,-8.1491,-8.1491,-8.1491,-8.1452,-8.1298,-8.0846,-7.9918,-7.8757,-7.7558,-7.6823,-7.6514,-7.6397,-7.6397,-7.6397,-7.6397,-7.6397,-7.6397,-7.6397,-7.6397,-7.6397,-7.6362,-7.6326,-7.6288,-7.6263,-7.6225,-7.6172,-7.6131,-7.6076,-7.6034,-7.5976,-7.5976,-7.5976,-7.5976,-7.5976,-7.5976,-7.6015,-7.6,-7.5955,-7.591,-7.5864,-7.5779,-7.5747,-7.5699,-7.5616,-7.5549,-7.5514,-7.5518,-7.5518,-7.5518,-7.5518,-7.5518,-7.5518,-7.5501,-7.5465,-7.5376,-7.5284,-7.5114,-7.4957,-7.4915,-7.4895,-8.703,-8.703,-8.703,-8.703,-8.703,-8.703,-8.703,-8.703,-8.703,-8.703,-8.703,-8.703,-8.703,-8.703,-8.703,-8.703,-8.703,-8.703,-8.703,-8.6972,-8.6961,-8.692,-8.6866,-8.6797,-8.6749,-8.6687,-8.6636,-8.661,-8.661,-8.661,-8.661,-8.6455,-8.5797,-8.5488,-8.4946,-8.4018,-8.3206,-8.2471,-8.1968,-8.1697,-8.1581,-8.1542,-8.153,-8.1491,-8.1491,-8.1491,-8.1491,-8.1491,-8.1491,-8.1491,-8.1491,-8.1491,-8.1491,-8.1491,-8.1491,-8.1491,-8.1491,-8.1491,-8.1387,-8.0923,-8.0536,-8.0266,-7.9221,-7.8332,-7.7481,-7.69,-7.6552,-7.6436,-7.6397,-7.6397,-7.6397,-7.6397,-7.6397,-7.6397,-7.6397,-7.6386,-7.6362,-7.635,-7.6326,-7.6276,-7.6238,-7.6159,-7.6104,-7.6034,-7.5976,-7.5976,-7.5976,-7.5976,-7.5976,-7.5976,-7.5976,-7.6015,-7.6,-7.5955,-7.594,-7.591,-7.5864,-7.5817,-7.5682,-7.5599,-7.5566,-7.5553,-7.5535,-7.5518,-7.5518,-7.5518,-7.5518,-7.5501,-7.5483,-7.5374,-7.5283,-7.5152,-7.5036,-7.4957,-7.4915,-8.703,-8.703,-8.703,-8.703,-8.703,-8.703,-8.703,-8.703,-8.703,-8.703,-8.703,-8.703,-8.703,-8.703,-8.703,-8.703,-8.703,-8.703,-8.703,-8.703,-8.6982,-8.692,-8.6866,-8.682,-8.6749,-8.6687,-8.6636,-8.661,-8.661,-8.661,-8.661,-8.6571,-8.5952,-8.5875,-8.5565,-8.4985,-8.4366,-8.3554,-8.2857,-8.22,-8.189,-8.1697,-8.153,-8.1491,-8.1491,-8.1491,-8.1491,-8.1491,-8.1491,-8.1491,-8.1491,-8.1491,-8.1491,-8.1491,-8.1491,-8.1491,-8.1491,-8.1491,-8.1414,-8.1104,-8.0795,-8.0498,-7.9956,-7.9337,-7.8525,-7.7829,-7.7094,-7.6525,-7.6436,-7.6397,-7.6397,-7.6397,-7.6397,-7.6397,-7.6397,-7.6397,-7.6397,-7.6397,-7.6374,-7.6326,-7.6263,-7.6185,-7.6104,-7.6034,-7.5976,-7.5976,-7.5976,-7.5976,-7.5976,-7.5976,-7.5976,-7.5976,-7.6015,-7.5985,-7.5985,-7.5955,-7.591,-7.581,-7.5731,-7.5649,-7.5599,-7.5587,-7.5518,-7.5518,-7.5518,-7.5518,-7.5518,-7.5501,-7.5483,-7.5392,-7.5338,-7.5264,-7.5114,-7.5036,-7.4977,-8.703,-8.703,-8.703,-8.703,-8.703,-8.703,-8.703,-8.703,-8.703,-8.703,-8.703,-8.703,-8.703,-8.703,-8.703,-8.703,-8.703,-8.703,-8.703,-8.702,-8.6972,-8.692,-8.6854,-8.6797,-8.6737,-8.6662,-8.661,-8.661,-8.661,-8.661,-8.661,-8.661,-8.6532,-8.6416,-8.6261,-8.5759,-8.5294,-8.4985,-8.3786,-8.2819,-8.2432,-8.2045,-8.1491,-8.1491,-8.1491,-8.1491,-8.1491,-8.1491,-8.1491,-8.1491,-8.1491,-8.1491,-8.1491,-8.1491,-8.1491,-8.1491,-8.1491,-8.1491,-8.1491,-8.1336,-8.1375,-8.1155,-8.0769,-8.0227,-7.9453,-7.8254,-7.7287,-7.6823,-7.6707,-7.6475,-7.6397,-7.6397,-7.6397,-7.6397,-7.6397,-7.6397,-7.6397,-7.6397,-7.6386,-7.635,-7.6301,-7.6225,-7.6185,-7.6118,-7.6062,-7.602,-7.602,-7.602,-7.6005,-7.6005,-7.5976,-7.5976,-7.5976,-7.6,-7.5985,-7.5955,-7.5887,-7.5841,-7.5724,-7.5676,-7.5649,-7.5566,-7.5518,-7.5518,-7.5518,-7.5518,-7.5518,-7.5501,-7.5501,-7.5445,-7.5392,-7.5356,-7.5226,-7.5152,-7.5056,-8.703,-8.703,-8.703,-8.703,-8.703,-8.703,-8.703,-8.703,-8.703,-8.703,-8.703,-8.703,-8.703,-8.703,-8.703,-8.703,-8.703,-8.703,-8.703,-8.6972,-8.6951,-8.6909,-8.6854,-8.6785,-8.6725,-8.6687,-8.6649,-8.661,-8.661,-8.661,-8.661,-8.661,-8.661,-8.661,-8.661,-8.6184,-8.6107,-8.5875,-8.4559,-8.3322,-8.2703,-8.2084,-8.1491,-8.1491,-8.1491,-8.1491,-8.1491,-8.1491,-8.1491,-8.1491,-8.1491,-8.1491,-8.1491,-8.1491,-8.1491,-8.1491,-8.1491,-8.1491,-8.1491,-8.1491,-8.1491,-8.1491,-8.1194,-8.0769,-7.9918,-7.8525,-7.7635,-7.7287,-7.6939,-7.663,-7.6397,-7.6397,-7.6397,-7.6397,-7.6397,-7.6397,-7.6397,-7.6397,-7.6397,-7.6362,-7.6313,-7.6288,-7.625,-7.6212,-7.6159,-7.6145,-7.6145,-7.6131,-7.6076,-7.6062,-7.6005,-7.5991,-7.5976,-7.5962,-7.5985,-7.597,-7.5917,-7.5872,-7.581,-7.5763,-7.5699,-7.5583,-7.5518,-7.5518,-7.5518,-7.5518,-7.5518,-7.5518,-7.5501,-7.5462,-7.5462,-7.5409,-7.5392,-7.5301,-7.5171,-8.703,-8.703,-8.703,-8.703,-8.703,-8.703,-8.703,-8.703,-8.703,-8.703,-8.703,-8.703,-8.703,-8.703,-8.703,-8.703,-8.703,-8.703,-8.703,-8.6972,-8.692,-8.6888,-8.6832,-8.6761,-8.67,-8.6662,-8.6636,-8.661,-8.661,-8.661,-8.661,-8.661,-8.661,-8.661,-8.661,-8.6571,-8.6377,-8.5952,-8.4714,-8.3708,-8.2819,-8.2045,-8.153,-8.1491,-8.1491,-8.1491,-8.1491,-8.1491,-8.1491,-8.1491,-8.1491,-8.1491,-8.1491,-8.1491,-8.1491,-8.1491,-8.1491,-8.1491,-8.1491,-8.1491,-8.1491,-8.1491,-8.1491,-8.1039,-8.0885,-7.9569,-7.8409,-7.7983,-7.7481,-7.7132,-7.6552,-7.6397,-7.6397,-7.6397,-7.6397,-7.6397,-7.6397,-7.6397,-7.6397,-7.6386,-7.6338,-7.6301,-7.6263,-7.6225,-7.6185,-7.6172,-7.6185,-7.6172,-7.6131,-7.6104,-7.6048,-7.6005,-7.5991,-7.5947,-7.594,-7.5955,-7.5985,-7.5902,-7.5841,-7.5763,-7.5666,-7.5566,-7.5518,-7.5518,-7.5518,-7.5518,-7.5518,-7.5518,-7.5518,-7.5501,-7.5501,-7.5501,-7.5483,-7.5448,-7.5301,-8.703,-8.703,-8.703,-8.703,-8.703,-8.703,-8.703,-8.703,-8.703,-8.703,-8.703,-8.703,-8.703,-8.703,-8.703,-8.703,-8.703,-8.703,-8.703,-8.6951,-8.6909,-8.6854,-8.6785,-8.6686,-8.6675,-8.6636,-8.661,-8.661,-8.661,-8.661,-8.661,-8.661,-8.661,-8.661,-8.661,-8.6532,-8.63,-8.5488,-8.4521,-8.367,-8.2819,-8.1968,-8.1658,-8.1491,-8.1491,-8.1491,-8.1491,-8.1491,-8.1491,-8.1491,-8.1491,-8.1491,-8.1491,-8.1491,-8.1491,-8.1491,-8.1491,-8.1491,-8.1491,-8.1491,-8.1491,-8.1491,-8.1491,-8.1414,-8.1233,-8.0653,-7.9453,-7.8525,-7.8022,-7.7365,-7.6746,-7.6397,-7.6397,-7.6397,-7.6397,-7.6397,-7.6397,-7.6397,-7.6397,-7.6397,-7.6362,-7.6313,-7.6288,-7.625,-7.6238,-7.6225,-7.6198,-7.6172,-7.6145,-7.6118,-7.609,-7.6034,-7.5976,-7.597,-7.5925,-7.5955,-7.6,-7.5955,-7.591,-7.5763,-7.5649,-7.5587,-7.5518,-7.5518,-7.5518,-7.5518,-7.5518,-7.5518,-7.5518,-7.5518,-7.5518,-7.5518,-7.5501,-7.5465,-7.5448,-8.703,-8.703,-8.703,-8.703,-8.703,-8.703,-8.703,-8.703,-8.703,-8.703,-8.703,-8.703,-8.703,-8.703,-8.703,-8.702,-8.702,-8.702,-8.6951,-8.6909,-8.6854,-8.6797,-8.6737,-8.6687,-8.6636,-8.661,-8.661,-8.661,-8.661,-8.661,-8.661,-8.661,-8.661,-8.661,-8.661,-8.6455,-8.6145,-8.5256,-8.4443,-8.3631,-8.2741,-8.2045,-8.162,-8.1491,-8.1491,-8.1491,-8.1491,-8.1491,-8.1491,-8.1491,-8.1491,-8.1491,-8.1491,-8.1491,-8.1491,-8.1491,-8.1491,-8.1491,-8.1491,-8.1491,-8.1491,-8.1491,-8.1491,-8.1491,-8.1375,-8.1375,-8.015,-7.8873,-7.8216,-7.7365,-7.6784,-7.6475,-7.6397,-7.6397,-7.6397,-7.6397,-7.6397,-7.6397,-7.6397,-7.6397,-7.6386,-7.6374,-7.6362,-7.635,-7.6338,-7.6338,-7.6338,-7.6288,-7.6185,-7.6145,-7.6118,-7.6048,-7.5976,-7.5976,-7.5962,-7.5985,-7.6,-7.597,-7.5925,-7.5763,-7.5649,-7.557,-7.5518,-7.5518,-7.5518,-7.5518,-7.5518,-7.5518,-7.5518,-7.5518,-7.5518,-7.5501,-7.5501,-7.5483,-7.5465]},{"header":{"parameterUnit":"m.s-1","parameterCategory":1,"la1":31.0,"la2":29.5877,"lo1":-88.7671,"lo2":-86.6584,"dy":0.0162,"dx":0.0185,"nx":115,"ny":88,"refTime":"2023-03-22T06:00:00:Z","depth":0,"parameterNumber":3,"parameterNumberName":"V-component_of_WINDS"},"data":[0.0,0.0,0.0,0.0,0.0,0.0,0.0,0.0,0.0,0.0,0.0,0.0,0.0,0.0,0.0,0.0,0.0,0.0,0.0,0.0,0.0,0.0,0.0,0.0,0.0,0.0,0.0,0.0,0.0,0.0,0.0,0.0,0.0,0.0,0.0,0.0,0.0,0.0,0.0,0.0,0.0,0.0,0.0,0.0,0.0,0.0,0.0,0.0,0.0,0.0,0.0,0.0,0.0,0.0,0.0,0.0,0.0,0.0,0.0,0.0,0.0,0.0,0.0,0.0,0.0,0.0,0.0,0.0,0.0,0.0,0.0,0.0,0.0,0.0,0.0,0.0,0.0,0.0,0.0,0.0,0.0,0.0,0.0,0.0,0.0,0.0,0.0,0.0,0.0,0.0,0.0,0.0,0.0,0.0,0.0,0.0,0.0,0.0,0.0,0.0,0.0,0.0,0.0,0.0,0.0,0.0,0.0,0.0,0.0,0.0,0.0,0.0,0.0,0.0,0.0,0.0,0.0,0.0,0.0,0.0,0.0,0.0,0.0,0.0,0.0,0.0,0.0,0.0,0.0,0.0,0.0,0.0,0.0,0.0,0.0,0.0,0.0,0.0,0.0,0.0,0.0,0.0,0.0,0.0,0.0,0.0,0.0,0.0,0.0,0.0,0.0,0.0,0.0,0.0,0.0,0.0,0.0,0.0,0.0,0.0,0.0,0.0,0.0,0.0,0.0,0.0,0.0,0.0,0.0,0.0,0.0,0.0,0.0,0.0,0.0,0.0,0.0,0.0,0.0,0.0,0.0,0.0,0.0,0.0,0.0,0.0,0.0,0.0,0.0,0.0,0.0,0.0,0.0,0.0,0.0,0.0,0.0,0.0,0.0,0.0,0.0,0.0,0.0,0.0,0.0,0.0,0.0,0.0,0.0,0.0,0.0,0.0,0.0,0.0,0.0,0.0,0.0,0.0,0.0,0.0,0.0,0.0,0.0,0.0,0.0,0.0,0.0,0.0,0.0,0.0,0.0,0.0,0.0,0.0,0.0,0.0,0.0,0.0,0.0,0.0,0.0,0.0,0.0,0.0,0.0,0.0,0.0,0.0,0.0,0.0,0.0,0.0,0.0,0.0,0.0,0.0,0.0,0.0,0.0,0.0,0.0,0.0,0.0,0.0,0.0,0.0,0.0,0.0,0.0,0.0,0.0,0.0,0.0,0.0,0.0,0.0,0.0,0.0,0.0,0.0,0.0,0.0,0.0,0.0,0.0,0.0,0.0,0.0,0.0,0.0,0.0,0.0,0.0,0.0,0.0,0.0,0.0,0.0,0.0,0.0,0.0,0.0,0.0,0.0,0.0,0.0,0.0,0.0,0.0,0.0,0.0,0.0,0.0,0.0,0.0,0.0,0.0,0.0,0.0,0.0,0.0,0.0,0.0,0.0,0.0,0.0,0.0,0.0,0.0,0.0,0.0,0.0,0.0,0.0,0.0,0.0,0.0,0.0,0.0,0.0,0.0,0.0,0.0,0.0,0.0,0.0,0.0,0.0,0.0,0.0,0.0,0.0,0.0,0.0,0.0,0.0,0.0,0.0,0.0,0.0,0.0,0.0,0.0,0.0,0.0,0.0,0.0,0.0,0.0,0.0,0.0,0.0,0.0,0.0,0.0,0.0,0.0,0.0,0.0,0.0,0.0,0.0,0.0,0.0,0.0,0.0,0.0,0.0,0.0,0.0,0.0,0.0,0.0,0.0,0.0,0.0,0.0,0.0,0.0,0.0,0.0,0.0,0.0,0.0,0.0,0.0,0.0,0.0,0.0,0.0,0.0,0.0,0.0,0.0,0.0,0.0,0.0,0.0,0.0,0.0,0.0,0.0,0.0,0.0,0.0,0.0,0.0,0.0,0.0,0.0,0.0,0.0,0.0,0.0,0.0,0.0,0.0,0.0,0.0,0.0,0.0,0.0,0.0,0.0,0.0,0.0,0.0,0.0,0.0,0.0,0.0,0.0,0.0,0.0,0.0,0.0,0.0,0.0,0.0,0.0,0.0,0.0,0.0,0.0,0.0,0.0,0.0,0.0,0.0,0.0,0.0,0.0,0.0,0.0,0.0,0.0,0.0,0.0,0.0,0.0,0.0,0.0,0.0,0.0,0.0,0.0,0.0,0.0,0.0,0.0,0.0,0.0,0.0,0.0,0.0,0.0,0.0,0.0,0.0,0.0,0.0,0.0,0.0,0.0,0.0,0.0,0.0,0.0,0.0,0.0,0.0,0.0,0.0,0.0,0.0,0.0,0.0,0.0,0.0,0.0,0.0,0.0,0.0,0.0,0.0,0.0,0.0,0.0,0.0,0.0,0.0,0.0,0.0,0.0,0.0,0.0,0.0,0.0,0.0,0.0,0.0,0.0,0.0,0.0,0.0,0.0,0.0,0.0,0.0,0.0,0.0,0.0,0.0,0.0,0.0,0.0,0.0,0.0,0.0,0.0,0.0,0.0,0.0,0.0,0.0,0.0,0.0,0.0,0.0,0.0,0.0,0.0,0.0,0.0,0.0,0.0,0.0,0.0,0.0,0.0,0.0,0.0,0.0,0.0,0.0,0.0,0.0,0.0,0.0,0.0,0.0,0.0,0.0,0.0,0.0,0.0,0.0,0.0,0.0,0.0,0.0,0.0,0.0,0.0,0.0,0.0,0.0,0.0,0.0,0.0,0.0,0.0,0.0,0.0,0.0,0.0,0.0,0.0,0.0,0.0,0.0,0.0,0.0,0.0,0.0,0.0,0.0,0.0,0.0,0.0,0.0,0.0,0.0,0.0,0.0,0.0,0.0,0.0,0.0,0.0,0.0,0.0,0.0,0.0,0.0,0.0,0.0,0.0,0.0,0.0,0.0,0.0,0.0,0.0,0.0,0.0,0.0,0.0,0.0,0.0,0.0,0.0,0.0,0.0,0.0,0.0,0.0,0.0,0.0,0.0,0.0,0.0,0.0,0.0,0.0,0.0,0.0,0.0,0.0,0.0,0.0,0.0,0.0,0.0,0.0,0.0,0.0,0.0,0.0,0.0,0.0,0.0,0.0,0.0,0.0,0.0,0.0,0.0,0.0,0.0,0.0,0.0,0.0,0.0,0.0,0.0,0.0,0.0,0.0,0.0,0.0,0.0,0.0,0.0,0.0,0.0,0.0,0.0,0.0,0.0,0.0,0.0,0.0,0.0,0.0,0.0,0.0,0.0,0.0,0.0,0.0,0.0,0.0,0.0,0.0,0.0,0.0,0.0,0.0,0.0,0.0,0.0,0.0,0.0,0.0,0.0,0.0,0.0,0.0,0.0,0.0,0.0,0.0,0.0,0.0,0.0,0.0,0.0,0.0,0.0,0.0,0.0,0.0,0.0,0.0,0.0,0.0,0.0,0.0,0.0,0.0,0.0,0.0,0.0,0.0,0.0,0.0,0.0,0.0,0.0,0.0,0.0,0.0,0.0,0.0,0.0,0.0,0.0,0.0,0.0,0.0,0.0,0.0,0.0,0.0,0.0,0.0,0.0,0.0,0.0,0.0,0.0,0.0,0.0,0.0,0.0,0.0,0.0,0.0,0.0,0.0,0.0,0.0,0.0,0.0,0.0,0.0,0.0,0.0,0.0,0.0,0.0,0.0,0.0,0.0,0.0,0.0,0.0,0.0,0.0,0.0,0.0,0.0,0.0,0.0,0.0,0.0,0.0,0.0,0.0,0.0,0.0,0.0,0.0,0.0,0.0,0.0,0.0,0.0,0.0,0.0,0.0,0.0,0.0,0.0,0.0,0.0,0.0,0.0,0.0,0.0,0.0,0.0,0.0,0.0,0.0,0.0,0.0,0.0,0.0,0.0,0.0,0.0,0.0,0.0,0.0,0.0,0.0,0.0,0.0,0.0,0.0,0.0,0.0,0.0,0.0,0.0,0.0,0.0,0.0,0.0,0.0,0.0,0.0,0.0,0.0,0.0,0.0,0.0,0.0,0.0,0.0,0.0,0.0,0.0,0.0,0.0,0.0,0.0,0.0,0.0,0.0,0.0,0.0,0.0,0.0,0.0,0.0,0.0,0.0,0.0,0.0,0.0,0.0,0.0,0.0,0.0,0.0,0.0,0.0,0.0,0.0,0.0,0.0,0.0,0.0,0.0,0.0,0.0,0.0,0.0,0.0,0.0,0.0,0.0,0.0,0.0,0.0,0.0,0.0,0.0,0.0,0.0,0.0,0.0,0.0,0.0,0.0,0.0,0.0,0.0,0.0,0.0,0.0,0.0,0.0,0.4753,0.0,0.0,0.0,0.0,0.0,0.0,0.0,0.0,0.0,0.0,0.0,0.0,0.0,0.0,0.0,0.0,0.0,0.0,0.0,0.0,0.0,0.0,0.0,0.0,0.0,0.0,0.0,0.0,0.0,0.0,0.0,0.0,0.0,0.0,0.0,0.0,0.0,0.0,0.0,0.0,0.0,0.0,0.0,0.0,0.0,0.0,0.0,0.0,0.0,0.0,0.0,0.0,0.0,0.0,0.0,0.0,0.0,0.0,0.0,0.0,0.0,0.0,0.0,0.0,0.0,0.0,0.0,0.0,0.0,0.0,0.0,0.0,0.0,0.0,0.0,0.0,0.0,0.0,0.0,0.0,0.0,0.0,0.0,0.0,0.0,0.0,0.0,0.0,0.0,0.0,0.0,0.0,0.0,0.0,0.0,0.0,0.0,0.0,0.0,0.0,0.0,0.0,0.0,0.0,0.0,0.0,0.0,0.0,0.0,0.0,0.5382,0.5382,0.5382,0.5194,0.4875,0.0,0.0,0.0,0.0,0.0,0.0,0.0,0.0,0.0,0.0,0.0,0.0,0.0,0.0,0.0,0.0,0.0,0.0,0.0,0.0,0.0,0.0,0.0,0.0,0.0,0.0,0.0,0.0,0.0,0.0,0.0,0.0,0.0,0.0,0.0,0.0,0.0,0.0,0.0,0.0,0.0,0.0,0.0,0.0,0.0,0.0,0.0,0.0,0.0,0.0,0.0,0.0,0.0,0.0,0.0,0.0,0.0,0.0,0.0,0.0,0.0,0.0,0.0,0.0,0.0,0.0,0.0,0.0,0.0,0.0,0.0,0.0,0.0,0.0,0.0,0.0,0.0,0.0,0.0,0.0,0.0,0.0,0.0,0.0,0.0,0.0,0.0,0.0,0.0,0.0,0.0,0.0,0.0,0.0,0.0,0.0,0.0,0.0,0.0,0.0,0.0,0.0,0.0,0.0,0.0,0.0,0.0,0.0,0.0,0.0,0.0,0.0,0.5382,0.5214,0.4871,0.0,0.0,0.0,0.0,0.0,0.0,0.0,0.0,0.0,0.0,0.0,0.0,0.0,0.0,0.0,0.0,0.0,0.0,0.0,0.0,0.0,0.0,0.0,0.0,0.0,0.0,0.0,0.0,0.0,0.0,0.0,0.0,0.0,0.0,0.0,0.0,0.0,0.0,0.0,0.0,0.0,0.0,0.0,0.0,0.0,0.0,0.0,0.0,0.0,0.0,0.0,0.0,0.0,0.0,0.0,0.0,0.0,0.0,0.0,0.0,0.0,0.0,0.0,0.0,0.0,0.0,0.0,0.0,0.0,0.0,0.0,0.0,0.0,0.0,0.0,0.0,0.0,0.0,0.0,0.0,0.0,0.0,0.0,0.0,0.0,0.0,0.0,0.0,0.0,0.0,0.0,0.0,0.0,0.0,0.0,0.0,0.0,0.0,0.0,0.0,0.0,0.0,0.0,0.0,0.0,0.0,0.0,0.0,0.0,0.0,0.5382,0.5382,0.5382,0.0,0.4931,0.0,0.0,0.0,0.0,0.0,0.0,0.0,0.0,0.0,0.0,0.0,0.0,0.0,0.0,0.0,0.0,0.0,0.0,0.0,0.0,0.0,0.0,0.0,0.0,0.0,0.0,0.0,0.0,0.0,0.0,0.0,0.0,0.0,0.0,0.0,0.0,0.0,0.0,0.0,0.0,0.0,0.0,0.0,0.0,0.0,0.0,0.0,0.0,0.0,0.0,0.0,0.0,0.0,0.0,0.0,0.0,0.0,0.0,0.0,0.0,0.0,0.0,0.0,0.0,0.0,0.0,0.0,0.0,0.0,0.0,0.0,0.0,0.0,0.0,0.0,0.0,0.0,0.0,0.0,0.0,0.0,0.0,0.0,0.0,0.0,0.0,0.0,0.0,0.0,0.0,0.0,0.0,0.0,0.0,0.0,0.0,0.0,0.0,0.0,0.0,0.0,0.0,0.0,0.0,0.0,0.0,0.0,0.0,0.0,0.0,0.5382,0.5382,0.5382,0.5326,0.0,0.0,0.0,0.0,0.0,0.0,0.0,0.0,0.0,0.0,0.0,0.0,0.0,0.0,0.0,0.0,0.0,0.0,0.0,0.0,0.0,0.0,0.0,0.0,0.0,0.0,0.0,0.0,0.0,0.0,0.0,0.0,0.0,0.0,0.0,0.0,0.0,0.0,0.0,0.0,0.0,0.0,0.0,0.0,0.0,0.0,0.0,0.0,0.0,0.0,0.0,0.0,0.0,0.0,0.0,0.0,0.0,0.0,0.0,0.0,0.0,0.0,0.0,0.0,0.0,0.0,0.0,0.0,0.0,0.0,0.0,0.0,0.0,0.0,0.0,0.0,0.0,0.0,0.0,0.0,0.0,0.0,0.0,0.0,0.0,0.0,0.0,0.0,0.0,0.0,0.0,0.0,0.0,0.0,0.0,0.0,0.0,0.0,0.0,0.0,0.0,0.0,0.0,0.0,0.0,0.0,0.0,0.0,0.0,0.0,0.5414,0.5406,0.5382,0.5382,0.5382,0.5382,0.0,0.0,0.0,0.0,0.0,0.0,0.0,0.0,0.0,0.0,0.0,0.0,0.0,0.0,0.0,0.0,0.0,0.0,0.0,0.0,0.0,0.0,0.0,0.0,0.0,0.0,0.0,0.0,0.0,0.0,0.0,0.0,0.0,0.0,0.0,0.0,0.0,0.0,0.0,0.0,0.0,0.0,0.0,0.0,0.0,0.0,0.0,0.0,0.0,0.0,0.0,0.0,0.0,0.0,0.0,0.0,0.0,0.0,0.0,0.0,0.0,0.0,0.0,0.0,0.0,0.0,0.0,0.0,0.0,0.0,0.0,0.0,0.0,0.0,0.0,0.0,0.0,0.0,0.0,0.0,0.0,0.0,0.0,0.0,0.0,0.0,0.0,0.0,0.0,0.0,0.0,0.0,0.0,0.0,0.0,0.0,0.0,0.0,0.0,0.0,0.0,0.0,0.0,0.0,0.0,0.0,0.0,0.0,0.55,0.55,0.5463,0.5386,0.5382,0.5382,0.0,0.0,0.0,0.0,0.0,0.0,0.0,0.0,0.0,0.0,0.0,0.0,0.0,0.0,0.0,0.0,0.0,0.0,0.0,0.0,0.0,0.0,0.0,0.0,0.0,0.0,0.0,0.0,0.0,0.0,0.0,0.0,0.0,0.0,0.0,0.0,0.0,0.0,0.0,0.0,0.0,0.0,0.0,0.0,0.0,0.0,0.0,0.0,0.0,0.0,0.0,0.0,0.0,0.0,0.0,0.0,0.0,0.0,0.0,0.0,0.0,0.0,0.0,0.0,0.0,0.0,0.0,0.0,0.0,0.0,0.0,0.0,0.0,0.0,0.0,0.0,0.0,0.0,0.0,0.0,0.0,0.0,0.0,0.0,0.0,0.0,0.0,0.0,0.0,0.0,0.0,0.0,0.0,0.0,0.0,0.0,0.0,0.0,0.0,0.0,0.0,0.0,0.0,0.0,0.0,0.0,0.0,0.0,0.0,0.5504,0.5455,0.541,0.5382,0.5382,0.5382,0.0,0.0,0.0,0.0,0.0,0.0,0.0,0.0,0.0,0.0,0.0,0.0,0.0,0.0,0.0,0.0,0.0,0.0,0.0,0.0,0.0,0.0,0.0,0.0,0.0,0.0,0.0,0.0,0.0,0.0,0.0,0.0,0.0,0.0,0.0,0.0,0.0,0.0,0.0,0.0,0.0,0.0,0.0,0.0,0.0,0.0,0.0,0.0,0.0,0.0,0.0,0.0,0.0,0.0,0.0,0.0,0.0,0.0,0.0,0.0,0.0,0.0,0.0,0.0,0.0,0.0,0.0,0.0,0.0,0.0,0.0,0.0,0.0,0.0,0.0,0.0,0.0,0.0,0.0,0.0,0.0,0.0,0.0,0.0,0.0,0.0,0.0,0.0,0.0,0.0,0.0,0.0,0.0,0.0,0.0,0.0,0.0,0.0,0.0,0.0,0.0,0.0,0.0,0.0,0.0,0.0,0.0,0.0,0.0,0.5594,0.0,0.5422,0.5422,0.5398,0.5382,0.0,0.0,0.0,0.0,0.0,0.0,0.0,0.0,0.0,0.0,0.0,0.0,0.0,0.0,0.0,0.0,0.0,0.0,0.0,0.0,0.0,0.0,0.0,0.0,0.0,0.0,0.0,0.0,0.0,0.0,0.0,0.0,0.0,0.0,0.0,0.0,0.0,0.0,0.0,0.0,0.0,0.0,0.0,0.0,0.0,0.0,0.0,0.0,0.0,0.0,0.0,0.0,0.0,0.0,0.0,0.0,0.0,0.0,0.0,0.0,0.0,0.0,0.0,0.0,0.0,0.0,0.0,0.0,0.0,0.0,0.0,0.0,0.0,0.0,0.0,0.0,0.0,0.0,0.0,0.0,0.0,0.0,0.0,0.0,0.0,0.0,0.0,0.0,0.0,0.0,0.0,0.0,0.0,0.0,0.0,0.0,0.0,0.0,0.0,0.0,0.0,0.0,0.0,0.0,0.0,0.0,0.0,0.0,0.5778,0.5769,0.5602,0.5508,0.5508,0.5431,0.5386,0.0,0.0,0.0,0.0,0.0,0.0,0.0,0.0,0.0,0.0,0.0,0.0,0.0,0.0,0.0,0.0,0.0,0.0,0.0,0.0,0.0,0.0,0.0,0.0,0.0,0.0,0.0,0.0,0.0,0.0,0.0,0.0,0.0,0.0,0.0,0.0,0.0,0.0,0.0,0.0,0.0,0.0,0.0,0.0,0.0,0.0,0.0,0.0,0.0,0.0,0.0,0.0,0.0,0.0,0.0,0.0,0.0,0.0,0.0,0.0,0.0,0.0,0.0,0.0,0.0,0.0,0.0,0.0,0.0,0.0,0.0,0.0,0.0,0.0,0.0,0.0,0.0,0.0,0.0,0.0,0.0,0.0,0.0,0.0,0.0,0.0,0.0,0.0,0.0,0.0,0.0,0.0,0.0,0.0,0.0,0.0,0.0,0.0,0.0,0.0,0.0,0.0,0.0,0.0,0.0,0.0,0.0,0.0,0.0,0.5782,0.5663,0.5544,0.554,0.5516,0.5467,0.0,0.0,0.0,0.0,0.0,0.0,0.0,0.0,0.0,0.0,0.0,0.0,0.0,0.0,0.0,0.0,0.0,0.0,0.0,0.0,0.0,0.0,0.0,0.0,0.0,0.0,0.0,0.0,0.0,0.0,0.0,0.0,0.0,0.0,0.0,0.0,0.0,0.0,0.0,0.0,0.0,0.0,0.0,0.0,0.0,0.0,0.0,0.0,0.0,0.0,0.0,0.0,0.0,0.0,0.0,0.0,0.0,0.0,0.0,0.0,0.0,0.0,0.0,0.0,0.0,0.0,0.0,0.0,0.0,0.0,0.0,0.0,0.0,0.0,0.0,0.0,0.0,0.0,0.0,0.0,0.0,0.0,0.0,0.0,0.0,0.0,0.0,0.0,0.0,0.0,0.0,0.0,0.0,0.0,0.0,0.0,0.0,0.0,0.0,0.0,0.0,0.0,0.0,0.0,0.0,0.0,0.0,0.0,0.0,0.6194,0.5979,0.581,0.5696,0.5722,0.5734,0.573,0.0,0.0,0.0,0.0,0.0,0.0,0.0,0.0,0.0,0.0,0.0,0.0,0.0,0.0,0.0,0.0,0.0,0.0,0.0,0.0,0.0,0.0,0.0,0.0,0.0,0.0,0.0,0.0,0.0,0.0,0.0,0.0,0.0,0.0,0.0,0.0,0.0,0.0,0.0,0.0,0.0,0.0,0.0,0.0,0.0,0.0,0.0,0.0,0.0,0.0,0.0,0.0,0.0,0.0,0.0,0.0,0.0,0.0,0.0,0.0,0.0,0.0,0.0,0.0,0.0,0.0,0.0,0.0,0.0,0.0,0.0,0.0,0.0,0.0,0.0,0.0,0.0,0.0,0.0,0.0,0.0,0.0,0.0,0.0,0.0,0.0,0.0,0.0,0.0,0.0,0.0,0.0,0.0,0.0,0.0,0.0,0.0,0.0,0.0,0.0,0.0,0.0,0.0,0.0,0.0,0.0,0.0,0.0,0.6908,0.6556,0.6206,0.5906,0.6059,0.6129,0.0,0.0,0.0,0.0,0.0,0.0,0.0,0.0,0.0,0.0,0.0,0.0,0.0,0.0,0.0,0.0,0.0,0.0,0.0,0.0,0.0,0.0,0.0,0.0,0.0,0.0,0.0,0.0,0.0,0.0,0.0,0.0,0.0,0.0,0.0,0.0,0.0,0.0,0.0,0.0,0.0,0.0,0.0,0.0,0.0,0.0,0.0,0.0,0.0,0.0,0.0,0.0,0.0,0.0,0.0,0.0,0.0,0.0,0.0,0.0,0.0,0.0,0.0,0.0,0.0,0.0,0.0,0.0,0.0,0.0,0.0,0.0,0.0,0.0,0.0,0.0,0.0,0.0,0.0,0.0,0.0,0.0,0.0,0.0,0.0,0.0,0.0,0.0,0.0,0.0,0.0,0.0,0.0,0.0,0.0,0.0,0.0,0.0,0.0,0.0,0.0,0.0,0.0,0.0,0.0,0.0,0.0,0.0,0.0,0.7065,0.7092,0.6916,0.6611,0.6635,0.6643,0.0,0.0,0.0,0.0,0.0,0.0,0.0,0.0,0.0,0.0,0.0,0.0,0.0,0.0,0.0,0.0,0.0,0.0,0.0,0.0,0.0,0.0,0.0,0.0,0.0,0.0,0.0,0.0,0.0,0.0,0.0,0.0,0.0,0.0,0.0,0.0,0.0,0.0,0.0,0.0,0.0,0.0,0.0,0.0,0.0,0.0,0.0,0.0,0.0,0.0,0.0,0.0,0.0,0.0,0.0,0.0,0.0,0.0,0.0,0.0,0.0,0.0,0.0,0.0,0.0,0.0,0.0,0.0,0.0,0.0,0.0,0.0,0.0,0.0,0.0,0.0,0.0,0.0,0.0,0.0,0.0,0.0,0.0,0.0,0.0,0.0,0.0,0.0,0.0,0.0,0.0,0.0,0.0,0.0,0.0,0.0,0.0,0.0,0.0,0.0,0.0,0.0,0.0,0.0,0.0,0.0,0.0,0.0,0.7635,0.7554,0.7687,0.765,0.7468,0.7189,0.7049,0.0,0.0,0.0,0.0,0.0,0.0,0.0,0.0,0.0,0.0,0.0,0.0,0.0,0.0,0.0,0.0,0.0,0.0,0.0,0.0,0.0,0.0,0.0,0.0,0.0,0.0,0.0,0.0,0.0,0.0,0.0,0.0,0.0,0.0,0.0,0.0,0.0,0.0,0.0,0.0,0.0,0.0,0.0,0.0,0.0,0.0,0.0,0.0,0.0,0.0,0.0,0.0,0.0,0.0,0.0,0.0,0.0,0.0,0.0,0.0,0.0,0.0,0.0,0.0,0.0,0.0,0.0,0.0,0.0,0.0,0.0,0.0,0.0,0.0,0.0,0.0,0.0,0.0,0.0,0.0,0.0,0.0,0.0,0.0,0.0,0.0,0.0,0.0,0.0,0.0,0.0,0.0,0.0,0.0,0.0,0.0,0.0,0.0,0.0,0.0,0.0,0.0,0.0,0.0,0.0,0.0,0.0,0.0,0.8191,0.8247,0.8306,0.83,0.8231,0.7764,0.7465,0.0,0.0,0.0,0.0,0.0,0.0,0.0,0.0,0.0,0.0,0.0,0.0,0.0,0.0,0.0,0.0,0.0,0.0,0.0,0.0,0.0,0.0,0.0,0.0,0.0,0.0,0.0,0.0,0.0,0.0,0.0,0.0,0.0,0.0,0.0,0.0,0.0,0.0,0.0,0.0,0.0,0.0,0.0,0.0,0.0,0.0,0.0,0.0,0.0,0.0,0.0,0.0,0.0,0.0,0.0,0.0,0.0,0.0,0.0,0.0,0.0,0.0,0.0,0.0,0.0,0.0,0.0,0.0,0.0,0.0,0.0,0.0,0.0,0.0,0.0,0.0,0.0,0.0,0.0,0.0,0.0,0.0,0.0,0.0,0.0,0.0,0.0,0.0,0.0,0.0,0.0,0.0,0.0,0.0,0.0,0.0,0.0,0.0,0.0,0.0,0.0,0.0,0.0,0.0,0.0,0.0,0.0,0.0,0.8701,0.8762,0.8986,0.8933,0.8678,0.8215,0.7957,0.0,0.0,0.0,0.0,0.0,0.0,0.0,0.0,0.0,0.0,0.0,0.0,0.0,0.0,0.0,0.0,0.0,0.0,0.0,0.0,0.0,0.0,0.0,0.0,0.0,0.0,0.0,0.0,0.0,0.0,0.0,0.0,0.0,0.0,0.0,0.0,0.0,0.0,0.0,0.0,0.0,0.0,0.0,0.0,0.0,0.0,0.0,0.0,0.8559,0.0,0.0,0.0,0.0,0.0,0.0,0.0,0.0,0.0,0.0,0.0,0.0,0.0,0.0,0.0,0.0,0.0,0.0,0.0,0.0,0.0,0.0,0.0,0.0,0.0,0.0,0.0,0.0,0.0,0.0,0.0,0.0,0.0,0.0,0.0,0.0,0.0,0.0,0.0,0.0,0.0,0.0,0.0,0.0,0.0,0.0,0.0,0.0,0.0,0.0,0.0,0.0,0.0,0.0,0.0,0.0,0.0,0.0,0.0,0.8897,0.9013,0.9347,0.9382,0.9246,0.8928,0.8574,0.0,0.0,0.0,0.0,0.0,0.0,0.0,0.0,0.0,0.0,0.0,0.0,0.0,0.0,0.0,0.0,0.0,0.0,0.0,0.0,0.0,0.0,0.0,0.0,0.0,0.0,0.0,0.0,0.0,0.0,0.0,0.0,0.0,0.0,0.0,0.0,0.0,0.0,0.0,0.0,0.0,0.0,0.0,0.0,0.0,0.0,0.0,0.0,0.0,0.0,0.0,0.0,0.0,0.0,0.0,0.0,0.0,0.0,0.0,0.0,0.0,0.0,0.0,0.0,0.0,0.0,0.0,0.0,0.0,0.0,0.0,0.0,0.0,0.0,0.0,0.0,0.0,0.0,0.0,0.0,0.0,0.0,0.0,0.0,0.0,0.0,0.0,0.0,0.0,0.0,0.0,0.0,0.0,0.0,0.0,0.0,0.0,0.0,0.0,0.0,0.0,0.0,0.0,0.0,0.0,0.0,0.0,0.8824,0.9079,0.9183,0.9588,0.9794,0.9794,0.9683,0.924,0.8489,0.0,0.0,0.0,0.0,0.0,0.0,0.0,0.0,0.0,0.0,0.0,0.0,0.0,0.0,0.0,0.0,0.0,0.0,0.0,0.0,0.0,0.0,0.0,0.0,0.0,0.0,0.0,0.0,0.0,0.0,0.0,0.0,0.0,0.0,0.0,0.0,0.0,0.0,0.8128,0.848,0.0,0.0,0.0,0.0,0.0,0.0,0.0,0.0,1.0555,0.0,0.0,0.0,0.0,0.0,0.0,0.0,0.0,0.0,0.0,0.0,0.0,0.0,0.0,0.0,0.0,0.0,0.0,0.0,0.0,0.0,0.0,0.0,0.0,0.0,0.0,0.0,0.0,0.0,0.0,0.0,0.0,0.0,0.0,0.0,0.0,0.0,0.0,0.0,0.0,0.0,0.0,0.0,0.0,0.0,0.0,0.0,0.0,0.0,0.0,0.0,0.0,0.0,0.0,0.0,0.0,0.8421,0.9174,0.957,0.9594,1.0193,1.0392,1.0127,1.0101,0.9883,0.9456,0.0,0.0,0.0,0.0,0.0,0.0,0.0,0.0,0.0,0.0,0.0,0.0,0.0,0.0,0.0,0.0,0.0,0.0,0.0,0.0,0.0,0.0,0.0,0.0,0.0,0.0,0.0,0.0,0.0,0.0,0.0,0.0,0.0,0.0,0.0,0.0,0.0,0.0,0.0,0.9168,0.9256,0.0,0.0,0.0,0.0,0.0,0.0,0.0,0.0,1.0743,0.0,0.0,0.0,0.0,0.0,0.0,0.0,0.0,0.0,0.0,0.0,0.0,0.0,0.0,0.0,0.0,0.0,0.0,0.0,0.0,0.0,0.0,0.0,0.0,0.0,0.0,0.0,0.0,0.0,0.0,0.0,0.0,0.0,0.0,0.0,0.0,0.0,0.0,0.0,0.0,0.0,0.0,0.0,0.0,0.0,0.0,0.0,0.0,0.0,0.0,0.0,0.0,0.0,0.0,0.0,0.8867,0.946,0.993,1.0134,1.0677,1.0847,1.0571,1.0571,1.0471,0.0,0.0,0.0,0.0,0.0,0.0,0.0,0.0,0.0,0.0,0.0,0.0,0.0,0.0,0.0,0.0,0.0,0.0,0.0,0.0,0.0,0.0,0.0,0.0,0.0,0.0,0.0,0.0,0.0,0.0,0.0,0.0,0.0,0.0,0.0,0.0,0.0,0.0,0.0,0.0,0.9622,0.9757,1.001,0.0,0.0,0.0,0.0,0.0,0.0,1.1292,1.1343,0.0,0.0,0.0,0.0,0.0,0.0,0.0,0.0,0.0,0.0,0.0,0.0,0.0,0.0,0.0,0.0,0.0,0.0,0.0,0.0,0.0,0.0,0.0,0.0,0.0,0.0,0.0,0.0,0.0,0.0,0.0,0.0,0.0,0.0,0.0,0.0,0.0,0.0,0.0,0.0,0.0,0.0,0.0,0.0,0.0,0.0,0.0,0.0,0.0,0.0,0.0,0.0,0.0,0.0,0.0,0.9307,0.9813,1.0216,1.0606,1.102,1.1111,1.0995,1.0894,1.0826,0.0,0.0,0.0,0.0,0.0,0.0,0.0,0.0,0.0,0.0,0.0,0.0,0.0,0.0,0.0,0.0,0.0,0.0,0.0,0.0,0.0,0.0,0.0,0.0,0.0,0.0,0.0,0.0,0.0,0.0,0.0,0.0,0.0,0.0,0.0,0.0,0.0,0.0,0.0,0.0,0.0,1.0222,1.0584,1.0666,0.0,0.0,0.0,0.0,1.1828,1.1897,0.0,0.0,0.0,0.0,0.0,0.0,0.0,0.0,0.0,0.0,0.0,0.0,0.0,0.0,0.0,0.0,0.0,0.0,0.0,0.0,0.0,0.0,0.0,0.0,0.0,0.0,0.0,0.0,0.0,0.0,0.0,0.0,0.0,0.0,0.0,0.0,0.0,0.0,0.0,0.0,0.0,0.0,0.0,0.0,0.0,0.0,0.0,0.0,0.0,0.0,0.0,0.0,0.0,0.0,0.0,0.0,0.9313,1.011,1.0524,1.0606,1.102,1.122,1.1138,1.1016,1.0873,0.0,0.0,0.0,0.0,0.0,0.0,0.0,0.0,0.0,0.0,0.0,0.0,0.0,0.0,0.0,0.0,0.0,0.0,0.0,0.0,0.0,0.0,0.0,0.0,0.0,0.0,0.0,0.0,0.0,0.0,0.0,0.0,0.0,0.0,0.0,0.0,0.0,0.0,0.0,0.0,0.0,1.074,1.0763,1.0763,1.0891,0.0,0.0,1.1511,1.2062,1.2113,0.0,0.0,0.0,0.0,0.0,0.0,0.0,0.0,0.0,0.0,0.0,0.0,0.0,0.0,0.0,0.0,0.0,0.0,0.0,0.0,0.0,0.0,0.0,0.0,0.0,0.0,0.0,0.0,0.0,0.0,0.0,0.0,0.0,0.0,0.0,0.0,0.0,0.0,0.0,0.0,0.0,0.0,0.0,0.0,0.0,0.0,0.0,0.0,0.0,0.0,0.0,0.0,0.0,0.0,0.0,0.9757,1.0041,1.0525,1.0914,1.1133,1.1352,1.1382,1.1294,1.1233,1.1158,0.0,0.0,0.0,0.0,0.0,0.0,0.0,0.0,0.0,0.0,0.0,0.0,0.0,0.0,0.0,0.0,0.0,0.0,0.0,0.0,0.0,0.0,0.0,0.0,0.0,0.0,0.0,0.0,0.0,0.0,0.0,0.0,0.0,0.0,0.0,0.0,0.0,0.0,0.0,0.0,0.0,0.0,1.1345,1.1345,0.0,0.0,0.0,1.1872,1.2174,0.0,0.0,0.0,0.0,0.0,0.0,0.0,0.0,0.0,0.0,0.0,0.0,0.0,0.0,0.0,0.0,0.0,0.0,0.0,0.0,0.0,0.0,0.0,0.0,0.0,0.0,0.0,0.0,0.0,0.0,0.0,0.0,0.0,0.0,0.0,0.0,0.0,0.0,0.0,0.0,0.0,0.0,0.0,0.0,0.0,0.0,0.0,0.0,0.0,0.0,0.0,0.0,0.0,0.0,0.0,0.0,0.0,1.0525,1.0876,1.1219,1.1541,1.1619,1.1565,1.145,1.1409,0.0,0.0,0.0,0.0,0.0,0.0,0.0,0.0,0.0,0.0,0.0,0.0,0.0,0.0,0.0,0.0,0.0,0.0,0.0,0.0,0.0,0.0,0.0,0.0,0.0,0.0,0.0,0.7584,0.0,0.0,0.0,0.0,0.0,0.0,0.0,0.0,0.0,0.0,0.0,0.0,0.0,0.0,1.1518,1.1776,1.1837,1.1837,0.0,0.0,1.2251,1.2483,1.2734,1.2933,0.0,0.0,0.0,0.0,0.0,0.0,0.0,0.0,0.0,0.0,0.0,0.0,0.0,0.0,0.0,0.0,0.0,0.0,0.0,0.0,0.0,0.0,0.0,0.0,0.0,0.0,0.0,0.0,0.0,0.0,0.0,0.0,0.0,0.0,0.0,0.0,0.0,0.0,0.0,0.0,0.0,0.0,0.0,0.0,0.0,0.0,0.0,0.0,0.0,0.0,0.0,0.0,0.0,0.0,0.0,1.0389,1.1168,1.1534,1.1619,1.1619,1.1619,1.1599,1.1463,1.1389,0.0,0.0,0.0,0.0,0.0,0.0,0.0,0.0,0.0,0.0,0.0,0.0,0.0,0.0,0.0,0.0,0.0,0.0,0.0,0.0,0.0,0.0,0.0,0.0,0.0,0.0,0.0,0.0,0.0,0.0,0.0,0.0,0.0,0.0,0.0,0.0,0.0,0.0,0.0,0.0,0.0,1.1776,1.1776,1.1837,1.1897,0.0,0.0,1.2483,1.3276,1.3435,1.3621,1.4107,0.0,0.0,0.0,0.0,0.0,0.0,0.0,0.0,0.0,0.0,0.0,0.0,0.0,0.0,0.0,0.0,0.0,0.0,0.0,0.0,0.0,0.0,0.0,0.0,0.0,0.0,0.0,0.0,0.0,0.0,0.0,0.0,0.0,0.0,0.0,0.0,0.0,0.0,0.0,0.0,0.0,0.0,0.0,0.0,0.0,0.0,0.0,0.0,0.0,0.0,0.0,0.0,0.0,1.1054,1.0966,1.1402,1.1619,1.1619,1.1619,1.1619,1.1619,1.1565,1.1674,0.0,0.0,0.0,0.0,0.0,0.0,0.0,0.0,0.0,0.0,0.0,0.0,0.0,0.0,0.0,0.0,0.0,0.0,0.0,0.0,0.0,0.0,0.0,0.0,0.0,0.0,0.0,0.0,0.8935,0.9196,0.94,0.0,0.0,0.0,0.0,0.0,0.0,0.0,0.0,0.0,0.0,1.2403,1.2403,1.2651,0.0,0.0,1.3075,1.3287,1.3616,1.4008,1.4347,1.4558,1.4817,0.0,0.0,0.0,0.0,0.0,0.0,0.0,0.0,0.0,0.0,0.0,0.0,0.0,0.0,0.0,0.0,0.0,0.0,0.0,0.0,0.0,0.0,0.0,0.0,0.0,0.0,0.0,0.0,0.0,0.0,0.0,0.0,0.0,0.0,0.0,0.0,0.0,0.0,0.0,0.0,0.0,0.0,0.0,0.0,0.0,0.0,0.0,0.0,0.0,0.0,0.0,0.0,1.1366,1.1382,1.1554,1.178,1.1901,1.1894,1.1946,1.2049,1.2049,1.2165,0.0,0.0,0.0,0.0,0.0,0.0,0.0,0.0,0.0,0.0,0.0,0.0,0.0,0.0,0.0,0.0,0.0,0.0,0.0,0.0,0.0,0.0,0.0,0.0,0.0,0.0,0.0,0.0,0.9308,0.9526,0.9748,0.0,0.0,0.0,0.0,0.0,0.0,0.0,0.0,0.0,0.0,1.2792,1.2792,1.3178,1.3429,1.3492,1.3681,1.3887,1.4131,1.4591,1.4925,1.512,0.0,0.0,0.0,0.0,0.0,0.0,0.0,0.0,0.0,0.0,0.0,0.0,0.0,0.0,0.0,0.0,0.0,0.0,0.0,0.0,0.0,0.0,0.0,0.0,0.0,0.0,0.0,0.0,0.0,0.0,0.7119,0.0,0.0,0.0,0.0,0.0,0.0,0.0,0.0,0.0,0.0,0.0,0.0,0.0,0.0,0.0,0.0,0.0,0.0,0.0,0.0,0.0,0.0,1.1395,1.1304,1.1677,1.2118,1.2635,1.265,1.2786,1.2933,1.2999,1.2924,1.2832,0.0,0.0,0.0,0.0,0.0,0.0,0.0,0.0,0.0,0.0,0.0,0.0,0.0,0.0,0.0,0.0,0.0,0.0,0.0,0.0,0.0,0.0,0.0,0.0,0.0,0.0,0.9754,0.9754,0.9822,0.0,0.0,0.0,0.0,0.0,0.0,0.0,0.0,0.0,0.0,1.2611,1.28,1.28,1.3178,1.351,1.3761,1.3815,1.414,1.491,1.5067,1.5317,0.0,0.0,0.0,0.0,0.0,0.0,0.0,0.0,0.0,0.0,0.0,0.0,0.0,0.0,0.0,0.0,0.0,0.0,0.0,0.0,0.0,0.0,0.0,0.0,0.0,0.0,0.0,0.7627,0.7836,0.0,0.0,0.0,0.0,0.0,0.0,0.0,0.0,0.0,0.0,0.0,0.9296,0.9023,0.0,0.0,0.0,0.0,0.0,0.0,0.0,0.0,0.0,0.0,0.0,0.0,1.1807,1.2056,1.2307,1.2607,1.3111,1.3111,1.3156,1.3178,1.3066,1.3069,1.3118,0.0,0.0,0.0,0.0,0.0,0.0,0.0,0.0,0.0,0.0,0.0,0.0,0.0,0.0,0.0,0.0,0.0,0.0,0.0,0.0,0.0,0.0,0.0,0.0,0.0,1.0012,0.0,0.0,0.0,0.0,0.0,0.0,0.0,0.0,0.0,0.0,0.0,1.2523,1.2645,1.3172,1.3552,1.3552,1.4005,1.4512,0.0,0.0,0.0,0.0,0.0,0.0,0.0,0.0,0.0,0.0,0.0,0.0,0.0,0.0,1.4688,1.4558,1.4521,1.4438,1.4438,0.0,0.0,0.0,0.0,0.0,0.0,0.0,0.0,0.0,0.0,0.0,0.0,0.0,0.0,0.8086,0.0,0.8293,0.0,0.0,0.0,0.0,0.0,0.0,0.0,0.0,0.9073,0.9214,0.9425,0.9144,0.9144,0.0,0.9285,0.9285,0.0,0.0,0.0,0.0,0.0,0.0,0.0,0.0,1.2086,1.2437,1.2685,1.2989,1.3424,1.3574,1.3702,1.3791,1.3621,1.3517,1.3642,1.385,1.385,0.0,0.0,0.0,0.0,0.0,0.0,0.0,0.0,0.0,0.0,0.0,0.0,0.0,0.0,0.0,0.0,0.0,0.0,0.0,0.0,0.0,0.0,0.0,1.0168,0.0,0.0,0.0,0.0,0.0,0.0,0.0,0.0,0.0,1.2637,1.2621,1.2702,1.2758,1.3484,1.398,1.398,0.0,0.0,0.0,0.0,0.0,0.0,0.0,1.6912,1.7328,1.752,1.7588,1.7261,1.6709,1.6292,1.6292,0.0,0.0,1.5243,1.5092,1.5063,1.5139,1.5252,1.528,1.5087,1.5122,1.5146,0.0,0.0,0.0,0.0,0.0,0.0,0.0,0.0,0.816,0.816,0.0,0.8232,0.0,0.0,0.0,0.0,0.0,0.9247,0.0,0.0,0.9296,0.9307,0.9307,0.9307,0.9313,0.9385,0.9746,0.9891,0.9957,1.0203,0.0,0.0,0.0,0.0,0.0,0.0,1.2142,1.2353,1.274,1.3192,1.3729,1.4199,1.4505,1.4633,1.4463,1.4359,1.4196,1.4188,1.4188,1.418,1.365,0.0,0.0,0.0,0.0,0.0,0.0,0.0,0.0,0.0,0.0,0.0,0.0,0.0,0.0,0.0,0.0,0.0,0.0,0.0,0.0,1.0354,0.0,0.0,0.0,0.0,0.0,0.0,0.0,0.0,0.0,0.0,1.2629,1.2751,1.2848,1.2856,0.0,0.0,0.0,0.0,1.5623,1.5632,1.5895,1.6244,1.6604,1.6963,1.737,1.7709,0.0,0.0,1.7303,1.6953,1.675,1.6739,1.6739,1.6448,1.5788,1.5461,1.5309,1.5498,1.5623,1.5632,1.5574,1.5593,1.5611,0.9266,0.0,0.0,0.0,0.0,0.9271,0.9271,0.9271,0.9271,0.9271,0.9271,0.9271,0.0,0.0,0.0,0.0,0.0,0.0,0.9302,0.9302,0.9302,0.9496,0.9871,0.9579,0.9623,0.9934,1.0082,1.0304,1.0601,1.1007,1.1177,1.1265,0.0,0.0,0.0,0.0,1.2395,1.274,1.3228,1.3692,1.4207,1.4592,1.481,1.4716,1.4659,1.4546,1.4367,1.4359,1.4359,1.4351,1.4163,0.0,0.0,0.0,0.0,0.0,0.0,0.0,0.0,0.0,0.0,0.0,0.0,0.0,0.0,0.0,0.0,0.0,0.0,0.0,1.0819,1.1077,1.1185,0.0,0.0,0.0,0.0,0.0,0.0,0.0,0.0,0.0,1.3149,1.3392,1.3561,0.0,0.0,1.4783,1.4783,1.5245,1.568,1.5753,1.6117,0.0,0.0,1.7712,1.8117,1.8642,1.8595,1.8476,1.8346,1.7917,1.7534,1.7534,1.7192,1.6855,1.6788,1.6245,1.5837,1.5623,1.5737,1.5772,1.5851,1.5886,1.5999,0.9954,0.9938,0.9823,0.9666,0.9666,0.9666,0.9666,0.9666,0.9666,0.9666,0.9666,0.9666,0.9666,0.9666,0.959,0.0,0.0,0.0,0.9449,0.9449,0.9449,0.9634,0.9928,0.9706,0.9819,1.0266,1.0416,1.0715,1.117,1.1596,1.1808,1.1722,0.0,0.0,1.2155,1.2298,1.263,1.307,1.3549,1.4104,1.4563,1.4881,1.4984,1.4814,1.4806,1.4724,1.4546,1.4546,1.4538,1.4538,1.4473,1.4416,0.0,0.0,0.0,0.0,0.0,0.0,0.0,0.0,0.0,0.0,0.0,1.1844,1.1791,0.0,0.0,0.0,1.1753,1.1651,1.1388,1.1718,0.0,0.0,0.0,0.0,0.0,0.0,0.0,1.336,1.3433,1.3575,1.378,1.4204,1.4379,1.395,1.4456,1.5018,1.5229,0.0,1.6069,1.641,1.6803,1.7257,1.7939,1.8352,1.8693,1.905,1.9036,1.8928,1.8928,1.8585,1.8357,1.8336,1.8099,1.7834,1.7826,1.742,1.6887,1.6392,1.6242,1.619,1.619,1.6234,1.6188,1.0384,1.0346,0.9911,0.9731,0.9726,0.9726,0.9726,0.9801,0.9715,0.9709,0.9715,0.9699,0.9693,0.9682,0.9682,0.0,0.9666,0.9666,0.9666,0.9666,0.9746,0.9752,0.9757,0.9838,0.9988,1.0376,1.082,1.1195,1.1583,1.2085,1.2305,1.2305,1.2318,1.2318,1.2318,1.2447,1.2823,1.344,1.384,1.4309,1.4947,1.5097,1.5155,1.4992,1.5053,1.4887,1.4741,1.4732,1.4732,1.4724,1.4562,1.4546,1.4692,0.0,0.0,0.0,0.0,0.0,0.0,0.0,0.0,0.0,0.0,0.0,0.0,0.0,0.0,0.0,1.2015,0.0,1.203,1.224,0.0,0.0,0.0,1.2826,1.2834,1.3186,1.3401,1.3409,0.0,0.0,1.4483,0.0,1.5086,1.4215,1.4571,1.5167,1.5701,1.6243,1.673,1.7248,1.7746,1.8122,1.8498,1.8905,1.9157,1.9178,1.9114,1.9103,1.9103,1.9071,1.9071,1.905,1.9071,1.8987,1.8696,1.8571,1.8425,1.7572,1.7076,1.6793,1.6803,1.6609,1.6486,1.0384,1.0378,1.0264,1.0215,1.0215,1.0215,1.0215,1.0204,1.0117,1.0074,1.0068,0.9976,0.9883,0.9796,0.9796,0.9748,0.9666,0.9666,0.9666,0.9746,1.0047,1.0242,1.0328,1.0638,1.0844,1.1087,1.1472,1.1702,1.1862,1.228,1.2454,1.2461,1.2569,1.2569,1.2461,1.2603,1.2934,1.3362,1.3872,1.451,1.5345,1.5255,1.522,1.5171,1.5041,1.4944,1.4903,1.4903,1.4903,1.4903,1.4862,1.4797,1.4708,1.4667,0.0,0.0,0.0,0.0,0.0,0.0,0.0,0.0,0.0,1.3082,1.3042,0.0,1.3042,0.0,1.3074,1.2962,1.262,1.2933,0.0,0.0,1.3025,1.3287,1.3424,1.351,1.3628,1.3758,1.3937,1.4211,1.4677,1.4992,1.5281,1.5578,1.604,1.6386,1.6515,1.6616,1.6892,1.738,1.7766,1.8183,1.879,1.934,1.9671,1.9682,1.9531,1.9413,1.9413,1.9262,1.9082,1.9082,1.9082,1.9071,1.9009,1.8998,1.8904,1.8642,1.8176,1.7669,1.7669,1.7596,1.7524,1.0541,1.0541,1.0541,1.0623,1.0781,1.0513,1.0384,1.0378,1.0473,1.0445,1.028,1.0155,1.0063,0.9998,0.9943,0.9883,0.9824,0.9976,1.0129,1.0129,1.0586,1.0773,1.0839,1.1075,1.1272,1.1572,1.1805,1.1992,1.2291,1.2525,1.2637,1.2712,1.2793,1.2793,1.2718,1.2786,1.3186,1.3887,1.4612,1.5223,1.5634,1.5528,1.5439,1.5358,1.5179,1.5082,1.5082,1.5009,1.5045,1.5045,1.5045,1.4927,1.483,1.4822,1.47,0.0,0.0,0.0,0.0,0.0,0.0,0.0,0.0,0.0,0.0,0.0,1.3368,1.3368,1.3441,1.3421,1.3213,1.3424,1.3534,1.3324,1.3464,1.3644,1.375,1.3758,1.3823,1.4002,1.4115,1.4383,1.4965,1.5314,1.5707,1.6385,1.6852,1.7048,1.6953,1.6934,1.7111,1.7569,1.7971,1.8533,1.918,1.9682,1.9919,1.9908,1.9736,1.965,1.965,1.9553,1.9456,1.9456,1.9456,1.9467,1.9456,1.9456,1.9456,1.9382,1.916,1.8716,1.8309,1.8122,1.7986,1.0675,1.0759,1.0742,1.0904,1.122,1.0677,1.0433,1.0589,1.0901,1.0803,1.0378,1.0275,1.0226,1.03,1.019,1.0141,1.0225,1.0537,1.0693,1.0765,1.1155,1.1389,1.1395,1.1473,1.17,1.2018,1.2018,1.2318,1.2759,1.2759,1.2827,1.2956,1.2976,1.299,1.299,1.301,1.357,1.4512,1.5475,1.5885,1.5813,1.578,1.5699,1.5553,1.5374,1.5182,1.5236,1.5082,1.4984,1.5045,1.5045,1.5045,1.5045,1.5045,1.4887,0.0,1.4554,0.0,0.0,0.0,0.0,0.0,0.0,0.0,0.0,1.3441,1.3441,1.351,1.3587,1.3677,1.3677,1.3815,1.3912,1.3928,1.3912,1.3904,1.3937,1.3937,1.4002,1.4156,1.4213,1.4514,1.5235,1.5697,1.6161,1.6666,1.7084,1.7322,1.719,1.7152,1.7359,1.793,1.8405,1.8895,1.952,1.9844,1.9919,1.9919,1.9908,1.9919,1.9908,1.9898,1.9908,1.9908,1.9887,1.9898,1.9919,1.9908,1.9908,1.9887,1.9801,1.9618,1.9001,1.8539,1.8287,1.0884,1.0873,1.078,1.0737,1.0815,1.0688,1.0837,1.124,1.1218,1.0877,1.0384,1.0362,1.0512,1.0833,1.0804,1.1039,1.1352,1.1033,1.1113,1.1518,1.1598,1.1831,1.2077,1.2476,1.2715,1.2795,1.2795,1.2808,1.2922,1.2922,1.2935,1.2963,1.3078,1.3132,1.3139,0.0,0.0,0.0,1.5201,1.5703,1.5909,1.5845,1.5756,1.5723,1.5553,0.0,1.5244,1.5204,1.5114,1.5053,1.5045,0.0,0.0,0.0,0.0,0.0,0.0,0.0,0.0,0.0,0.0,0.0,1.3658,1.3839,1.3807,1.3798,1.3798,1.3798,1.3831,1.3855,1.3855,1.388,1.3961,1.4099,1.3993,1.3961,1.4099,1.4123,1.414,1.418,1.4432,1.4777,1.5219,1.5809,1.6312,1.673,1.7121,1.734,1.7388,1.7369,1.7521,1.7949,1.8567,1.9098,1.9315,1.9628,1.9962,1.9919,1.9919,1.993,1.9919,1.9919,1.9919,1.9919,1.9919,1.9919,1.9919,1.9919,1.9919,1.9919,1.9919,1.9898,1.9736,1.9629,1.9564,1.1009,0.0,1.0944,1.1001,0.0,1.1255,1.134,1.1582,1.1392,1.127,1.1207,1.1149,1.1283,1.1439,1.138,1.1511,1.1671,1.1671,1.1752,1.1993,1.2234,1.2475,1.2642,1.2882,1.3043,1.3043,1.3043,1.2996,1.3064,1.3064,1.3105,1.318,1.3254,1.3288,1.3288,1.3363,1.3728,1.439,1.4803,1.5133,1.5373,1.5541,1.5575,1.5575,0.0,0.0,0.0,0.0,0.0,0.0,0.0,0.0,0.0,0.0,0.0,1.4846,1.4757,1.4627,1.4456,1.4211,1.3903,1.3597,1.3735,1.3882,1.3912,1.3904,1.3904,1.3904,1.3985,1.4042,1.4042,1.4115,1.4205,1.4286,1.4221,1.4205,1.4286,1.4302,1.4343,1.444,1.4594,1.4808,1.5118,1.5743,1.6315,1.6626,1.7192,1.7538,1.769,1.7549,1.7578,1.7949,1.8591,1.9187,1.9416,1.9905,2.0145,2.007,2.0027,1.9973,1.9941,1.9919,1.9919,1.9919,1.9919,1.9919,1.9919,1.9919,1.9919,1.9844,1.9693,1.9693,1.9844,1.9919,1.9919,1.1134,1.1128,1.1198,1.1446,1.179,1.1876,1.1876,1.1779,0.0,0.0,0.0,1.1995,1.2023,1.2092,1.1962,1.1907,1.1987,1.2223,1.2391,1.2472,1.2795,1.2956,1.3037,1.3037,1.3044,1.3037,1.3037,1.3098,1.3214,1.3214,1.3275,1.339,1.3397,1.3417,1.3437,1.3464,1.3645,1.4061,1.4419,1.4631,1.4796,1.5216,1.5381,1.5463,1.5739,1.5804,1.5772,1.5642,1.5545,1.5512,1.5512,1.5447,1.5301,1.5182,1.5171,1.5025,1.4778,1.4665,1.4708,1.4196,1.3878,1.3929,1.3772,1.3803,1.3946,1.3993,1.3993,1.3993,1.4131,1.4221,1.4229,1.4343,1.444,1.4473,1.4448,1.444,1.4473,1.4481,1.4538,1.4676,1.4732,1.4806,1.5012,1.5693,1.6232,1.6527,1.7134,1.7754,1.7886,1.7766,1.7654,1.7961,1.8628,1.9182,1.9512,2.0171,2.0479,2.0307,2.0274,2.0199,2.0114,2.0049,2.0049,2.0092,2.0049,2.007,2.006,1.9962,1.9833,1.9833,1.9422,1.9163,1.9552,1.9693,1.9768,1.1248,1.133,1.1577,1.171,1.1876,1.2214,1.2128,1.179,1.175,1.1824,1.1898,1.2107,1.2474,1.2804,1.2657,1.2758,1.3171,1.2758,1.284,0.0,1.2923,1.2923,1.3342,1.3342,1.3342,1.3342,1.3342,1.3349,1.337,1.337,1.3383,1.3403,1.3397,1.3464,1.3593,1.3631,1.3777,1.3862,1.4027,1.4563,1.5298,1.5381,1.5554,1.5875,1.5942,1.5934,1.578,1.5748,1.5666,1.5528,1.5512,1.5504,1.5472,1.5333,1.5228,1.5117,1.4732,1.4489,1.4649,1.4307,1.4153,1.4226,1.3698,1.3601,1.4293,1.4359,1.4359,1.4359,1.4375,1.4391,1.4399,1.4424,1.4513,1.4635,1.4529,1.4497,1.4651,1.4667,1.4676,1.4716,1.4846,1.4935,1.5061,1.5579,1.6078,1.6511,1.7141,1.7627,1.7901,1.7924,1.7965,1.8112,1.8759,1.925,1.9495,2.0053,2.0498,2.0522,2.0511,2.049,2.0414,2.0481,2.0481,2.0524,2.0414,2.0425,2.0503,1.9976,1.9793,1.9685,1.9264,1.8922,1.8998,1.9215,1.9498,1.1373,1.1456,1.1577,1.1642,1.1642,1.1905,1.1817,1.1642,1.1905,1.1917,1.1876,1.224,1.2472,1.2636,1.2574,1.2758,1.31,1.2933,1.3061,1.341,1.3234,1.3274,1.3532,1.3607,1.3641,1.3641,1.3641,1.3641,1.3641,1.3641,1.3641,1.3641,1.3641,1.3675,1.3743,1.381,1.3752,1.3838,1.4224,1.4525,1.4771,1.5279,1.5565,1.5636,1.5883,1.6008,1.5926,1.5918,1.5886,1.5804,1.5804,1.5756,1.5658,1.5337,1.509,1.4995,1.4523,1.4329,1.4322,1.4061,1.4053,1.4354,1.4051,1.4127,1.4649,1.4546,1.4432,1.444,1.4521,1.4578,1.4586,1.4667,1.4757,1.4838,1.4765,1.4757,1.483,1.4846,1.4846,1.4862,1.5,1.5114,1.5114,1.566,1.6064,1.6475,1.7128,1.7888,1.83,1.838,1.8295,1.8116,1.869,1.9155,1.9492,2.0151,2.0559,2.078,2.0748,2.0694,2.0597,2.0565,2.0565,2.0632,2.0565,2.0632,2.0643,2.0401,2.0171,2.0082,1.9709,1.9481,1.9625,1.9846,1.9915,1.1543,1.1543,1.1632,1.1721,1.181,1.181,1.1721,1.1721,1.2077,1.2056,1.1801,1.2366,1.2693,1.2779,1.2748,1.2844,1.3095,1.3082,1.3277,1.3435,1.362,1.3675,1.3688,1.379,1.3752,1.3752,1.3752,1.3752,1.3752,1.3752,1.3752,1.3844,1.3878,1.3892,1.3892,1.3926,1.3939,1.3946,1.4377,1.4629,1.452,1.5363,1.5706,1.5617,1.5774,1.5924,1.5966,1.5883,1.5883,1.5966,1.5966,1.5901,1.5682,1.5318,1.4996,1.4704,1.4331,1.4003,1.3848,1.3715,1.3781,1.4214,1.413,1.4284,1.4637,1.4414,1.433,1.4495,1.4692,1.4765,1.4781,1.4879,1.5045,1.5045,1.5045,1.5028,1.5045,1.5045,1.4992,1.5033,1.5155,1.5244,1.5317,1.5693,1.6187,1.6696,1.743,1.8164,1.8592,1.8673,1.8522,1.8423,1.8654,1.9142,1.9564,2.0169,2.0604,2.0847,2.0825,2.0761,2.0644,2.058,2.0569,2.0522,2.059,2.0691,2.0737,2.0594,2.0494,2.0405,2.0027,1.9907,2.021,2.0288,2.038,1.1549,1.1543,1.191,1.2343,1.271,1.2704,1.2438,1.2171,1.2165,1.1976,1.1666,1.2798,1.3526,1.3861,1.3654,1.3587,1.3646,1.3732,1.3725,1.3705,1.3817,1.3817,1.3824,1.3838,1.3752,1.3851,1.3858,1.3865,1.3779,1.3858,1.3759,1.3858,1.398,1.4048,1.4068,1.4183,1.4251,1.4258,1.4692,1.4981,1.5127,1.5616,1.604,1.62,1.5782,1.5711,1.5899,1.5636,1.5628,1.5966,1.5966,1.5785,1.5506,1.5217,1.4888,1.4533,1.3997,1.3598,1.3383,1.3347,1.3432,1.3689,1.3436,1.3436,1.3821,1.3791,1.4076,1.4673,1.4919,1.4927,1.502,1.496,1.4984,1.5069,1.5,1.5045,1.5069,1.5045,1.5025,1.5195,1.5174,1.5301,1.548,1.5722,1.6218,1.7112,1.7574,1.8092,1.8592,1.8673,1.8673,1.8689,1.8952,1.9196,1.944,2.0028,2.0444,2.0575,2.0586,2.0544,2.0492,2.033,2.014,2.0429,2.0583,2.0653,2.0873,2.0809,2.0411,2.0469,2.0116,1.9635,1.9949,2.0148,2.0252,1.1672,1.1672,1.1853,1.2034,1.2204,1.213,1.2012,1.1827,1.1838,1.181,1.1982,1.2461,1.2614,1.2614,1.2472,1.2667,1.3108,1.3195,1.3409,1.3772,1.3933,1.398,1.3987,1.4075,1.4109,1.4109,1.4109,1.4116,1.4116,1.4109,1.4116,1.4116,1.4183,1.4204,1.4211,1.4272,1.4299,1.4299,1.4734,1.5023,1.5075,1.5399,1.5615,1.5632,1.5356,1.5196,1.537,1.5353,1.5463,1.5628,1.5636,1.5546,1.5381,1.4825,1.4467,1.4206,1.3736,1.3461,1.3559,1.3389,1.349,1.3815,1.3641,1.3513,1.3667,1.3667,1.3891,1.4199,1.4507,1.4745,1.4984,1.5065,1.513,1.5139,1.522,1.5285,1.5293,1.5285,1.5325,1.5398,1.5488,1.5577,1.5675,1.5821,1.636,1.7191,1.7609,1.7937,1.851,1.8673,1.8673,1.8755,1.8837,1.9072,1.9235,1.9561,1.9896,2.014,2.0211,2.0221,2.0221,2.013,2.0039,2.0221,2.0221,2.0384,2.0769,2.0737,2.0562,2.0611,2.0772,2.0586,2.0756,2.0756,2.0825,1.1819,1.1819,1.1819,1.1819,1.1813,1.1726,1.1688,1.1677,1.159,1.1715,1.2039,1.2039,1.1844,1.1543,1.1721,1.229,1.291,1.2992,1.3291,1.39,1.4082,1.4136,1.4143,1.4245,1.4299,1.4299,1.4292,1.4292,1.4299,1.4299,1.4299,1.4299,1.4299,1.4299,1.4299,1.4299,1.4299,1.4299,1.4646,1.4822,1.4801,1.4973,1.5183,1.5201,1.4998,1.4894,1.4883,1.5014,1.5179,1.5216,1.5216,1.5133,1.5051,1.4397,1.4066,1.3894,1.3542,1.3377,1.3587,1.337,1.3375,1.3605,1.3481,1.3402,1.3373,1.3395,1.3501,1.3664,1.3926,1.4338,1.4825,1.5047,1.5152,1.5247,1.5447,1.5512,1.5504,1.5512,1.552,1.5585,1.5675,1.5796,1.5853,1.5959,1.6369,1.7199,1.7445,1.7691,1.8428,1.8673,1.8673,1.8673,1.8673,1.8837,1.9072,1.9316,1.9479,1.9642,1.9805,1.9805,1.9805,1.9723,1.9723,1.9733,1.9805,1.9967,2.0374,2.0455,2.0698,2.1114,2.1265,2.1092,2.0969,2.1103,2.1022,1.1819,1.1824,1.1819,1.1835,1.1824,1.1813,1.1813,1.1808,1.1797,1.1732,1.1634,1.1629,1.1569,1.156,1.2272,1.3053,1.3483,1.3476,1.3735,1.4163,1.4272,1.4285,1.4292,1.4299,1.4299,1.421,1.4299,1.4299,1.4299,1.4299,1.4299,1.4299,1.4299,1.4299,1.4299,1.4299,1.4299,1.4299,1.4387,1.4387,1.4387,1.438,1.4731,1.5198,1.5003,1.4765,1.4843,1.4539,1.4459,1.4721,1.4713,1.4555,1.4232,1.4149,1.3901,1.348,1.339,1.3322,1.3282,1.3227,1.3111,1.2872,1.2896,1.2742,1.2725,1.2807,1.3033,1.3269,1.3555,1.3894,1.4499,1.4766,1.5018,1.5345,1.552,1.5465,1.5536,1.5569,1.5601,1.5723,1.5788,1.5853,1.5999,1.5958,1.646,1.7035,1.7363,1.7691,1.8428,1.8673,1.8673,1.8673,1.8673,1.8755,1.8755,1.9,1.9235,1.9316,1.9316,1.9316,1.9235,1.9072,1.9163,1.9245,1.9316,1.9561,1.9967,2.0292,2.0709,2.0952,2.1033,2.1033,2.0709,2.0627,2.0627,1.2042,1.2042,1.2047,1.2042,1.2036,1.196,1.1928,1.1922,1.1851,1.1797,1.1759,1.1754,1.1726,1.1683,1.1967,1.2514,1.3147,1.3147,1.3413,1.3856,1.3856,1.3679,1.3413,1.3679,1.3856,1.3856,1.421,1.4299,1.4299,1.4299,1.4299,1.4299,1.4299,1.4299,1.4299,1.4299,1.4299,1.4299,1.4299,1.4299,1.4299,1.4299,1.4448,1.465,1.4472,1.4319,1.4195,1.4259,1.4307,1.4315,1.4307,1.4232,1.4066,1.3818,1.3569,1.3397,1.3397,1.3376,1.3315,1.3227,1.3132,1.303,1.2929,1.2854,1.2813,1.2847,1.2961,1.3141,1.3251,1.3535,1.4004,1.4436,1.4796,1.5135,1.5375,1.5512,1.5772,1.5853,1.5886,1.5934,1.5951,1.5983,1.6016,1.5966,1.6295,1.678,1.6944,1.7355,1.801,1.8255,1.8337,1.8592,1.8673,1.8673,1.8673,1.8755,1.8918,1.8918,1.8918,1.8918,1.8837,1.8837,1.8918,1.8918,1.9,1.9153,1.9561,1.9967,2.0303,2.0465,2.0617,2.0627,2.0211,2.0221,2.013,1.2172,1.2172,1.2172,1.2172,1.2161,1.208,1.2047,1.2036,1.1966,1.1911,1.1879,1.1873,1.1857,1.1813,1.1732,1.2193,1.2908,1.2835,1.2964,1.3325,1.3413,1.323,1.3059,1.3407,1.3591,1.3679,1.4122,1.4299,1.4299,1.4299,1.4299,1.4299,1.421,1.4122,1.421,1.4122,1.4122,1.4299,1.4299,1.4299,1.4299,1.4299,1.4299,1.4285,1.4197,1.4068,1.3926,1.4159,1.4203,1.3986,1.3923,1.3957,1.3825,1.3569,1.3397,1.3397,1.3397,1.3397,1.339,1.3302,1.3227,1.3173,1.3085,1.3017,1.2976,1.3003,1.3024,1.3057,1.3159,1.3411,1.3657,1.3984,1.4393,1.4817,1.5064,1.5381,1.5711,1.5793,1.5875,1.595,1.595,1.5958,1.5966,1.5966,1.6205,1.6616,1.6689,1.7026,1.76,1.7846,1.7928,1.8346,1.8428,1.851,1.8592,1.8755,1.8755,1.8755,1.8755,1.8755,1.8673,1.8673,1.8673,1.8673,1.8755,1.8918,1.9163,1.9561,1.9805,1.9886,2.0049,2.0211,1.9967,1.9805,1.9642,1.2172,1.2172,1.2172,1.2172,1.2172,1.2161,1.2167,1.2156,1.2156,1.208,1.1998,1.1993,1.1944,1.1851,1.1835,1.2363,1.2944,1.2573,1.2556,1.2989,1.2982,1.2887,1.2793,1.3318,1.3591,1.3679,1.4122,1.4299,1.4299,1.4299,1.421,1.421,1.3768,1.3768,1.421,1.3856,1.3856,1.4122,1.421,1.4299,1.4299,1.4299,1.4299,1.4299,1.4285,1.4217,1.4075,1.4142,1.4046,1.3817,1.3695,1.3559,1.3527,1.341,1.3397,1.3397,1.3397,1.3397,1.3397,1.339,1.3315,1.3227,1.318,1.3132,1.3057,1.3112,1.3173,1.3193,1.3288,1.3383,1.3383,1.3459,1.379,1.4548,1.4713,1.4878,1.5298,1.5381,1.5546,1.5883,1.5966,1.5966,1.5966,1.5966,1.6205,1.6451,1.6607,1.678,1.7273,1.7355,1.76,1.7928,1.8092,1.8255,1.85,1.8673,1.8673,1.8673,1.8673,1.8673,1.8673,1.8673,1.8673,1.8673,1.8673,1.8837,1.9,1.9316,1.9398,1.9561,1.9723,1.9723,1.9479,1.9316,1.9163,1.2172,1.2172,1.2172,1.2172,1.2172,1.2172,1.2172,1.2172,1.2172,1.215,1.2118,1.2112,1.2091,1.2047,1.1976,1.2303,1.2847,1.2591,1.265,1.2944,1.3022,1.261,1.2272,1.2793,1.3496,1.4033,1.421,1.4299,1.421,1.3945,1.3856,1.3679,1.3325,1.323,1.3325,1.3236,1.3325,1.3768,1.3856,1.3945,1.4299,1.4299,1.4299,1.4299,1.4299,1.4272,1.4231,1.4129,1.4,1.3858,1.3797,1.3709,1.3573,1.3458,1.3403,1.3397,1.3397,1.3397,1.3397,1.3397,1.3383,1.3336,1.3329,1.3315,1.3275,1.3295,1.3322,1.3322,1.3376,1.3397,1.3397,1.3397,1.3652,1.4225,1.4307,1.4473,1.4886,1.5216,1.5463,1.5628,1.5793,1.5966,1.5966,1.5966,1.6048,1.6205,1.6287,1.6451,1.678,1.6944,1.7273,1.7837,1.7919,1.8001,1.8174,1.8346,1.8428,1.851,1.851,1.8673,1.8673,1.8673,1.8673,1.8673,1.8673,1.8755,1.8918,1.9,1.9163,1.9082,1.9082,1.9082,1.8918,1.8837,1.8837,1.1794,1.17,1.1605,1.1605,1.17,1.1794,1.1889,1.1889,1.2078,1.2172,1.2172,1.2172,1.2172,1.2156,1.2091,1.2339,1.2701,1.2714,1.28,1.2956,1.3169,1.274,1.2298,1.2878,1.3452,1.3951,1.4033,1.3945,1.3768,1.3496,1.3325,1.323,1.2875,1.2787,1.2875,1.2793,1.2875,1.3318,1.3496,1.3768,1.4033,1.421,1.4299,1.4299,1.4299,1.4299,1.4292,1.4028,1.3934,1.392,1.3912,1.3691,1.3634,1.3318,1.3148,1.3148,1.3148,1.3148,1.3148,1.3321,1.3397,1.3397,1.3397,1.3397,1.3397,1.3397,1.3397,1.3397,1.3397,1.3397,1.3397,1.3397,1.3569,1.3818,1.3818,1.4059,1.4473,1.4886,1.5133,1.5216,1.5463,1.5711,1.5801,1.5966,1.5966,1.5966,1.5966,1.6048,1.6369,1.6451,1.6944,1.7346,1.76,1.7682,1.7764,1.801,1.8174,1.8255,1.8346,1.851,1.8673,1.8673,1.8673,1.8673,1.8673,1.8673,1.8837,1.8755,1.8837,1.8755,1.8673,1.8755,1.8755,1.8755,1.8755,1.1132,1.0753,1.0753,1.0753,1.0848,1.1227,1.151,1.151,1.1983,1.2172,1.2172,1.2172,1.2172,1.2172,1.2156,1.2433,1.2827,1.2899,1.2929,1.3004,1.3186,1.3193,1.3224,1.3372,1.3534,1.3718,1.3597,1.3407,1.3053,1.2964,1.2875,1.2787,1.2432,1.2343,1.252,1.2343,1.2432,1.2875,1.323,1.3502,1.3591,1.3945,1.421,1.4299,1.421,1.421,1.4115,1.3837,1.3843,1.4163,1.3927,1.3824,1.3583,1.3081,1.2759,1.2765,1.2746,1.2733,1.2816,1.3072,1.3314,1.3397,1.3397,1.3397,1.3397,1.3397,1.3397,1.3397,1.3397,1.3397,1.3397,1.3397,1.3397,1.3397,1.3486,1.3652,1.3983,1.439,1.4638,1.4721,1.5051,1.5381,1.5463,1.5719,1.5883,1.5966,1.5966,1.6048,1.6048,1.6205,1.6287,1.6698,1.7191,1.7273,1.7355,1.7682,1.7846,1.7682,1.7846,1.8183,1.8592,1.8592,1.8673,1.8673,1.8673,1.8673,1.8673,1.8673,1.8673,1.8673,1.8673,1.8673,1.8673,1.8673,1.8755,1.0848,1.0753,1.0753,1.0753,1.0753,1.1222,1.1416,1.151,1.1983,1.2172,1.2172,1.2172,1.2172,1.2172,1.2172,1.2456,1.2833,1.2928,1.311,1.3445,1.3503,1.345,1.3193,1.2872,1.3149,1.3547,1.3286,1.3053,1.2875,1.252,1.2432,1.2343,1.1988,1.1721,1.181,1.181,1.1899,1.2343,1.252,1.2964,1.3413,1.3318,1.3673,1.421,1.3945,1.3768,1.3768,1.3679,1.3679,1.3755,1.3948,1.4,1.3833,1.3278,1.2888,1.2785,1.2458,1.2401,1.265,1.2816,1.2989,1.3397,1.3314,1.3397,1.3397,1.3397,1.3397,1.3397,1.3397,1.3397,1.3397,1.3397,1.3397,1.3397,1.3397,1.348,1.3645,1.3983,1.4232,1.4315,1.4638,1.4968,1.5298,1.5463,1.5711,1.5883,1.5966,1.5966,1.5966,1.6048,1.613,1.6451,1.6854,1.6862,1.6944,1.7273,1.7355,1.7108,1.7273,1.7764,1.8101,1.8428,1.8592,1.8673,1.8673,1.8673,1.8673,1.8673,1.8673,1.8673,1.8673,1.8673,1.8673,1.8755,1.8837,1.028,0.9996,0.9996,0.9996,1.009,1.0749,1.1132,1.1227,1.1889,1.2172,1.2172,1.2172,1.2172,1.2172,1.2172,1.2361,1.255,1.2644,1.2739,1.3022,1.3016,1.3273,1.3475,1.3272,1.3284,1.3431,1.3176,1.2758,1.2355,1.1988,1.1899,1.1899,1.1632,1.1543,1.1543,1.1543,1.1632,1.1899,1.2077,1.252,1.2964,1.2964,1.3141,1.3591,1.3407,1.3325,1.3325,1.3502,1.3591,1.3647,1.3894,1.3988,1.3794,1.3165,1.2677,1.2452,1.2029,1.1969,1.2164,1.2318,1.265,1.2982,1.3065,1.3231,1.3314,1.3397,1.3397,1.3397,1.3397,1.3397,1.3397,1.3397,1.3397,1.3397,1.3397,1.3397,1.3397,1.3652,1.3818,1.3901,1.4149,1.4638,1.5043,1.5216,1.5546,1.5883,1.5966,1.5966,1.5966,1.6048,1.6048,1.6369,1.6525,1.6616,1.6616,1.6862,1.6944,1.6698,1.678,1.7273,1.7764,1.8174,1.8428,1.8592,1.8673,1.8673,1.8673,1.8673,1.8673,1.8673,1.8673,1.8673,1.8673,1.8673,1.8918,0.9522,0.9146,0.9146,0.9051,0.9332,1.0185,1.0659,1.0848,1.1605,1.1983,1.2078,1.2078,1.2078,1.2172,1.2172,1.2172,1.2267,1.2267,1.2267,1.2361,1.245,1.2852,1.3883,1.3727,1.3609,1.3356,1.3204,1.2567,1.1955,1.1654,1.1543,1.1543,1.1543,1.1543,1.1543,1.1543,1.1543,1.1632,1.1899,1.2165,1.2343,1.252,1.2698,1.2964,1.2875,1.2787,1.2875,1.3141,1.3413,1.3502,1.39,1.3854,1.3472,1.2823,1.2282,1.1833,1.1617,1.1536,1.1533,1.1837,1.2235,1.2567,1.265,1.2816,1.3148,1.3231,1.3314,1.3397,1.3397,1.3397,1.3397,1.3397,1.3397,1.3397,1.3397,1.3397,1.3397,1.3397,1.3397,1.3397,1.3818,1.4142,1.4555,1.5051,1.5463,1.5711,1.5883,1.5966,1.5966,1.5966,1.5966,1.6048,1.6287,1.6451,1.6369,1.6369,1.6369,1.6213,1.6451,1.678,1.7437,1.7846,1.8174,1.8428,1.851,1.8673,1.8673,1.8673,1.8673,1.8673,1.8673,1.8673,1.8673,1.8673,1.8837,0.9237,0.9051,0.9051,0.9051,0.9237,0.9806,1.009,1.0185,1.0753,1.1316,1.151,1.1605,1.1794,1.2172,1.2172,1.2172,1.2172,1.2172,1.2172,1.2172,1.2172,1.2822,1.3521,1.3355,1.345,1.3615,1.2987,1.244,1.2124,1.1777,1.1543,1.1543,1.1543,1.1543,1.1543,1.1543,1.1543,1.1543,1.1632,1.1899,1.2077,1.1988,1.2165,1.2698,1.252,1.2343,1.2343,1.2432,1.2698,1.3135,1.3735,1.3879,1.35,1.296,1.2433,1.1842,1.1356,1.1255,1.1458,1.155,1.1736,1.2152,1.2235,1.2401,1.2816,1.2899,1.3065,1.3314,1.3397,1.3397,1.3397,1.3397,1.3397,1.3397,1.3397,1.3397,1.3397,1.3397,1.3397,1.3397,1.3486,1.3735,1.4232,1.4638,1.5051,1.5463,1.5711,1.5966,1.5966,1.5966,1.5966,1.5966,1.6048,1.6205,1.6205,1.6205,1.613,1.6048,1.6205,1.6287,1.6944,1.7519,1.7846,1.8174,1.8419,1.851,1.8592,1.8673,1.8673,1.8673,1.8673,1.8673,1.8673,1.8673,1.8755,0.9051,0.9051,0.9051,0.9051,0.9142,0.9711,0.9901,0.9996,1.0469,1.0848,1.1037,1.1037,1.1321,1.1794,1.1889,1.1983,1.2172,1.2172,1.2172,1.2172,1.2267,1.2644,1.3205,1.3327,1.3547,1.4123,1.372,1.3041,1.2458,1.2113,1.1782,1.1549,1.1543,1.1543,1.1543,1.1543,1.1543,1.1543,1.1543,1.1632,1.181,1.1632,1.1632,1.2165,1.1988,1.1899,1.2165,1.2254,1.2432,1.2875,1.3325,1.3591,1.3318,1.2984,1.2478,1.169,1.1351,1.11,1.1193,1.1199,1.1389,1.1742,1.1736,1.1986,1.2318,1.2567,1.2816,1.3065,1.3238,1.3397,1.3397,1.3397,1.3397,1.3397,1.3397,1.3397,1.3397,1.3397,1.3397,1.3397,1.3397,1.3652,1.3983,1.439,1.4886,1.5381,1.5793,1.5966,1.5966,1.5966,1.5966,1.5966,1.5966,1.6048,1.6048,1.6048,1.6048,1.6048,1.6048,1.6122,1.6369,1.6944,1.7437,1.7764,1.8092,1.8255,1.8337,1.851,1.8673,1.8673,1.8673,1.8673,1.8673,1.8673,1.8755,0.9051,0.9051,0.9051,0.9051,0.9142,0.9616,0.9711,0.9806,1.028,1.0375,1.0564,1.0564,1.0848,1.1321,1.1416,1.17,1.2078,1.2172,1.2172,1.2172,1.2172,1.255,1.2922,1.3287,1.3621,1.4168,1.411,1.3615,1.2841,1.2373,1.2023,1.1587,1.1543,1.1543,1.1543,1.1543,1.1543,1.1543,1.1543,1.1543,1.1543,1.1543,1.1543,1.1543,1.1632,1.1721,1.1988,1.2077,1.2254,1.2698,1.2787,1.2787,1.2787,1.2692,1.2396,1.1396,1.127,1.1259,1.1122,1.1028,1.1036,1.1354,1.1326,1.1486,1.1902,1.2235,1.2401,1.2733,1.2899,1.3314,1.3397,1.3397,1.3397,1.3397,1.3397,1.3397,1.3397,1.3397,1.3397,1.3397,1.3397,1.3569,1.3901,1.4225,1.4721,1.5216,1.5628,1.5966,1.5966,1.5966,1.5966,1.5966,1.5966,1.5966,1.5966,1.5966,1.5966,1.5966,1.5966,1.6048,1.6048,1.6369,1.6862,1.7273,1.76,1.7846,1.8174,1.851,1.8592,1.8673,1.8673,1.8673,1.8673,1.8673,1.8755,0.9051,0.9051,0.9051,0.9051,0.9146,0.9241,0.9237,0.9237,0.9427,0.9616,0.9996,1.009,1.0564,1.1227,1.1416,1.17,1.2078,1.2172,1.2172,1.2172,1.2267,1.2456,1.2833,1.3022,1.3381,1.3815,1.4026,1.3826,1.3168,1.275,1.2193,1.168,1.1509,1.1471,1.1549,1.1543,1.1543,1.1543,1.1543,1.1543,1.1543,1.1543,1.1543,1.1543,1.1543,1.1543,1.1632,1.1632,1.181,1.2254,1.2343,1.2343,1.2343,1.2343,1.1971,1.1577,1.1335,1.1253,1.1172,1.1031,1.0938,1.0957,1.0986,1.1093,1.1421,1.1659,1.192,1.2318,1.265,1.2982,1.3397,1.3397,1.3397,1.3397,1.3397,1.3397,1.3397,1.3397,1.3397,1.3397,1.3397,1.3486,1.3735,1.4066,1.4473,1.4968,1.5381,1.5793,1.5966,1.5966,1.5966,1.5966,1.5966,1.5966,1.5966,1.5966,1.5966,1.5966,1.5966,1.5966,1.6048,1.6048,1.6377,1.678,1.7273,1.7764,1.8092,1.8346,1.8592,1.8673,1.8673,1.8673,1.8673,1.8673,1.8673,0.9051,0.9051,0.9051,0.9051,0.9051,0.9051,0.9051,0.9051,0.9146,0.9241,0.9427,0.9522,1.009,1.0848,1.1037,1.1416,1.2078,1.2172,1.2172,1.2172,1.2267,1.2267,1.2644,1.2739,1.3022,1.3381,1.3708,1.3635,1.3103,1.2714,1.221,1.173,1.1569,1.152,1.1465,1.1543,1.1543,1.1543,1.1543,1.1543,1.1543,1.1543,1.1543,1.1543,1.1543,1.1543,1.1543,1.1543,1.1632,1.181,1.181,1.181,1.181,1.181,1.1721,1.1533,1.1395,1.133,1.1281,1.115,1.109,1.102,1.0949,1.1012,1.1244,1.1469,1.1634,1.2087,1.2484,1.2816,1.2989,1.3238,1.3397,1.3397,1.3397,1.3397,1.3397,1.3397,1.3397,1.3397,1.3397,1.3403,1.3486,1.3818,1.4225,1.4638,1.5051,1.5463,1.5883,1.5966,1.5883,1.5966,1.5966,1.5966,1.5966,1.5966,1.5966,1.5966,1.5966,1.5966,1.5966,1.6048,1.6048,1.6295,1.6862,1.7437,1.7764,1.7937,1.8265,1.8673,1.8673,1.8673,1.8673,1.8673,1.8673,0.9051,0.9051,0.9051,0.9051,0.9051,0.9051,0.9051,0.9051,0.9051,0.9146,0.9051,0.9142,0.9711,1.0564,1.1037,1.151,1.2172,1.2172,1.2172,1.2172,1.2172,1.2172,1.2361,1.255,1.2739,1.2833,1.3104,1.3157,1.2894,1.2725,1.2334,1.185,1.1688,1.1596,1.152,1.1476,1.1465,1.1543,1.1543,1.1543,1.1543,1.1543,1.1543,1.1543,1.1543,1.1543,1.1543,1.1543,1.1543,1.1543,1.1543,1.1543,1.1543,1.1543,1.1543,1.1543,1.1543,1.1395,1.134,1.1264,1.1204,1.1139,1.1112,1.109,1.1105,1.1244,1.1496,1.1926,1.2152,1.2401,1.2567,1.2899,1.3148,1.3238,1.3238,1.3321,1.3397,1.3397,1.3397,1.3397,1.3397,1.3397,1.3486,1.3569,1.3976,1.439,1.4803,1.5216,1.5628,1.5719,1.5801,1.5801,1.5883,1.5966,1.5966,1.5966,1.5966,1.5966,1.5966,1.5966,1.5966,1.5966,1.6048,1.613,1.6295,1.678,1.7191,1.7682,1.8092,1.8428,1.8592,1.8673,1.8673,1.8673,1.8673,0.9051,0.9051,0.9051,0.9051,0.9051,0.9051,0.9051,0.9051,0.9051,0.9051,0.9051,0.9146,0.9711,1.0659,1.1605,1.2078,1.2172,1.2172,1.2172,1.2172,1.2172,1.2172,1.2172,1.2267,1.2361,1.2361,1.2456,1.2639,1.2682,1.2696,1.2447,1.1993,1.1737,1.1623,1.1585,1.1498,1.1549,1.1543,1.1543,1.1543,1.1543,1.1543,1.1543,1.1543,1.1543,1.1543,1.1543,1.1543,1.1543,1.1543,1.1543,1.1543,1.1543,1.1543,1.1543,1.1543,1.1543,1.1538,1.15,1.1346,1.1291,1.1243,1.1183,1.1063,1.0982,1.0963,1.1121,1.1415,1.157,1.1819,1.2069,1.2235,1.2484,1.2733,1.2906,1.3065,1.3314,1.3397,1.3397,1.3397,1.3397,1.3397,1.3397,1.348,1.3645,1.4059,1.4555,1.4968,1.5381,1.5628,1.5628,1.5628,1.5883,1.5966,1.5966,1.5966,1.5966,1.5966,1.5966,1.5966,1.5966,1.5966,1.5966,1.6048,1.613,1.6287,1.6698,1.7191,1.7846,1.8174,1.8265,1.851,1.8673,1.8673,1.8673,0.9051,0.9051,0.9051,0.9051,0.9051,0.9051,0.9051,0.9051,0.9051,0.9051,0.9051,0.9146,0.9711,1.0753,1.1794,1.2172,1.2172,1.2172,1.2172,1.2172,1.2172,1.2172,1.2172,1.2172,1.2172,1.2172,1.2172,1.2361,1.2428,1.2494,1.2256,1.2064,1.183,1.1699,1.1645,1.1514,1.156,1.1543,1.1543,1.1543,1.1543,1.1543,1.1543,1.1543,1.1543,1.1543,1.1543,1.1543,1.1543,1.1543,1.1543,1.1543,1.1543,1.1543,1.1543,1.1543,1.1543,1.1543,1.1533,1.14,1.1378,1.1368,1.1308,1.1232,1.1058,1.0905,1.0791,1.0992,1.1237,1.1486,1.1736,1.1986,1.2318,1.2567,1.265,1.2982,1.3231,1.3314,1.3397,1.3397,1.3397,1.3397,1.3397,1.3397,1.3562,1.3983,1.4473,1.4886,1.5381,1.5711,1.5628,1.5463,1.5711,1.5966,1.5966,1.5966,1.5966,1.5966,1.5966,1.5966,1.5966,1.5966,1.5966,1.5966,1.6048,1.6205,1.6369,1.678,1.7355,1.7682,1.8019,1.8265,1.8428,1.8673,1.8673,0.9051,0.9051,0.9051,0.9051,0.9051,0.9051,0.9051,0.9051,0.9051,0.9051,0.9142,0.9237,0.9806,1.0564,1.1416,1.1983,1.1983,1.2172,1.2172,1.2172,1.2172,1.2172,1.2172,1.2172,1.2172,1.2172,1.2172,1.2267,1.2267,1.225,1.2206,1.2031,1.1922,1.1803,1.1683,1.1574,1.1504,1.1543,1.1543,1.1543,1.1543,1.1543,1.1543,1.1543,1.1543,1.1543,1.1543,1.1543,1.1543,1.1543,1.1543,1.1543,1.1543,1.1543,1.1543,1.1543,1.1543,1.1543,1.1543,1.1444,1.1543,1.1527,1.1373,1.1232,1.1112,1.0976,1.0851,1.0742,1.0987,1.1153,1.132,1.1486,1.1902,1.2235,1.2484,1.2899,1.3231,1.3314,1.3397,1.3397,1.3397,1.3397,1.3397,1.3397,1.3562,1.3901,1.4307,1.4796,1.5216,1.5546,1.5463,1.5216,1.5463,1.5801,1.5966,1.5966,1.5966,1.5966,1.5966,1.5966,1.5966,1.5966,1.5966,1.5966,1.5966,1.6048,1.6205,1.6534,1.678,1.7191,1.76,1.7928,1.8174,1.8428,1.8673,0.9051,0.9051,0.9051,0.9051,0.9051,0.9051,0.9051,0.9051,0.9051,0.9051,0.9142,0.9522,0.9806,1.028,1.0943,1.1416,1.151,1.1983,1.1983,1.2078,1.2172,1.2078,1.2078,1.2172,1.2172,1.2172,1.2172,1.2172,1.2172,1.2172,1.2161,1.214,1.2004,1.1911,1.1781,1.1634,1.1525,1.1476,1.1543,1.1543,1.1543,1.1543,1.1543,1.1543,1.1543,1.1543,1.1543,1.1543,1.1543,1.1543,1.1543,1.1543,1.1543,1.1543,1.1543,1.1543,1.1543,1.1543,1.1543,1.1543,1.1538,1.1395,1.1286,1.115,1.1069,1.0873,1.0759,1.0742,1.082,1.082,1.082,1.0904,1.1403,1.1902,1.2235,1.265,1.2982,1.3314,1.3397,1.3397,1.3397,1.3397,1.3397,1.3397,1.3397,1.3652,1.4142,1.4638,1.4803,1.5051,1.5051,1.5051,1.5298,1.5546,1.5966,1.5966,1.5966,1.5966,1.5966,1.5966,1.5966,1.5966,1.5966,1.5966,1.5966,1.5966,1.6048,1.6287,1.6616,1.6862,1.7191,1.7682,1.8174,1.851,1.8673,0.9051,0.9051,0.9051,0.9051,0.9051,0.9051,0.9051,0.9051,0.9051,0.9051,0.9146,0.9616,0.9901,1.009,1.0564,1.0943,1.0938,1.1132,1.1321,1.1416,1.151,1.17,1.1794,1.1983,1.2172,1.2172,1.2172,1.2172,1.2172,1.2172,1.2172,1.2134,1.2053,1.1933,1.1803,1.1639,1.1514,1.1482,1.1543,1.1543,1.1543,1.1543,1.1543,1.1543,1.1543,1.1543,1.1543,1.1543,1.1543,1.1543,1.1543,1.1543,1.1543,1.1543,1.1543,1.1543,1.1543,1.1543,1.1543,1.1538,1.1511,1.1324,1.1194,1.1074,1.1009,1.0829,1.0753,1.0737,1.0737,1.0737,1.0737,1.0737,1.0987,1.1486,1.1986,1.2401,1.2816,1.3148,1.3397,1.3403,1.3397,1.3397,1.3397,1.3397,1.3397,1.348,1.3976,1.439,1.4555,1.4638,1.4721,1.4803,1.5051,1.5463,1.5801,1.5883,1.5966,1.5966,1.5966,1.5966,1.5966,1.5966,1.5966,1.5966,1.5966,1.5966,1.6048,1.6122,1.6287,1.6534,1.7026,1.7764,1.8183,1.851,1.8592,0.9051,0.9051,0.9051,0.9051,0.9051,0.9051,0.9051,0.9051,0.9051,0.9051,0.9146,0.9522,0.9616,0.9806,1.0185,1.0469,1.0564,1.0659,1.0753,1.0943,1.1227,1.1416,1.1605,1.1889,1.2172,1.2172,1.2172,1.2172,1.2172,1.2172,1.2172,1.2145,1.208,1.1976,1.1792,1.159,1.1549,1.1543,1.1543,1.1543,1.1543,1.1543,1.1543,1.1543,1.1543,1.1543,1.1543,1.1543,1.1543,1.1543,1.1543,1.1543,1.1543,1.1543,1.1543,1.1543,1.1543,1.1543,1.1543,1.1538,1.14,1.1297,1.1177,1.1052,1.0927,1.0808,1.0742,1.0737,1.0737,1.0737,1.0737,1.0737,1.0904,1.1403,1.1653,1.1986,1.2567,1.2982,1.3155,1.3321,1.3403,1.3397,1.3397,1.3397,1.3569,1.3569,1.3901,1.4232,1.4232,1.4397,1.4473,1.4638,1.4803,1.5298,1.5719,1.5801,1.5966,1.5966,1.5966,1.5966,1.5966,1.5966,1.5966,1.5966,1.5966,1.5966,1.6048,1.613,1.6048,1.6048,1.678,1.7691,1.8265,1.8673,1.8673,0.9051,0.9051,0.9051,0.9051,0.9051,0.9051,0.9051,0.9051,0.9051,0.9051,0.9051,0.9142,0.9142,0.9332,0.9711,0.9901,0.9996,1.0375,1.0469,1.0564,1.0848,1.1227,1.151,1.1794,1.2078,1.2172,1.2172,1.2172,1.2172,1.2172,1.2172,1.215,1.2096,1.2004,1.1813,1.1574,1.146,1.1543,1.1543,1.1543,1.1543,1.1543,1.1543,1.1543,1.1543,1.1543,1.1543,1.1543,1.1543,1.1543,1.1543,1.1543,1.1543,1.1543,1.1543,1.1543,1.1543,1.1543,1.1543,1.1543,1.1373,1.1259,1.1139,1.1041,1.0922,1.0813,1.0737,1.0737,1.0737,1.0737,1.0737,1.0737,1.0987,1.1153,1.1403,1.1653,1.2235,1.265,1.2816,1.3072,1.3231,1.3397,1.3397,1.3486,1.3652,1.3818,1.3983,1.4066,1.4066,1.4066,1.4142,1.439,1.4555,1.4886,1.5298,1.5711,1.5958,1.5966,1.5966,1.5966,1.5966,1.5966,1.5966,1.5966,1.5966,1.5966,1.5966,1.5966,1.613,1.6377,1.6871,1.7609,1.8265,1.8673,1.8673,0.9051,0.9051,0.9051,0.9051,0.9051,0.9051,0.9051,0.9051,0.9051,0.9051,0.9051,0.9051,0.9051,0.9142,0.9237,0.9427,0.9427,0.9427,0.9616,0.9711,1.028,1.0659,1.0943,1.151,1.1889,1.2172,1.2172,1.2172,1.2172,1.2172,1.2172,1.2156,1.2047,1.19,1.1775,1.1596,1.1549,1.1543,1.1543,1.1543,1.1543,1.1543,1.1543,1.1543,1.1543,1.1543,1.1543,1.1543,1.1543,1.1543,1.1543,1.1543,1.1543,1.1543,1.1543,1.1543,1.1543,1.1543,1.1516,1.1478,1.1281,1.1194,1.1112,1.1003,1.0829,1.077,1.0737,1.0737,1.0737,1.0737,1.0737,1.0737,1.0904,1.0904,1.1153,1.1403,1.1819,1.2152,1.2401,1.2733,1.2899,1.3148,1.3231,1.3397,1.3569,1.3652,1.3735,1.3735,1.3652,1.3652,1.3735,1.4066,1.4315,1.4555,1.4886,1.5298,1.5628,1.5711,1.5883,1.5966,1.5966,1.5966,1.5966,1.5966,1.5966,1.5966,1.5966,1.6048,1.646,1.6789,1.7199,1.7691,1.8428,1.8673,1.8673,0.9051,0.9051,0.9051,0.9051,0.9051,0.9051,0.9051,0.9051,0.9051,0.9051,0.9051,0.9051,0.9051,0.9051,0.9051,0.9051,0.9051,0.9146,0.9146,0.9142,0.9711,1.028,1.0753,1.1132,1.17,1.2078,1.2172,1.2172,1.2172,1.2172,1.2172,1.2123,1.1982,1.1922,1.1803,1.1639,1.1543,1.1543,1.1543,1.1543,1.1543,1.1543,1.1543,1.1543,1.1543,1.1543,1.1543,1.1543,1.1543,1.1543,1.1543,1.1543,1.1543,1.1543,1.1543,1.1543,1.1543,1.1543,1.1522,1.1494,1.1308,1.1199,1.1101,1.0944,1.0786,1.0742,1.0737,1.0737,1.0737,1.0737,1.0737,1.0737,1.0737,1.082,1.0904,1.1153,1.1486,1.1819,1.1986,1.2318,1.2567,1.2816,1.3148,1.3314,1.3486,1.3397,1.3397,1.3397,1.3397,1.3403,1.3486,1.3735,1.3983,1.4232,1.4555,1.4886,1.5133,1.5381,1.5628,1.5801,1.5966,1.5966,1.5966,1.5966,1.5966,1.5966,1.5966,1.613,1.6377,1.6789,1.7199,1.7773,1.8592,1.8673,1.8673,0.9051,0.9051,0.9051,0.9051,0.9051,0.9051,0.9051,0.9051,0.9051,0.9051,0.9051,0.9051,0.9051,0.9051,0.9051,0.9051,0.9051,0.9051,0.9051,0.9237,0.9522,1.009,1.0564,1.1037,1.151,1.1983,1.2172,1.2172,1.2172,1.2172,1.2172,1.2145,1.2025,1.1971,1.1857,1.1705,1.1536,1.1509,1.1465,1.146,1.1543,1.1543,1.1543,1.1543,1.1543,1.1543,1.1543,1.1543,1.1543,1.1543,1.1543,1.1543,1.1543,1.1543,1.1543,1.1543,1.1543,1.1543,1.1538,1.1516,1.1362,1.1232,1.1069,1.09,1.0797,1.0753,1.0737,1.0737,1.0737,1.0737,1.0737,1.0737,1.0737,1.0737,1.0737,1.0987,1.1237,1.1486,1.1653,1.1902,1.2235,1.2484,1.2816,1.3065,1.3397,1.3397,1.3397,1.3397,1.3397,1.3397,1.3403,1.3486,1.3735,1.3983,1.4232,1.4473,1.4638,1.4886,1.5298,1.5628,1.5793,1.5966,1.5966,1.5966,1.5966,1.5966,1.5966,1.6048,1.6213,1.6624,1.7035,1.76,1.8255,1.8592,1.8673,0.9051,0.9051,0.9051,0.9051,0.9051,0.9051,0.9051,0.9051,0.9051,0.9051,0.9051,0.9051,0.9051,0.9051,0.9051,0.9051,0.9051,0.9051,0.9051,0.9237,0.9332,0.9711,1.0185,1.0753,1.1132,1.1605,1.1983,1.2172,1.2172,1.2172,1.2172,1.215,1.2058,1.2015,1.1938,1.1808,1.1694,1.159,1.152,1.1482,1.1465,1.146,1.1549,1.1543,1.1543,1.1543,1.1543,1.1543,1.1543,1.1543,1.1543,1.1543,1.1543,1.1543,1.1543,1.1543,1.1543,1.1543,1.1438,1.1373,1.1319,1.1281,1.1134,1.1009,1.0889,1.0808,1.0759,1.0742,1.0737,1.0737,1.0737,1.0737,1.0737,1.0737,1.0737,1.082,1.0987,1.107,1.1237,1.157,1.1819,1.2318,1.265,1.3065,1.3397,1.3397,1.3397,1.3397,1.3397,1.3397,1.3397,1.3403,1.3486,1.3735,1.3818,1.3983,1.4232,1.448,1.4968,1.5381,1.5546,1.5801,1.5883,1.5966,1.5966,1.5966,1.5966,1.6048,1.613,1.6451,1.6862,1.7437,1.7928,1.8255,1.8592,0.9051,0.9051,0.9051,0.9051,0.9051,0.9051,0.9051,0.9051,0.9051,0.9051,0.9051,0.9051,0.9051,0.9051,0.9051,0.9051,0.9051,0.9051,0.9051,0.9051,0.9142,0.9711,1.0185,1.0564,1.1132,1.1605,1.1983,1.2172,1.2172,1.2172,1.2172,1.2167,1.208,1.2069,1.2025,1.1944,1.1857,1.1743,1.1645,1.1552,1.1509,1.1482,1.1549,1.1543,1.1543,1.1543,1.1543,1.1543,1.1543,1.1543,1.1543,1.1543,1.1543,1.1543,1.1543,1.1543,1.1543,1.1543,1.1533,1.1489,1.1445,1.1313,1.1237,1.115,1.1036,1.0938,1.0835,1.067,1.0742,1.0737,1.0737,1.0737,1.0737,1.0737,1.0737,1.0737,1.0737,1.0737,1.0904,1.1237,1.1653,1.2152,1.265,1.3065,1.3397,1.3397,1.3397,1.3397,1.3397,1.3397,1.3397,1.3397,1.3403,1.3569,1.3569,1.3735,1.3983,1.4307,1.4721,1.5133,1.5381,1.5636,1.5966,1.5966,1.5966,1.5966,1.5966,1.6048,1.613,1.6369,1.6616,1.6944,1.7428,1.7928,1.8174,0.9051,0.9051,0.9051,0.9051,0.9051,0.9051,0.9051,0.9051,0.9051,0.9051,0.9051,0.9051,0.9051,0.9051,0.9051,0.9051,0.9051,0.9051,0.9051,0.9146,0.9237,0.9711,1.028,1.0753,1.1227,1.1794,1.2172,1.2172,1.2172,1.2172,1.2172,1.2172,1.2161,1.2145,1.2123,1.2053,1.1987,1.1944,1.1775,1.1639,1.1585,1.1531,1.1543,1.1543,1.1543,1.1543,1.1543,1.1543,1.1543,1.1543,1.1543,1.1543,1.1543,1.1543,1.1543,1.1543,1.1543,1.1543,1.1543,1.1522,1.1527,1.1406,1.1351,1.1275,1.1166,1.0998,1.0862,1.0797,1.078,1.0748,1.0737,1.0737,1.0737,1.0737,1.0737,1.0737,1.0737,1.0737,1.082,1.107,1.1403,1.1902,1.2152,1.2567,1.2899,1.3148,1.3148,1.3148,1.3231,1.3231,1.3397,1.3397,1.3397,1.3486,1.3569,1.3735,1.3894,1.4142,1.4548,1.4796,1.5133,1.5546,1.5966,1.5966,1.5966,1.5966,1.5966,1.6048,1.6048,1.6122,1.6369,1.6534,1.6936,1.7437,1.7846,0.9051,0.9051,0.9051,0.9051,0.9051,0.9051,0.9051,0.9051,0.9051,0.9051,0.9051,0.9051,0.9051,0.9051,0.9051,0.9051,0.9051,0.9051,0.9051,0.9237,0.9427,0.9806,1.028,1.0848,1.1321,1.1605,1.1889,1.2172,1.2172,1.2172,1.2172,1.2172,1.2172,1.2172,1.2172,1.2112,1.2102,1.2069,1.1884,1.171,1.1623,1.1536,1.1543,1.1543,1.1543,1.1543,1.1543,1.1543,1.1543,1.1543,1.1543,1.1543,1.1543,1.1543,1.1543,1.1543,1.1543,1.1543,1.1543,1.1543,1.1543,1.1543,1.1411,1.1351,1.1232,1.1036,1.0911,1.0862,1.0813,1.077,1.0737,1.0737,1.0737,1.0737,1.0737,1.0737,1.0737,1.0737,1.0737,1.0987,1.132,1.1486,1.1736,1.1986,1.2318,1.2401,1.2401,1.2484,1.2816,1.2899,1.3231,1.3314,1.3397,1.348,1.3569,1.3652,1.3728,1.3976,1.4307,1.4555,1.4886,1.5463,1.5966,1.5966,1.5966,1.5966,1.5966,1.5966,1.6048,1.604,1.604,1.6287,1.6369,1.678,1.7355,0.9051,0.9051,0.9051,0.9051,0.9051,0.9051,0.9051,0.9051,0.9051,0.9051,0.9051,0.9051,0.9051,0.9051,0.9051,0.9051,0.9051,0.9051,0.9051,0.9237,0.9711,0.9996,1.0469,1.1037,1.151,1.1794,1.1983,1.2172,1.2172,1.2172,1.2172,1.2172,1.2172,1.2172,1.2172,1.2167,1.214,1.208,1.1906,1.1764,1.1639,1.1531,1.1549,1.1543,1.1543,1.1543,1.1543,1.1543,1.1543,1.1543,1.1543,1.1543,1.1543,1.1543,1.1543,1.1543,1.1543,1.1543,1.1543,1.1543,1.1543,1.1543,1.1543,1.1389,1.1368,1.1183,1.102,1.096,1.0889,1.084,1.0759,1.0737,1.0737,1.0737,1.0737,1.0737,1.0737,1.0737,1.0737,1.082,1.1153,1.1403,1.1653,1.1902,1.2152,1.2235,1.2152,1.2235,1.2484,1.265,1.2982,1.3231,1.3314,1.3562,1.3818,1.3735,1.3569,1.3811,1.4142,1.4555,1.5051,1.5546,1.5966,1.5966,1.5966,1.5966,1.5966,1.5966,1.5966,1.6048,1.6048,1.6048,1.613,1.6295,1.678,0.9051,0.9051,0.9051,0.9051,0.9051,0.9051,0.9051,0.9051,0.9051,0.9051,0.9051,0.9051,0.9051,0.9051,0.9051,0.9051,0.9051,0.9051,0.9051,0.9427,0.9806,1.028,1.0848,1.1316,1.17,1.1983,1.2172,1.2172,1.2172,1.2172,1.2172,1.2172,1.2172,1.2172,1.2172,1.2161,1.2129,1.2015,1.1879,1.1759,1.1639,1.152,1.1476,1.1543,1.1543,1.1543,1.1543,1.1543,1.1543,1.1543,1.1543,1.1543,1.1543,1.1543,1.1543,1.1543,1.1543,1.1543,1.1543,1.1543,1.1543,1.1543,1.1543,1.1533,1.1417,1.1335,1.1166,1.1036,1.0965,1.0873,1.0786,1.0737,1.0737,1.0737,1.0737,1.0737,1.0737,1.0737,1.0737,1.0737,1.0987,1.132,1.1486,1.1736,1.1819,1.1902,1.2069,1.2235,1.2401,1.2567,1.2733,1.3065,1.3397,1.3652,1.3901,1.3735,1.3486,1.3735,1.3983,1.4555,1.5133,1.5636,1.5966,1.5966,1.5966,1.5966,1.5966,1.5966,1.5966,1.5966,1.5966,1.5966,1.6048,1.6213,1.6295,0.9051,0.9051,0.9051,0.9051,0.9051,0.9051,0.9051,0.9051,0.9051,0.9051,0.9051,0.9051,0.9051,0.9051,0.9051,0.9146,0.9146,0.9146,0.9427,0.9806,1.028,1.0753,1.1227,1.1605,1.1983,1.2172,1.2172,1.2172,1.2172,1.2172,1.2172,1.2172,1.2172,1.2172,1.2172,1.215,1.2107,1.1982,1.1868,1.1754,1.1629,1.1531,1.1471,1.1543,1.1543,1.1543,1.1543,1.1543,1.1543,1.1543,1.1543,1.1543,1.1543,1.1543,1.1543,1.1543,1.1543,1.1543,1.1543,1.1543,1.1543,1.1543,1.1543,1.1543,1.1527,1.1527,1.1264,1.1085,1.0992,1.0873,1.0791,1.0748,1.0737,1.0737,1.0737,1.0737,1.0737,1.0737,1.0737,1.0737,1.082,1.0904,1.0987,1.107,1.1153,1.1153,1.1153,1.1486,1.2152,1.2401,1.2567,1.2982,1.3397,1.3397,1.348,1.3569,1.3486,1.3652,1.3901,1.4555,1.5133,1.5719,1.5966,1.5966,1.5966,1.5966,1.5966,1.5966,1.5966,1.5966,1.5966,1.6048,1.6048,1.613,1.6213]}]]